Time,TemperatureF,DewpointF,PressureIn,WindDirection,WindDirectionDegrees,WindSpeedMPH,WindSpeedGustMPH,Humidity,HourlyPrecipIn,Conditions,Clouds,dailyrainin,SoftwareType,DateUTC
2013-02-22 00:00:00,22.5,17.9,30.29,NW,312,0.0,8.6,82,0.00,,---,0.00,VWS V14.01,2013-02-22 05:00:00,
2013-02-22 00:02:00,22.5,17.9,30.29,NW,312,0.0,8.6,82,0.00,,,0.00,VWS V14.01,2013-02-22 05:02:00,
2013-02-22 00:03:00,22.5,17.9,30.29,NW,312,0.0,2.7,82,0.00,,,0.00,VWS V14.01,2013-02-22 05:03:00,
2013-02-22 00:04:00,22.5,17.9,30.29,NW,312,0.0,0.0,82,0.00,,,0.00,VWS V14.01,2013-02-22 05:04:00,
2013-02-22 00:05:00,22.4,17.6,30.29,NW,312,0.0,0.0,81,0.00,,---,0.00,VWS V14.01,2013-02-22 05:05:00,
2013-02-22 00:06:00,22.5,17.7,30.29,NW,312,0.0,0.0,82,0.00,,,0.00,VWS V14.01,2013-02-22 05:06:00,
2013-02-22 00:07:00,22.5,17.7,30.28,West,270,0.0,5.0,82,0.00,,---,0.00,VWS V14.01,2013-02-22 05:07:00,
2013-02-22 00:08:00,22.4,17.6,30.28,NNW,346,5.0,9.4,81,0.00,,,0.00,VWS V14.01,2013-02-22 05:08:00,
2013-02-22 00:09:00,22.5,17.7,30.28,WNW,288,5.0,7.3,82,0.00,,,0.00,VWS V14.01,2013-02-22 05:09:00,
2013-02-22 00:10:00,22.5,17.7,30.28,North,359,3.2,5.0,82,0.00,,,0.00,VWS V14.01,2013-02-22 05:10:00,
2013-02-22 00:11:00,22.6,17.8,30.28,North,6,0.0,3.2,82,0.00,,,0.00,VWS V14.01,2013-02-22 05:11:00,
2013-02-22 00:12:00,22.6,17.8,30.28,North,6,0.0,2.5,81,0.00,,---,0.00,VWS V14.01,2013-02-22 05:12:00,
2013-02-22 00:13:00,22.5,17.7,30.28,North,6,0.0,0.0,82,0.00,,,0.00,VWS V14.01,2013-02-22 05:13:00,
2013-02-22 00:14:00,22.6,17.8,30.28,North,6,0.0,0.0,82,0.00,,,0.00,VWS V14.01,2013-02-22 05:14:00,
2013-02-22 00:15:00,22.6,17.9,30.28,North,6,0.0,2.5,82,0.00,,,0.00,VWS V14.01,2013-02-22 05:15:00,
2013-02-22 00:16:00,22.6,17.9,30.28,NNW,346,5.8,6.4,82,0.00,,,0.00,VWS V14.01,2013-02-22 05:16:00,
2013-02-22 00:17:00,22.6,18.0,30.29,NNW,336,0.0,0.0,82,0.00,,---,0.00,VWS V14.01,2013-02-22 05:17:00,
2013-02-22 00:18:00,22.6,17.9,30.29,NNW,336,0.0,0.0,82,0.00,,,0.00,VWS V14.01,2013-02-22 05:18:00,
2013-02-22 00:19:00,22.6,18.0,30.29,NNW,336,0.0,0.0,82,0.00,,,0.00,VWS V14.01,2013-02-22 05:19:00,
2013-02-22 00:20:00,22.7,18.0,30.29,NW,311,7.6,7.6,82,0.00,,,0.00,VWS V14.01,2013-02-22 05:20:00,
2013-02-22 00:21:00,22.6,17.8,30.28,NNW,338,0.0,7.6,82,0.00,,,0.00,VWS V14.01,2013-02-22 05:21:00,
2013-02-22 00:22:00,22.6,18.0,30.28,NNW,338,0.0,0.0,82,0.00,,---,0.00,VWS V14.01,2013-02-22 05:22:00,
2013-02-22 00:23:00,22.6,17.9,30.28,NNW,338,0.0,0.0,82,0.00,,,0.00,VWS V14.01,2013-02-22 05:23:00,
2013-02-22 00:24:00,22.6,18.0,30.28,NNW,338,0.0,0.0,82,0.00,,,0.00,VWS V14.01,2013-02-22 05:24:00,
2013-02-22 00:25:00,22.6,18.0,30.28,North,7,3.4,6.4,82,0.00,,,0.00,VWS V14.01,2013-02-22 05:25:00,
2013-02-22 00:26:00,22.6,17.9,30.28,NNW,345,3.4,4.3,82,0.00,,,0.00,VWS V14.01,2013-02-22 05:26:00,
2013-02-22 00:27:00,22.5,17.9,30.28,NNW,330,0.0,5.6,82,0.00,,---,0.00,VWS V14.01,2013-02-22 05:27:00,
2013-02-22 00:28:00,22.5,17.9,30.28,North,359,0.0,3.4,82,0.00,,,0.00,VWS V14.01,2013-02-22 05:28:00,
2013-02-22 00:29:00,22.5,17.9,30.28,NNW,346,5.6,8.1,82,0.00,,,0.00,VWS V14.01,2013-02-22 05:29:00,
2013-02-22 00:30:00,22.5,17.9,30.28,NE,38,3.1,5.6,82,0.00,,,0.00,VWS V14.01,2013-02-22 05:30:00,
2013-02-22 00:31:00,22.5,18.0,30.27,ENE,58,0.0,3.3,83,0.00,,,0.00,VWS V14.01,2013-02-22 05:31:00,
2013-02-22 00:32:00,22.5,18.2,30.27,NNE,15,10.3,10.3,83,0.00,,---,0.00,VWS V14.01,2013-02-22 05:32:00,
2013-02-22 00:33:00,22.5,18.1,30.27,NNE,31,5.8,7.0,83,0.00,,,0.00,VWS V14.01,2013-02-22 05:33:00,
2013-02-22 00:34:00,22.5,18.3,30.27,ENE,58,5.1,6.4,84,0.00,,,0.00,VWS V14.01,2013-02-22 05:34:00,
2013-02-22 00:35:00,22.6,18.4,30.27,North,3,0.0,11.1,84,0.00,,,0.00,VWS V14.01,2013-02-22 05:35:00,
2013-02-22 00:36:00,22.6,18.2,30.27,North,3,0.0,0.0,83,0.00,,,0.00,VWS V14.01,2013-02-22 05:36:00,
2013-02-22 00:37:00,22.6,18.2,30.27,North,4,0.0,0.0,83,0.00,,---,0.00,VWS V14.01,2013-02-22 05:37:00,
2013-02-22 00:38:00,22.6,18.1,30.27,North,4,0.0,4.5,83,0.00,,,0.00,VWS V14.01,2013-02-22 05:38:00,
2013-02-22 00:39:00,22.6,18.1,30.27,North,4,0.0,0.0,83,0.00,,,0.00,VWS V14.01,2013-02-22 05:39:00,
2013-02-22 00:40:00,22.6,18.2,30.27,NNW,339,9.9,9.9,83,0.00,,,0.00,VWS V14.01,2013-02-22 05:40:00,
2013-02-22 00:41:00,22.5,18.2,30.27,NNE,31,3.5,11.5,83,0.00,,,0.00,VWS V14.01,2013-02-22 05:41:00,
2013-02-22 00:42:00,22.5,18.3,30.27,ENE,58,0.0,7.2,84,0.00,,,0.00,VWS V14.01,2013-02-22 05:42:00,
2013-02-22 00:43:00,22.5,18.4,30.27,NNE,15,6.2,6.3,84,0.00,,---,0.00,VWS V14.01,2013-02-22 05:43:00,
2013-02-22 00:44:00,22.6,18.6,30.27,North,7,8.1,10.8,84,0.00,,,0.00,VWS V14.01,2013-02-22 05:44:00,
2013-02-22 00:45:00,22.6,18.6,30.27,NNE,24,6.1,13.8,84,0.00,,,0.00,VWS V14.01,2013-02-22 05:45:00,
2013-02-22 00:46:00,22.6,18.7,30.27,NNE,15,4.8,10.6,85,0.00,,,0.00,VWS V14.01,2013-02-22 05:46:00,
2013-02-22 00:47:00,22.7,18.9,30.27,NE,44,8.0,10.9,85,0.00,,,0.00,VWS V14.01,2013-02-22 05:47:00,
2013-02-22 00:48:00,22.7,18.8,30.27,North,1,0.0,5.2,85,0.00,,---,0.00,VWS V14.01,2013-02-22 05:48:00,
2013-02-22 00:49:00,22.7,18.8,30.27,NNE,17,4.8,10.4,85,0.00,,,0.00,VWS V14.01,2013-02-22 05:49:00,
2013-02-22 00:50:00,22.8,18.9,30.27,ENE,63,3.0,7.8,85,0.00,,,0.00,VWS V14.01,2013-02-22 05:50:00,
2013-02-22 00:51:00,22.8,18.8,30.27,North,3,4.5,4.5,84,0.00,,,0.00,VWS V14.01,2013-02-22 05:51:00,
2013-02-22 00:52:00,22.8,18.9,30.27,North,349,0.0,5.4,85,0.00,,,0.00,VWS V14.01,2013-02-22 05:52:00,
2013-02-22 00:53:00,22.8,18.9,30.28,NW,314,5.0,5.4,85,0.00,,---,0.00,VWS V14.01,2013-02-22 05:53:00,
2013-02-22 00:54:00,22.9,19.0,30.28,NNE,25,0.0,6.2,85,0.00,,,0.00,VWS V14.01,2013-02-22 05:54:00,
2013-02-22 00:55:00,22.8,18.9,30.28,NNW,338,5.6,5.6,85,0.00,,,0.00,VWS V14.01,2013-02-22 05:55:00,
2013-02-22 00:56:00,22.8,19.0,30.28,NNE,20,0.0,5.6,85,0.00,,,0.00,VWS V14.01,2013-02-22 05:56:00,
2013-02-22 00:57:00,22.9,19.6,30.28,NNE,30,5.8,10.3,87,0.00,,,0.00,VWS V14.01,2013-02-22 05:57:00,
2013-02-22 00:58:00,23.0,19.3,30.27,NNE,14,0.0,8.5,85,0.00,,---,0.00,VWS V14.01,2013-02-22 05:58:00,
2013-02-22 00:59:00,22.9,19.2,30.27,NNE,20,8.5,13.8,85,0.00,,,0.00,VWS V14.01,2013-02-22 05:59:00,
2013-02-22 01:00:00,23.0,19.2,30.27,NNE,14,0.0,8.5,85,0.00,,,0.00,VWS V14.01,2013-02-22 06:00:00,
2013-02-22 01:01:00,23.0,19.2,30.27,NE,44,3.2,7.6,85,0.00,,,0.00,VWS V14.01,2013-02-22 06:01:00,
2013-02-22 01:02:00,23.1,19.3,30.27,NNE,32,0.0,3.2,85,0.00,,,0.00,VWS V14.01,2013-02-22 06:02:00,
2013-02-22 01:03:00,23.1,19.4,30.27,North,3,5.5,11.2,86,0.00,,---,0.00,VWS V14.01,2013-02-22 06:03:00,
2013-02-22 01:04:00,23.0,19.3,30.27,North,7,11.2,14.4,86,0.00,,,0.00,VWS V14.01,2013-02-22 06:04:00,
2013-02-22 01:05:00,23.1,19.4,30.27,NNE,31,3.5,11.2,86,0.00,,,0.00,VWS V14.01,2013-02-22 06:05:00,
2013-02-22 01:06:00,23.1,19.4,30.27,NNE,32,4.6,7.8,86,0.00,,,0.00,VWS V14.01,2013-02-22 06:06:00,
2013-02-22 01:07:00,23.1,19.5,30.27,NE,34,3.5,6.1,86,0.00,,,0.00,VWS V14.01,2013-02-22 06:07:00,
2013-02-22 01:08:00,23.0,19.5,30.27,North,352,8.6,8.7,86,0.00,,---,0.00,VWS V14.01,2013-02-22 06:08:00,
2013-02-22 01:09:00,23.1,19.5,30.27,NW,318,3.5,10.6,86,0.00,,,0.00,VWS V14.01,2013-02-22 06:09:00,
2013-02-22 01:10:00,23.0,19.4,30.27,NNW,333,4.2,9.4,86,0.00,,,0.00,VWS V14.01,2013-02-22 06:10:00,
2013-02-22 01:11:00,23.2,19.7,30.28,NE,55,2.7,7.1,86,0.00,,,0.00,VWS V14.01,2013-02-22 06:11:00,
2013-02-22 01:12:00,23.2,19.6,30.27,NE,55,0.0,2.7,86,0.00,,,0.00,VWS V14.01,2013-02-22 06:12:00,
2013-02-22 01:13:00,23.2,19.7,30.28,NNE,32,4.6,5.9,86,0.00,,---,0.00,VWS V14.01,2013-02-22 06:13:00,
2013-02-22 01:14:00,23.2,19.7,30.28,NE,37,0.0,5.1,86,0.00,,,0.00,VWS V14.01,2013-02-22 06:14:00,
2013-02-22 01:15:00,23.2,19.8,30.28,NNE,24,7.4,9.8,86,0.00,,,0.00,VWS V14.01,2013-02-22 06:15:00,
2013-02-22 01:16:00,23.2,19.8,30.28,North,359,5.3,9.5,86,0.00,,,0.00,VWS V14.01,2013-02-22 06:16:00,
2013-02-22 01:17:00,23.2,19.8,30.27,NNE,30,0.0,10.1,87,0.00,,,0.00,VWS V14.01,2013-02-22 06:17:00,
2013-02-22 01:18:00,23.3,19.9,30.27,NE,44,0.0,0.0,87,0.00,,---,0.00,VWS V14.01,2013-02-22 06:18:00,
2013-02-22 01:19:00,23.3,19.9,30.27,NE,44,0.0,8.0,87,0.00,,,0.00,VWS V14.01,2013-02-22 06:19:00,
2013-02-22 01:20:00,23.3,19.9,30.27,NE,44,0.0,0.0,87,0.00,,,0.00,VWS V14.01,2013-02-22 06:20:00,
2013-02-22 01:21:00,23.3,19.9,30.27,North,350,0.0,9.8,87,0.00,,,0.00,VWS V14.01,2013-02-22 06:21:00,
2013-02-22 01:22:00,23.2,19.9,30.27,NNE,30,6.1,10.4,87,0.00,,,0.00,VWS V14.01,2013-02-22 06:22:00,
2013-02-22 01:23:00,23.2,19.9,30.28,North,4,7.5,10.3,87,0.00,,---,0.00,VWS V14.01,2013-02-22 06:23:00,
2013-02-22 01:24:00,23.3,20.0,30.28,North,359,7.1,9.2,87,0.00,,,0.00,VWS V14.01,2013-02-22 06:24:00,
2013-02-22 01:25:00,23.2,20.0,30.28,NE,46,10.9,14.2,87,0.00,,,0.00,VWS V14.01,2013-02-22 06:25:00,
2013-02-22 01:26:00,23.2,20.0,30.28,North,6,11.7,11.7,87,0.00,,,0.00,VWS V14.01,2013-02-22 06:26:00,
2013-02-22 01:27:00,23.3,20.1,30.28,NE,52,5.0,11.7,87,0.00,,,0.00,VWS V14.01,2013-02-22 06:27:00,
2013-02-22 01:28:00,23.2,20.0,30.28,North,359,6.0,8.0,87,0.00,,---,0.00,VWS V14.01,2013-02-22 06:28:00,
2013-02-22 01:29:00,23.2,20.0,30.28,North,349,3.2,9.8,87,0.00,,,0.00,VWS V14.01,2013-02-22 06:29:00,
2013-02-22 01:30:00,23.3,20.1,30.28,NNE,25,3.1,8.0,87,0.00,,,0.00,VWS V14.01,2013-02-22 06:30:00,
2013-02-22 01:31:00,23.2,20.0,30.28,NNE,14,0.0,8.5,88,0.00,,,0.00,VWS V14.01,2013-02-22 06:31:00,
2013-02-22 01:32:00,23.3,20.2,30.27,North,0,4.3,5.8,88,0.00,,,0.00,VWS V14.01,2013-02-22 06:32:00,
2013-02-22 01:33:00,23.1,20.0,30.27,ENE,62,4.2,10.4,88,0.00,,---,0.00,VWS V14.01,2013-02-22 06:33:00,
2013-02-22 01:34:00,23.2,20.1,30.27,NW,319,8.7,10.3,88,0.00,,,0.00,VWS V14.01,2013-02-22 06:34:00,
2013-02-22 01:35:00,23.2,20.0,30.27,NE,51,5.5,10.4,88,0.00,,,0.00,VWS V14.01,2013-02-22 06:35:00,
2013-02-22 01:36:00,23.2,20.1,30.27,North,4,4.2,11.2,88,0.00,,,0.00,VWS V14.01,2013-02-22 06:36:00,
2013-02-22 01:37:00,23.2,20.1,30.27,NNW,328,7.8,7.8,88,0.00,,,0.00,VWS V14.01,2013-02-22 06:37:00,
2013-02-22 01:38:00,23.0,20.0,30.27,NW,316,6.0,14.3,88,0.00,,---,0.00,VWS V14.01,2013-02-22 06:38:00,
2013-02-22 01:39:00,23.1,20.0,30.27,North,353,12.4,12.7,88,0.00,,,0.00,VWS V14.01,2013-02-22 06:39:00,
2013-02-22 01:40:00,23.0,20.1,30.27,NNW,342,8.0,14.3,88,0.00,,,0.00,VWS V14.01,2013-02-22 06:40:00,
2013-02-22 01:41:00,23.0,20.0,30.27,NNE,14,11.9,12.1,88,0.00,,,0.00,VWS V14.01,2013-02-22 06:41:00,
2013-02-22 01:42:00,23.0,20.0,30.27,NNE,24,3.5,12.1,88,0.00,,,0.00,VWS V14.01,2013-02-22 06:42:00,
2013-02-22 01:43:00,23.1,20.2,30.26,NNE,21,5.1,12.9,88,0.00,,---,0.00,VWS V14.01,2013-02-22 06:43:00,
2013-02-22 01:44:00,23.1,20.1,30.27,NNE,24,5.9,7.8,88,0.00,,,0.00,VWS V14.01,2013-02-22 06:44:00,
2013-02-22 01:45:00,23.1,20.2,30.26,NE,39,4.4,12.9,88,0.00,,,0.00,VWS V14.01,2013-02-22 06:45:00,
2013-02-22 01:46:00,23.2,20.3,30.27,NNW,339,7.5,8.1,88,0.00,,,0.00,VWS V14.01,2013-02-22 06:46:00,
2013-02-22 01:47:00,23.0,20.1,30.27,NW,318,9.9,15.2,88,0.00,,,0.00,VWS V14.01,2013-02-22 06:47:00,
2013-02-22 01:48:00,23.1,20.2,30.27,North,359,3.5,8.9,89,0.00,,---,0.00,VWS V14.01,2013-02-22 06:48:00,
2013-02-22 01:49:00,23.1,20.2,30.27,NNW,339,6.9,10.3,88,0.00,,,0.00,VWS V14.01,2013-02-22 06:49:00,
2013-02-22 01:50:00,23.1,20.2,30.27,North,359,0.0,8.9,88,0.00,,,0.00,VWS V14.01,2013-02-22 06:50:00,
2013-02-22 01:51:00,23.2,20.3,30.27,ENE,60,6.0,7.1,88,0.00,,,0.00,VWS V14.01,2013-02-22 06:51:00,
2013-02-22 01:52:00,23.2,20.3,30.27,NNE,14,5.2,6.0,88,0.00,,,0.00,VWS V14.01,2013-02-22 06:52:00,
2013-02-22 01:53:00,23.1,20.2,30.27,North,11,7.2,10.6,88,0.00,,---,0.00,VWS V14.01,2013-02-22 06:53:00,
2013-02-22 01:54:00,23.2,20.3,30.27,NNW,346,9.1,10.6,88,0.00,,,0.00,VWS V14.01,2013-02-22 06:54:00,
2013-02-22 01:55:00,23.2,20.3,30.27,NNW,339,3.5,10.6,89,0.00,,,0.00,VWS V14.01,2013-02-22 06:55:00,
2013-02-22 01:56:00,23.1,20.3,30.27,NW,326,8.9,11.8,89,0.00,,,0.00,VWS V14.01,2013-02-22 06:56:00,
2013-02-22 01:57:00,23.1,20.3,30.27,North,3,8.0,10.3,89,0.00,,,0.00,VWS V14.01,2013-02-22 06:57:00,
2013-02-22 01:58:00,23.2,20.5,30.27,North,352,8.0,9.9,89,0.00,,---,0.00,VWS V14.01,2013-02-22 06:58:00,
2013-02-22 01:59:00,23.1,20.3,30.27,West,270,4.9,9.8,89,0.00,,,0.00,VWS V14.01,2013-02-22 06:59:00,
2013-02-22 02:00:00,23.2,20.4,30.27,North,349,4.7,9.9,89,0.00,,,0.00,VWS V14.01,2013-02-22 07:00:00,
2013-02-22 02:01:00,23.2,20.4,30.27,NNW,345,0.0,4.7,89,0.00,,,0.00,VWS V14.01,2013-02-22 07:01:00,
2013-02-22 02:02:00,23.1,20.3,30.27,NE,55,7.7,13.5,89,0.00,,,0.00,VWS V14.01,2013-02-22 07:02:00,
2013-02-22 02:03:00,23.0,20.2,30.27,NE,37,6.2,14.4,89,0.00,,---,0.00,VWS V14.01,2013-02-22 07:03:00,
2013-02-22 02:04:00,23.2,20.4,30.27,ENE,77,0.0,9.9,89,0.00,,,0.00,VWS V14.01,2013-02-22 07:04:00,
2013-02-22 02:05:00,23.0,20.2,30.27,NNE,21,5.0,14.4,89,0.00,,,0.00,VWS V14.01,2013-02-22 07:05:00,
2013-02-22 02:06:00,23.1,20.4,30.27,NW,322,5.5,13.2,89,0.00,,,0.00,VWS V14.01,2013-02-22 07:06:00,
2013-02-22 02:07:00,23.0,20.2,30.27,NE,49,8.7,14.5,89,0.00,,,0.00,VWS V14.01,2013-02-22 07:07:00,
2013-02-22 02:08:00,22.9,20.2,30.27,NNW,345,7.2,12.4,89,0.00,,---,0.00,VWS V14.01,2013-02-22 07:08:00,
2013-02-22 02:09:00,23.0,20.3,30.27,NNW,333,11.0,14.0,89,0.00,,,0.00,VWS V14.01,2013-02-22 07:09:00,
2013-02-22 02:10:00,22.9,20.2,30.27,North,0,8.1,12.4,89,0.00,,,0.00,VWS V14.01,2013-02-22 07:10:00,
2013-02-22 02:11:00,23.0,20.3,30.26,North,6,13.3,18.1,89,0.00,,,0.00,VWS V14.01,2013-02-22 07:11:00,
2013-02-22 02:12:00,23.1,20.4,30.26,North,359,4.3,14.8,89,0.00,,,0.00,VWS V14.01,2013-02-22 07:12:00,
2013-02-22 02:13:00,23.0,20.3,30.27,North,359,7.0,8.1,89,0.00,,---,0.00,VWS V14.01,2013-02-22 07:13:00,
2013-02-22 02:14:00,23.0,20.3,30.26,NW,319,7.0,14.3,89,0.00,,,0.00,VWS V14.01,2013-02-22 07:14:00,
2013-02-22 02:15:00,23.0,20.3,30.27,NNE,27,6.3,8.1,89,0.00,,,0.00,VWS V14.01,2013-02-22 07:15:00,
2013-02-22 02:16:00,22.8,20.1,30.27,NNE,13,15.9,17.8,89,0.00,,,0.00,VWS V14.01,2013-02-22 07:16:00,
2013-02-22 02:17:00,22.9,20.2,30.27,NNW,336,7.8,16.5,89,0.00,,,0.00,VWS V14.01,2013-02-22 07:17:00,
2013-02-22 02:18:00,22.9,20.2,30.27,NNW,339,8.1,11.1,89,0.00,,---,0.00,VWS V14.01,2013-02-22 07:18:00,
2013-02-22 02:19:00,22.9,20.2,30.27,North,6,0.0,13.9,89,0.00,,,0.00,VWS V14.01,2013-02-22 07:19:00,
2013-02-22 02:20:00,22.9,20.2,30.27,North,359,8.8,11.1,89,0.00,,,0.00,VWS V14.01,2013-02-22 07:20:00,
2013-02-22 02:21:00,22.9,20.4,30.27,NE,42,4.7,15.0,90,0.00,,,0.00,VWS V14.01,2013-02-22 07:21:00,
2013-02-22 02:22:00,22.9,20.4,30.27,NW,322,7.0,10.8,90,0.00,,,0.00,VWS V14.01,2013-02-22 07:22:00,
2013-02-22 02:23:00,22.6,20.1,30.27,NNE,13,12.9,20.8,90,0.00,,---,0.00,VWS V14.01,2013-02-22 07:23:00,
2013-02-22 02:24:00,22.7,20.1,30.27,West,281,3.1,10.2,90,0.00,,,0.00,VWS V14.01,2013-02-22 07:24:00,
2013-02-22 02:25:00,22.6,20.1,30.27,NNE,13,11.4,20.8,90,0.00,,,0.00,VWS V14.01,2013-02-22 07:25:00,
2013-02-22 02:26:00,22.5,20.0,30.27,NW,308,9.3,13.9,90,0.00,,,0.00,VWS V14.01,2013-02-22 07:26:00,
2013-02-22 02:27:00,22.7,20.2,30.27,NNW,347,6.5,11.7,90,0.00,,,0.00,VWS V14.01,2013-02-22 07:27:00,
2013-02-22 02:28:00,22.6,20.1,30.27,North,359,8.3,11.2,90,0.00,,---,0.00,VWS V14.01,2013-02-22 07:28:00,
2013-02-22 02:29:00,22.7,20.2,30.27,North,359,4.3,13.5,90,0.00,,,0.00,VWS V14.01,2013-02-22 07:29:00,
2013-02-22 02:30:00,22.6,20.1,30.27,North,359,8.3,11.2,90,0.00,,,0.00,VWS V14.01,2013-02-22 07:30:00,
2013-02-22 02:31:00,22.5,20.0,30.26,North,3,9.1,11.4,90,0.00,,,0.00,VWS V14.01,2013-02-22 07:31:00,
2013-02-22 02:32:00,22.5,20.0,30.26,North,10,9.4,14.8,90,0.00,,,0.00,VWS V14.01,2013-02-22 07:32:00,
2013-02-22 02:33:00,22.6,20.1,30.26,North,359,5.2,5.2,90,0.00,,---,0.00,VWS V14.01,2013-02-22 07:33:00,
2013-02-22 02:34:00,22.6,20.1,30.26,WNW,284,0.0,7.5,90,0.00,,,0.00,VWS V14.01,2013-02-22 07:34:00,
2013-02-22 02:35:00,22.6,20.1,30.26,North,359,5.2,10.8,90,0.00,,,0.00,VWS V14.01,2013-02-22 07:35:00,
2013-02-22 02:36:00,22.5,20.0,30.26,NE,52,4.3,10.6,90,0.00,,,0.00,VWS V14.01,2013-02-22 07:36:00,
2013-02-22 02:37:00,22.6,20.2,30.26,WSW,255,4.2,8.3,90,0.00,,,0.00,VWS V14.01,2013-02-22 07:37:00,
2013-02-22 02:38:00,22.6,20.2,30.26,NNE,30,0.0,0.0,90,0.00,,---,0.00,VWS V14.01,2013-02-22 07:38:00,
2013-02-22 02:39:00,22.6,20.2,30.26,North,349,3.3,10.5,90,0.00,,,0.00,VWS V14.01,2013-02-22 07:39:00,
2013-02-22 02:40:00,22.6,20.2,30.26,NNE,30,0.0,6.3,90,0.00,,,0.00,VWS V14.01,2013-02-22 07:40:00,
2013-02-22 02:41:00,22.6,20.2,30.26,NNW,336,6.2,6.2,90,0.00,,,0.00,VWS V14.01,2013-02-22 07:41:00,
2013-02-22 02:42:00,22.6,20.2,30.26,NNE,21,5.2,8.2,90,0.00,,,0.00,VWS V14.01,2013-02-22 07:42:00,
2013-02-22 02:43:00,22.5,20.2,30.26,NNE,20,6.5,7.3,91,0.00,,---,0.00,VWS V14.01,2013-02-22 07:43:00,
2013-02-22 02:44:00,22.4,20.0,30.26,NE,35,7.0,10.1,90,0.00,,,0.00,VWS V14.01,2013-02-22 07:44:00,
2013-02-22 02:45:00,22.5,20.2,30.25,NNE,20,6.5,7.3,91,0.00,,,0.00,VWS V14.01,2013-02-22 07:45:00,
2013-02-22 02:46:00,22.6,20.2,30.26,NE,35,0.0,6.5,90,0.00,,,0.00,VWS V14.01,2013-02-22 07:46:00,
2013-02-22 02:47:00,22.7,20.3,30.25,NNE,22,6.6,10.4,90,0.00,,,0.00,VWS V14.01,2013-02-22 07:47:00,
2013-02-22 02:48:00,22.5,20.1,30.25,North,6,4.3,13.6,90,0.00,,---,0.00,VWS V14.01,2013-02-22 07:48:00,
2013-02-22 02:49:00,22.6,20.2,30.25,North,7,0.0,6.7,90,0.00,,,0.00,VWS V14.01,2013-02-22 07:49:00,
2013-02-22 02:50:00,22.5,20.1,30.25,North,6,4.3,13.6,90,0.00,,,0.00,VWS V14.01,2013-02-22 07:50:00,
2013-02-22 02:51:00,22.4,20.0,30.25,NNE,17,7.2,12.4,90,0.00,,,0.00,VWS V14.01,2013-02-22 07:51:00,
2013-02-22 02:52:00,22.5,20.1,30.25,NNE,13,0.0,7.2,90,0.00,,,0.00,VWS V14.01,2013-02-22 07:52:00,
2013-02-22 02:53:00,22.5,20.2,30.25,NNE,15,11.9,13.7,91,0.00,,---,0.00,VWS V14.01,2013-02-22 07:53:00,
2013-02-22 02:54:00,22.4,20.1,30.25,NNW,332,0.0,8.4,91,0.00,,,0.00,VWS V14.01,2013-02-22 07:54:00,
2013-02-22 02:55:00,22.5,20.2,30.25,NNE,15,11.9,13.7,91,0.00,,,0.00,VWS V14.01,2013-02-22 07:55:00,
2013-02-22 02:56:00,22.5,20.2,30.25,North,7,6.7,11.9,91,0.00,,,0.00,VWS V14.01,2013-02-22 07:56:00,
2013-02-22 02:57:00,22.4,20.1,30.25,NNW,332,0.0,9.9,91,0.00,,,0.00,VWS V14.01,2013-02-22 07:57:00,
2013-02-22 02:58:00,22.5,20.2,30.26,NNE,18,9.8,13.2,91,0.00,,---,0.00,VWS V14.01,2013-02-22 07:58:00,
2013-02-22 02:59:00,22.5,20.2,30.26,NNE,13,2.2,12.1,91,0.00,,,0.00,VWS V14.01,2013-02-22 07:59:00,
2013-02-22 03:00:00,22.5,20.2,30.26,NNE,18,9.8,13.2,91,0.00,,,0.00,VWS V14.01,2013-02-22 08:00:00,
2013-02-22 03:01:00,22.5,20.2,30.26,North,349,3.0,11.4,91,0.00,,,0.00,VWS V14.01,2013-02-22 08:01:00,
2013-02-22 03:02:00,22.4,20.1,30.26,NNE,15,11.1,11.1,91,0.00,,,0.00,VWS V14.01,2013-02-22 08:02:00,
2013-02-22 03:03:00,22.3,20.0,30.26,NNE,24,6.3,10.9,91,0.00,,---,0.00,VWS V14.01,2013-02-22 08:03:00,
2013-02-22 03:04:00,22.4,20.1,30.27,NNW,346,4.5,6.0,91,0.00,,,0.00,VWS V14.01,2013-02-22 08:04:00,
2013-02-22 03:05:00,22.3,20.0,30.26,NNE,24,6.3,10.9,91,0.00,,,0.00,VWS V14.01,2013-02-22 08:05:00,
2013-02-22 03:06:00,22.3,20.0,30.26,NNW,338,9.6,10.4,91,0.00,,,0.00,VWS V14.01,2013-02-22 08:06:00,
2013-02-22 03:07:00,22.2,20.0,30.26,North,356,10.6,10.9,91,0.00,,,0.00,VWS V14.01,2013-02-22 08:07:00,
2013-02-22 03:08:00,22.2,20.0,30.27,North,349,6.4,13.2,91,0.00,,---,0.00,VWS V14.01,2013-02-22 08:08:00,
2013-02-22 03:09:00,22.2,20.0,30.27,North,1,7.6,13.4,91,0.00,,,0.00,VWS V14.01,2013-02-22 08:09:00,
2013-02-22 03:10:00,22.2,20.0,30.27,North,349,6.4,13.2,91,0.00,,,0.00,VWS V14.01,2013-02-22 08:10:00,
2013-02-22 03:11:00,22.3,20.1,30.27,North,352,11.2,11.2,91,0.00,,,0.00,VWS V14.01,2013-02-22 08:11:00,
2013-02-22 03:12:00,22.3,20.1,30.27,ENE,66,5.0,13.5,91,0.00,,,0.00,VWS V14.01,2013-02-22 08:12:00,
2013-02-22 03:13:00,22.2,20.0,30.27,WNW,295,7.7,15.3,91,0.00,,---,0.00,VWS V14.01,2013-02-22 08:13:00,
2013-02-22 03:14:00,22.2,20.0,30.27,NNW,330,9.7,12.4,91,0.00,,,0.00,VWS V14.01,2013-02-22 08:14:00,
2013-02-22 03:15:00,22.2,20.0,30.27,WNW,295,7.7,15.3,91,0.00,,,0.00,VWS V14.01,2013-02-22 08:15:00,
2013-02-22 03:16:00,22.1,19.9,30.27,NNW,339,7.3,12.1,91,0.00,,,0.00,VWS V14.01,2013-02-22 08:16:00,
2013-02-22 03:17:00,22.2,20.0,30.27,NW,322,7.3,8.7,91,0.00,,,0.00,VWS V14.01,2013-02-22 08:17:00,
2013-02-22 03:18:00,22.1,20.0,30.27,North,10,7.1,11.4,91,0.00,,---,0.00,VWS V14.01,2013-02-22 08:18:00,
2013-02-22 03:19:00,22.1,20.0,30.27,North,354,8.8,10.2,91,0.00,,,0.00,VWS V14.01,2013-02-22 08:19:00,
2013-02-22 03:20:00,22.1,20.0,30.27,North,10,7.1,11.4,91,0.00,,,0.00,VWS V14.01,2013-02-22 08:20:00,
2013-02-22 03:21:00,22.1,20.0,30.27,North,350,6.6,11.4,91,0.00,,,0.00,VWS V14.01,2013-02-22 08:21:00,
2013-02-22 03:22:00,22.2,20.1,30.27,NNE,14,6.3,8.9,91,0.00,,,0.00,VWS V14.01,2013-02-22 08:22:00,
2013-02-22 03:23:00,22.2,20.1,30.27,NNE,20,0.0,7.2,91,0.00,,---,0.00,VWS V14.01,2013-02-22 08:23:00,
2013-02-22 03:24:00,22.2,20.1,30.27,NW,319,7.2,8.9,91,0.00,,,0.00,VWS V14.01,2013-02-22 08:24:00,
2013-02-22 03:25:00,22.2,20.1,30.27,NNE,20,0.0,7.2,91,0.00,,,0.00,VWS V14.01,2013-02-22 08:25:00,
2013-02-22 03:26:00,22.2,20.1,30.27,NNW,336,5.5,5.8,91,0.00,,,0.00,VWS V14.01,2013-02-22 08:26:00,
2013-02-22 03:27:00,22.2,20.1,30.28,NNW,347,0.0,5.9,92,0.00,,,0.00,VWS V14.01,2013-02-22 08:27:00,
2013-02-22 03:28:00,22.2,20.1,30.28,NE,51,0.0,8.2,92,0.00,,---,0.00,VWS V14.01,2013-02-22 08:28:00,
2013-02-22 03:29:00,22.1,20.0,30.28,NNW,328,8.2,10.6,92,0.00,,,0.00,VWS V14.01,2013-02-22 08:29:00,
2013-02-22 03:30:00,22.2,20.1,30.28,NE,51,0.0,8.2,92,0.00,,,0.00,VWS V14.01,2013-02-22 08:30:00,
2013-02-22 03:31:00,22.2,20.1,30.28,NNW,336,0.0,10.8,92,0.00,,,0.00,VWS V14.01,2013-02-22 08:31:00,
2013-02-22 03:32:00,22.2,20.1,30.28,NE,49,6.9,9.1,92,0.00,,,0.00,VWS V14.01,2013-02-22 08:32:00,
2013-02-22 03:33:00,22.3,20.2,30.28,NW,304,9.1,9.8,92,0.00,,---,0.00,VWS V14.01,2013-02-22 08:33:00,
2013-02-22 03:34:00,22.1,20.1,30.28,NNE,31,9.8,18.3,92,0.00,,,0.00,VWS V14.01,2013-02-22 08:34:00,
2013-02-22 03:35:00,22.3,20.2,30.28,NW,304,9.1,9.8,92,0.00,,,0.00,VWS V14.01,2013-02-22 08:35:00,
2013-02-22 03:36:00,22.3,20.2,30.28,NE,34,4.8,9.9,92,0.00,,,0.00,VWS V14.01,2013-02-22 08:36:00,
2013-02-22 03:37:00,22.1,20.1,30.28,WNW,290,7.2,9.3,92,0.00,,,0.00,VWS V14.01,2013-02-22 08:37:00,
2013-02-22 03:38:00,22.2,20.2,30.29,North,10,8.5,11.2,92,0.00,,---,0.00,VWS V14.01,2013-02-22 08:38:00,
2013-02-22 03:39:00,22.3,20.3,30.29,NW,304,0.0,10.6,92,0.00,,,0.00,VWS V14.01,2013-02-22 08:39:00,
2013-02-22 03:40:00,22.2,20.2,30.29,North,10,8.5,11.2,92,0.00,,,0.00,VWS V14.01,2013-02-22 08:40:00,
2013-02-22 03:41:00,22.2,20.2,30.29,NNE,24,5.5,11.1,92,0.00,,,0.00,VWS V14.01,2013-02-22 08:41:00,
2013-02-22 03:42:00,22.2,20.2,30.29,NW,319,7.5,11.7,92,0.00,,,0.00,VWS V14.01,2013-02-22 08:42:00,
2013-02-22 03:43:00,22.3,20.3,30.30,North,352,7.4,10.9,92,0.00,,---,0.00,VWS V14.01,2013-02-22 08:43:00,
2013-02-22 03:44:00,22.2,20.2,30.30,NW,314,8.9,16.8,92,0.00,,,0.00,VWS V14.01,2013-02-22 08:44:00,
2013-02-22 03:45:00,22.3,20.3,30.30,North,352,7.4,10.9,92,0.00,,,0.00,VWS V14.01,2013-02-22 08:45:00,
2013-02-22 03:46:00,22.2,20.2,30.30,NNE,15,7.5,11.4,92,0.00,,,0.00,VWS V14.01,2013-02-22 08:46:00,
2013-02-22 03:47:00,22.2,20.2,30.30,NNE,32,4.2,7.5,92,0.00,,,0.00,VWS V14.01,2013-02-22 08:47:00,
2013-02-22 03:48:00,22.3,20.3,30.30,NNE,17,11.4,13.9,92,0.00,,---,0.00,VWS V14.01,2013-02-22 08:48:00,
2013-02-22 03:49:00,22.3,20.3,30.30,North,359,5.1,12.3,92,0.00,,,0.00,VWS V14.01,2013-02-22 08:49:00,
2013-02-22 03:50:00,22.3,20.3,30.30,NNE,17,11.4,13.9,92,0.00,,,0.00,VWS V14.01,2013-02-22 08:50:00,
2013-02-22 03:51:00,22.4,20.5,30.30,NNE,25,9.8,15.5,92,0.00,,,0.00,VWS V14.01,2013-02-22 08:51:00,
2013-02-22 03:52:00,22.4,20.4,30.30,North,350,6.6,10.7,92,0.00,,,0.00,VWS V14.01,2013-02-22 08:52:00,
2013-02-22 03:53:00,22.4,20.4,30.30,NW,315,0.0,7.1,92,0.00,,---,0.00,VWS V14.01,2013-02-22 08:53:00,
2013-02-22 03:54:00,22.4,20.3,30.30,North,7,3.4,9.1,92,0.00,,,0.00,VWS V14.01,2013-02-22 08:54:00,
2013-02-22 03:55:00,22.4,20.4,30.30,NW,315,0.0,7.1,92,0.00,,,0.00,VWS V14.01,2013-02-22 08:55:00,
2013-02-22 03:56:00,22.4,20.3,30.30,North,11,5.5,8.5,92,0.00,,,0.00,VWS V14.01,2013-02-22 08:56:00,
2013-02-22 03:57:00,22.3,20.3,30.30,NW,312,12.3,13.9,92,0.00,,,0.00,VWS V14.01,2013-02-22 08:57:00,
2013-02-22 03:58:00,22.3,20.3,30.30,North,6,6.3,7.0,92,0.00,,---,0.00,VWS V14.01,2013-02-22 08:58:00,
2013-02-22 03:59:00,22.3,20.3,30.30,North,359,5.8,12.9,92,0.00,,,0.00,VWS V14.01,2013-02-22 08:59:00,
2013-02-22 04:00:00,22.3,20.3,30.30,North,6,6.3,7.0,92,0.00,,,0.00,VWS V14.01,2013-02-22 09:00:00,
2013-02-22 04:01:00,22.2,20.2,30.30,NW,325,7.8,9.9,92,0.00,,,0.00,VWS V14.01,2013-02-22 09:01:00,
2013-02-22 04:02:00,22.2,20.2,30.30,NNE,13,7.1,10.1,92,0.00,,,0.00,VWS V14.01,2013-02-22 09:02:00,
2013-02-22 04:03:00,22.2,20.3,30.30,North,0,5.0,10.0,92,0.00,,---,0.00,VWS V14.01,2013-02-22 09:03:00,
2013-02-22 04:04:00,22.2,20.3,30.30,NW,305,7.8,9.1,92,0.00,,,0.00,VWS V14.01,2013-02-22 09:04:00,
2013-02-22 04:05:00,22.2,20.3,30.30,North,0,5.0,10.0,92,0.00,,,0.00,VWS V14.01,2013-02-22 09:05:00,
2013-02-22 04:06:00,22.2,20.3,30.30,NNW,335,8.0,8.9,92,0.00,,,0.00,VWS V14.01,2013-02-22 09:06:00,
2013-02-22 04:07:00,22.2,20.3,30.30,NNE,15,6.0,10.6,92,0.00,,,0.00,VWS V14.01,2013-02-22 09:07:00,
2013-02-22 04:08:00,22.2,20.3,30.30,NNW,330,11.4,11.4,92,0.00,,---,0.00,VWS V14.01,2013-02-22 09:08:00,
2013-02-22 04:09:00,22.2,20.3,30.30,North,10,8.1,11.7,92,0.00,,,0.00,VWS V14.01,2013-02-22 09:09:00,
2013-02-22 04:10:00,22.2,20.3,30.30,NNW,330,11.4,11.4,92,0.00,,,0.00,VWS V14.01,2013-02-22 09:10:00,
2013-02-22 04:11:00,22.2,20.3,30.30,ENE,62,6.5,15.2,92,0.00,,,0.00,VWS V14.01,2013-02-22 09:11:00,
2013-02-22 04:12:00,22.2,20.3,30.30,North,354,11.2,14.0,92,0.00,,,0.00,VWS V14.01,2013-02-22 09:12:00,
2013-02-22 04:13:00,22.2,20.3,30.30,North,6,4.7,8.9,92,0.00,,---,0.00,VWS V14.01,2013-02-22 09:13:00,
2013-02-22 04:14:00,22.2,20.3,30.30,North,3,8.7,9.8,92,0.00,,,0.00,VWS V14.01,2013-02-22 09:14:00,
2013-02-22 04:15:00,22.2,20.3,30.30,North,6,4.7,8.9,92,0.00,,,0.00,VWS V14.01,2013-02-22 09:15:00,
2013-02-22 04:16:00,22.3,20.4,30.30,NE,45,0.0,15.8,92,0.00,,,0.00,VWS V14.01,2013-02-22 09:16:00,
2013-02-22 04:17:00,22.3,20.4,30.30,NNE,27,4.6,6.8,92,0.00,,,0.00,VWS V14.01,2013-02-22 09:17:00,
2013-02-22 04:18:00,22.2,20.3,30.31,NNW,330,7.8,16.2,92,0.00,,---,0.00,VWS V14.01,2013-02-22 09:18:00,
2013-02-22 04:19:00,22.3,20.4,30.30,NW,307,13.9,14.2,92,0.00,,,0.00,VWS V14.01,2013-02-22 09:19:00,
2013-02-22 04:20:00,22.2,20.3,30.31,NNW,330,7.8,16.2,92,0.00,,,0.00,VWS V14.01,2013-02-22 09:20:00,
2013-02-22 04:21:00,22.3,20.4,30.31,NE,35,9.8,15.8,92,0.00,,,0.00,VWS V14.01,2013-02-22 09:21:00,
2013-02-22 04:22:00,22.3,20.4,30.30,North,7,8.5,13.0,92,0.00,,,0.00,VWS V14.01,2013-02-22 09:22:00,
2013-02-22 04:23:00,22.3,20.4,30.31,NNE,20,7.9,12.1,92,0.00,,---,0.00,VWS V14.01,2013-02-22 09:23:00,
2013-02-22 04:24:00,22.3,20.4,30.31,NNE,13,8.5,11.6,92,0.00,,,0.00,VWS V14.01,2013-02-22 09:24:00,
2013-02-22 04:25:00,22.3,20.4,30.31,NNE,20,7.9,12.1,92,0.00,,,0.00,VWS V14.01,2013-02-22 09:25:00,
2013-02-22 04:26:00,22.4,20.5,30.31,NNW,345,4.2,9.1,92,0.00,,,0.00,VWS V14.01,2013-02-22 09:26:00,
2013-02-22 04:27:00,22.4,20.5,30.31,NW,326,0.0,9.8,92,0.00,,,0.00,VWS V14.01,2013-02-22 09:27:00,
2013-02-22 04:28:00,22.5,20.6,30.31,NNE,21,4.3,14.5,92,0.00,,---,0.00,VWS V14.01,2013-02-22 09:28:00,
2013-02-22 04:29:00,22.5,20.6,30.31,NNE,21,14.5,14.5,92,0.00,,,0.00,VWS V14.01,2013-02-22 09:29:00,
2013-02-22 04:30:00,22.5,20.6,30.31,NNE,21,4.3,14.5,92,0.00,,,0.00,VWS V14.01,2013-02-22 09:30:00,
2013-02-22 04:31:00,22.4,20.4,30.31,North,359,0.0,7.8,92,0.00,,,0.00,VWS V14.01,2013-02-22 09:31:00,
2013-02-22 04:32:00,22.5,20.5,30.31,NE,35,4.7,9.1,92,0.00,,,0.00,VWS V14.01,2013-02-22 09:32:00,
2013-02-22 04:33:00,22.4,20.5,30.31,NNW,333,6.2,9.8,92,0.00,,---,0.00,VWS V14.01,2013-02-22 09:33:00,
2013-02-22 04:34:00,22.4,20.5,30.31,NNW,330,9.1,9.1,92,0.00,,,0.00,VWS V14.01,2013-02-22 09:34:00,
2013-02-22 04:35:00,22.4,20.5,30.31,NNW,333,6.2,9.8,92,0.00,,,0.00,VWS V14.01,2013-02-22 09:35:00,
2013-02-22 04:36:00,22.4,20.5,30.31,NNW,340,7.8,9.1,92,0.00,,,0.00,VWS V14.01,2013-02-22 09:36:00,
2013-02-22 04:37:00,22.4,20.5,30.31,NW,311,0.0,9.6,92,0.00,,,0.00,VWS V14.01,2013-02-22 09:37:00,
2013-02-22 04:38:00,22.4,20.5,30.31,NNW,347,7.3,13.2,92,0.00,,---,0.00,VWS V14.01,2013-02-22 09:38:00,
2013-02-22 04:39:00,22.3,20.4,30.31,NNE,13,12.7,14.0,92,0.00,,,0.00,VWS V14.01,2013-02-22 09:39:00,
2013-02-22 04:40:00,22.4,20.5,30.31,NNW,347,7.3,13.2,92,0.00,,,0.00,VWS V14.01,2013-02-22 09:40:00,
2013-02-22 04:41:00,22.4,20.5,30.31,NNE,30,6.9,9.2,92,0.00,,,0.00,VWS V14.01,2013-02-22 09:41:00,
2013-02-22 04:42:00,22.4,20.5,30.31,NNW,346,6.8,13.7,92,0.00,,,0.00,VWS V14.01,2013-02-22 09:42:00,
2013-02-22 04:43:00,22.5,20.6,30.31,NNE,13,9.2,11.9,92,0.00,,---,0.00,VWS V14.01,2013-02-22 09:43:00,
2013-02-22 04:44:00,22.4,20.5,30.31,NNE,21,0.0,10.9,92,0.00,,,0.00,VWS V14.01,2013-02-22 09:44:00,
2013-02-22 04:45:00,22.5,20.6,30.31,NNE,13,9.2,11.9,92,0.00,,,0.00,VWS V14.01,2013-02-22 09:45:00,
2013-02-22 04:46:00,22.5,20.7,30.31,North,359,4.3,10.9,92,0.00,,,0.00,VWS V14.01,2013-02-22 09:46:00,
2013-02-22 04:47:00,22.6,20.8,30.31,ENE,77,0.0,4.5,93,0.00,,,0.00,VWS V14.01,2013-02-22 09:47:00,
2013-02-22 04:48:00,22.6,20.7,30.31,NW,323,7.8,8.5,92,0.00,,---,0.00,VWS V14.01,2013-02-22 09:48:00,
2013-02-22 04:49:00,22.7,20.8,30.32,North,0,5.8,11.4,92,0.00,,,0.00,VWS V14.01,2013-02-22 09:49:00,
2013-02-22 04:50:00,22.6,20.7,30.31,NW,323,7.8,8.5,92,0.00,,,0.00,VWS V14.01,2013-02-22 09:50:00,
2013-02-22 04:51:00,22.7,20.8,30.31,ENE,62,4.8,8.0,92,0.00,,,0.00,VWS V14.01,2013-02-22 09:51:00,
2013-02-22 04:52:00,22.6,20.7,30.31,NNE,24,0.0,5.2,92,0.00,,,0.00,VWS V14.01,2013-02-22 09:52:00,
2013-02-22 04:53:00,22.6,20.7,30.31,NE,53,0.0,4.3,92,0.00,,---,0.00,VWS V14.01,2013-02-22 09:53:00,
2013-02-22 04:54:00,22.6,20.7,30.31,NNE,20,0.0,9.5,92,0.00,,,0.00,VWS V14.01,2013-02-22 09:54:00,
2013-02-22 04:55:00,22.6,20.7,30.31,NE,53,0.0,4.3,92,0.00,,,0.00,VWS V14.01,2013-02-22 09:55:00,
2013-02-22 04:56:00,22.7,20.8,30.32,NNW,339,0.0,4.7,92,0.00,,,0.00,VWS V14.01,2013-02-22 09:56:00,
2013-02-22 04:57:00,22.7,21.0,30.32,NNE,32,0.0,7.8,93,0.00,,,0.00,VWS V14.01,2013-02-22 09:57:00,
2013-02-22 04:58:00,22.8,20.8,30.32,NE,38,0.0,0.0,92,0.00,,---,0.00,VWS V14.01,2013-02-22 09:58:00,
2013-02-22 04:59:00,22.7,20.8,30.32,NE,38,0.0,5.0,92,0.00,,,0.00,VWS V14.01,2013-02-22 09:59:00,
2013-02-22 05:00:00,22.8,20.8,30.32,NE,38,0.0,0.0,92,0.00,,,0.00,VWS V14.01,2013-02-22 10:00:00,
2013-02-22 05:01:00,22.7,20.7,30.32,NNE,13,0.0,6.0,92,0.00,,,0.00,VWS V14.01,2013-02-22 10:01:00,
2013-02-22 05:02:00,22.7,20.8,30.32,NNE,13,0.0,0.0,92,0.00,,,0.00,VWS V14.01,2013-02-22 10:02:00,
2013-02-22 05:03:00,22.7,20.7,30.32,ENE,70,3.5,10.9,92,0.00,,---,0.00,VWS V14.01,2013-02-22 10:03:00,
2013-02-22 05:04:00,22.7,20.7,30.32,NNE,13,0.0,0.0,92,0.00,,,0.00,VWS V14.01,2013-02-22 10:04:00,
2013-02-22 05:05:00,22.7,20.7,30.32,ENE,70,3.5,10.9,92,0.00,,,0.00,VWS V14.01,2013-02-22 10:05:00,
2013-02-22 05:06:00,22.7,20.7,30.31,NNW,347,5.6,7.8,92,0.00,,,0.00,VWS V14.01,2013-02-22 10:06:00,
2013-02-22 05:07:00,22.7,20.8,30.32,ENE,59,0.0,6.3,92,0.00,,,0.00,VWS V14.01,2013-02-22 10:07:00,
2013-02-22 05:08:00,22.6,20.6,30.31,NNE,14,3.2,7.0,92,0.00,,---,0.00,VWS V14.01,2013-02-22 10:08:00,
2013-02-22 05:09:00,22.6,20.6,30.32,North,353,7.0,8.8,92,0.00,,,0.00,VWS V14.01,2013-02-22 10:09:00,
2013-02-22 05:10:00,22.6,20.6,30.31,NNE,14,3.2,7.0,92,0.00,,,0.00,VWS V14.01,2013-02-22 10:10:00,
2013-02-22 05:11:00,22.6,20.6,30.31,NE,51,0.0,4.5,92,0.00,,,0.00,VWS V14.01,2013-02-22 10:11:00,
2013-02-22 05:12:00,22.7,20.8,30.31,North,1,7.3,7.3,92,0.00,,,0.00,VWS V14.01,2013-02-22 10:12:00,
2013-02-22 05:13:00,22.6,20.6,30.31,NNE,22,5.1,8.3,92,0.00,,---,0.00,VWS V14.01,2013-02-22 10:13:00,
2013-02-22 05:14:00,22.6,20.6,30.31,NW,322,6.1,11.2,92,0.00,,,0.00,VWS V14.01,2013-02-22 10:14:00,
2013-02-22 05:15:00,22.6,20.6,30.31,NNE,22,5.1,8.3,92,0.00,,,0.00,VWS V14.01,2013-02-22 10:15:00,
2013-02-22 05:16:00,22.6,20.6,30.31,NNE,15,4.5,6.3,92,0.00,,,0.00,VWS V14.01,2013-02-22 10:16:00,
2013-02-22 05:17:00,22.6,20.6,30.31,North,6,0.0,4.6,92,0.00,,,0.00,VWS V14.01,2013-02-22 10:17:00,
2013-02-22 05:18:00,22.7,20.7,30.31,NE,35,3.3,7.8,92,0.00,,---,0.00,VWS V14.01,2013-02-22 10:18:00,
2013-02-22 05:19:00,22.6,20.7,30.31,North,359,3.4,9.6,92,0.00,,,0.00,VWS V14.01,2013-02-22 10:19:00,
2013-02-22 05:20:00,22.7,20.7,30.31,NE,35,3.3,7.8,92,0.00,,,0.00,VWS V14.01,2013-02-22 10:20:00,
2013-02-22 05:21:00,22.6,20.6,30.31,NNE,15,5.9,11.4,92,0.00,,,0.00,VWS V14.01,2013-02-22 10:21:00,
2013-02-22 05:22:00,22.7,20.7,30.31,NNE,31,0.0,5.9,92,0.00,,,0.00,VWS V14.01,2013-02-22 10:22:00,
2013-02-22 05:23:00,22.7,20.6,30.31,NNW,329,5.8,10.4,92,0.00,,---,0.00,VWS V14.01,2013-02-22 10:23:00,
2013-02-22 05:24:00,22.8,20.8,30.31,NNE,30,3.1,5.8,92,0.00,,,0.00,VWS V14.01,2013-02-22 10:24:00,
2013-02-22 05:25:00,22.7,20.6,30.31,NNW,329,5.8,10.4,92,0.00,,,0.00,VWS V14.01,2013-02-22 10:25:00,
2013-02-22 05:26:00,22.6,20.5,30.31,North,6,5.4,8.8,92,0.00,,,0.00,VWS V14.01,2013-02-22 10:26:00,
2013-02-22 05:27:00,22.7,20.6,30.31,North,359,0.0,7.0,92,0.00,,,0.00,VWS V14.01,2013-02-22 10:27:00,
2013-02-22 05:28:00,22.5,20.4,30.31,North,10,4.5,10.7,92,0.00,,---,0.00,VWS V14.01,2013-02-22 10:28:00,
2013-02-22 05:29:00,22.6,20.5,30.31,North,10,9.6,9.8,92,0.00,,,0.00,VWS V14.01,2013-02-22 10:29:00,
2013-02-22 05:30:00,22.5,20.4,30.31,North,10,4.5,10.7,92,0.00,,,0.00,VWS V14.01,2013-02-22 10:30:00,
2013-02-22 05:31:00,22.4,20.3,30.31,WNW,283,3.5,11.9,92,0.00,,,0.00,VWS V14.01,2013-02-22 10:31:00,
2013-02-22 05:32:00,22.5,20.4,30.31,North,359,4.9,8.4,92,0.00,,,0.00,VWS V14.01,2013-02-22 10:32:00,
2013-02-22 05:33:00,22.4,20.4,30.31,North,10,5.6,14.0,92,0.00,,---,0.00,VWS V14.01,2013-02-22 10:33:00,
2013-02-22 05:34:00,22.5,20.5,30.31,North,7,7.0,7.0,92,0.00,,,0.00,VWS V14.01,2013-02-22 10:34:00,
2013-02-22 05:35:00,22.4,20.4,30.31,North,10,5.6,14.0,92,0.00,,,0.00,VWS V14.01,2013-02-22 10:35:00,
2013-02-22 05:36:00,22.3,20.3,30.31,North,3,6.9,8.7,92,0.00,,,0.00,VWS V14.01,2013-02-22 10:36:00,
2013-02-22 05:37:00,22.4,20.4,30.31,NNE,22,0.0,6.9,92,0.00,,,0.00,VWS V14.01,2013-02-22 10:37:00,
2013-02-22 05:38:00,22.5,20.5,30.31,NNE,22,0.0,0.0,92,0.00,,---,0.00,VWS V14.01,2013-02-22 10:38:00,
2013-02-22 05:39:00,22.5,20.5,30.32,NNE,22,0.0,0.0,92,0.00,,,0.00,VWS V14.01,2013-02-22 10:39:00,
2013-02-22 05:40:00,22.5,20.5,30.31,NNE,22,0.0,0.0,92,0.00,,,0.00,VWS V14.01,2013-02-22 10:40:00,
2013-02-22 05:41:00,22.5,20.5,30.32,NNE,22,0.0,0.0,92,0.00,,,0.00,VWS V14.01,2013-02-22 10:41:00,
2013-02-22 05:42:00,22.5,20.5,30.31,NNE,22,0.0,0.0,92,0.00,,,0.00,VWS V14.01,2013-02-22 10:42:00,
2013-02-22 05:43:00,22.4,20.4,30.32,NNW,335,5.4,7.8,92,0.00,,---,0.00,VWS V14.01,2013-02-22 10:43:00,
2013-02-22 05:44:00,22.5,20.5,30.32,North,359,3.2,6.5,92,0.00,,,0.00,VWS V14.01,2013-02-22 10:44:00,
2013-02-22 05:45:00,22.4,20.4,30.32,NNW,335,5.4,7.8,92,0.00,,,0.00,VWS V14.01,2013-02-22 10:45:00,
2013-02-22 05:46:00,22.4,20.4,30.32,NNW,339,6.4,7.3,92,0.00,,,0.00,VWS V14.01,2013-02-22 10:46:00,
2013-02-22 05:47:00,22.3,20.3,30.32,North,357,7.1,8.5,92,0.00,,,0.00,VWS V14.01,2013-02-22 10:47:00,
2013-02-22 05:48:00,22.3,20.4,30.32,NNE,14,9.6,9.6,92,0.00,,---,0.00,VWS V14.01,2013-02-22 10:48:00,
2013-02-22 05:49:00,22.3,20.3,30.32,North,3,0.0,6.2,92,0.00,,,0.00,VWS V14.01,2013-02-22 10:49:00,
2013-02-22 05:50:00,22.3,20.4,30.32,NNE,13,8.9,9.3,92,0.00,,,0.00,VWS V14.01,2013-02-22 10:50:00,
2013-02-22 05:51:00,22.3,20.4,30.32,North,359,4.9,11.2,92,0.00,,,0.00,VWS V14.01,2013-02-22 10:51:00,
2013-02-22 05:52:00,22.3,20.4,30.32,NE,37,3.4,7.0,92,0.00,,,0.00,VWS V14.01,2013-02-22 10:52:00,
2013-02-22 05:53:00,22.2,20.3,30.32,NNW,339,5.9,8.9,92,0.00,,---,0.00,VWS V14.01,2013-02-22 10:53:00,
2013-02-22 05:54:00,22.2,20.3,30.32,North,352,8.9,9.0,92,0.00,,,0.00,VWS V14.01,2013-02-22 10:54:00,
2013-02-22 05:55:00,22.2,20.3,30.32,NNW,339,5.9,8.9,92,0.00,,,0.00,VWS V14.01,2013-02-22 10:55:00,
2013-02-22 05:56:00,22.2,20.3,30.32,NW,308,0.0,6.0,92,0.00,,,0.00,VWS V14.01,2013-02-22 10:56:00,
2013-02-22 05:57:00,22.3,20.4,30.32,NW,308,0.0,0.0,92,0.00,,,0.00,VWS V14.01,2013-02-22 10:57:00,
2013-02-22 05:58:00,22.1,20.3,30.31,North,1,9.1,9.1,92,0.00,,---,0.00,VWS V14.01,2013-02-22 10:58:00,
2013-02-22 05:59:00,22.1,20.3,30.32,NNE,18,7.8,10.1,92,0.00,,,0.00,VWS V14.01,2013-02-22 10:59:00,
2013-02-22 06:00:00,22.1,20.3,30.31,North,1,9.1,9.1,92,0.00,,,0.00,VWS V14.01,2013-02-22 11:00:00,
2013-02-22 06:01:00,22.1,20.3,30.31,NNW,347,8.0,10.1,93,0.00,,,0.00,VWS V14.01,2013-02-22 11:01:00,
2013-02-22 06:02:00,22.1,20.3,30.31,NE,42,3.5,10.6,93,0.00,,,0.00,VWS V14.01,2013-02-22 11:02:00,
2013-02-22 06:03:00,22.1,20.3,30.31,North,10,6.6,6.9,93,0.00,,---,0.00,VWS V14.01,2013-02-22 11:03:00,
2013-02-22 06:04:00,22.1,20.3,30.31,NNE,18,4.2,9.5,93,0.00,,,0.00,VWS V14.01,2013-02-22 11:04:00,
2013-02-22 06:05:00,22.1,20.3,30.31,North,10,6.6,6.9,93,0.00,,,0.00,VWS V14.01,2013-02-22 11:05:00,
2013-02-22 06:06:00,22.0,20.2,30.31,NE,45,4.9,10.3,93,0.00,,,0.00,VWS V14.01,2013-02-22 11:06:00,
2013-02-22 06:07:00,22.2,20.4,30.32,North,1,0.0,5.8,93,0.00,,,0.00,VWS V14.01,2013-02-22 11:07:00,
2013-02-22 06:08:00,22.2,20.4,30.32,North,359,4.5,7.6,92,0.00,,---,0.00,VWS V14.01,2013-02-22 11:08:00,
2013-02-22 06:09:00,22.2,20.4,30.32,NNE,14,7.0,7.0,93,0.00,,,0.00,VWS V14.01,2013-02-22 11:09:00,
2013-02-22 06:10:00,22.2,20.4,30.32,North,359,4.5,7.6,92,0.00,,,0.00,VWS V14.01,2013-02-22 11:10:00,
2013-02-22 06:11:00,22.2,20.4,30.32,North,4,6.3,7.6,92,0.00,,,0.00,VWS V14.01,2013-02-22 11:11:00,
2013-02-22 06:12:00,22.3,20.5,30.32,NNE,28,3.0,6.8,92,0.00,,,0.00,VWS V14.01,2013-02-22 11:12:00,
2013-02-22 06:13:00,22.4,20.6,30.32,NNE,28,0.0,0.0,92,0.00,,---,0.00,VWS V14.01,2013-02-22 11:13:00,
2013-02-22 06:14:00,22.4,20.6,30.32,NNE,28,0.0,0.0,92,0.00,,,0.00,VWS V14.01,2013-02-22 11:14:00,
2013-02-22 06:15:00,22.4,20.6,30.32,NNE,28,0.0,0.0,92,0.00,,,0.00,VWS V14.01,2013-02-22 11:15:00,
2013-02-22 06:16:00,22.2,20.3,30.32,NW,308,11.2,11.2,92,0.00,,,0.00,VWS V14.01,2013-02-22 11:16:00,
2013-02-22 06:17:00,22.2,20.3,30.32,NNE,15,5.2,11.2,92,0.00,,,0.00,VWS V14.01,2013-02-22 11:17:00,
2013-02-22 06:18:00,22.3,20.4,30.33,North,359,0.0,4.2,92,0.00,,---,0.00,VWS V14.01,2013-02-22 11:18:00,
2013-02-22 06:19:00,22.4,20.5,30.33,North,359,4.2,5.3,92,0.00,,,0.00,VWS V14.01,2013-02-22 11:19:00,
2013-02-22 06:20:00,22.3,20.4,30.33,North,359,0.0,4.2,92,0.00,,,0.00,VWS V14.01,2013-02-22 11:20:00,
2013-02-22 06:21:00,22.3,20.5,30.33,North,359,0.0,3.4,92,0.00,,,0.00,VWS V14.01,2013-02-22 11:21:00,
2013-02-22 06:22:00,22.4,20.5,30.33,ENE,76,6.7,8.4,92,0.00,,,0.00,VWS V14.01,2013-02-22 11:22:00,
2013-02-22 06:23:00,22.4,20.5,30.33,NNE,30,0.0,0.0,92,0.00,,---,0.00,VWS V14.01,2013-02-22 11:23:00,
2013-02-22 06:24:00,22.5,20.6,30.33,NNE,30,0.0,0.0,92,0.00,,,0.00,VWS V14.01,2013-02-22 11:24:00,
2013-02-22 06:25:00,22.4,20.5,30.33,NNE,30,0.0,0.0,92,0.00,,,0.00,VWS V14.01,2013-02-22 11:25:00,
2013-02-22 06:26:00,22.5,20.6,30.33,NNE,30,0.0,0.0,92,0.00,,,0.00,VWS V14.01,2013-02-22 11:26:00,
2013-02-22 06:27:00,22.5,20.6,30.33,NNE,30,0.0,0.0,92,0.00,,,0.00,VWS V14.01,2013-02-22 11:27:00,
2013-02-22 06:28:00,22.5,20.6,30.33,NNE,30,0.0,3.1,92,0.00,,---,0.00,VWS V14.01,2013-02-22 11:28:00,
2013-02-22 06:29:00,22.5,20.6,30.33,NNE,30,0.0,0.0,92,0.00,,,0.00,VWS V14.01,2013-02-22 11:29:00,
2013-02-22 06:30:00,22.5,20.6,30.33,NNE,30,0.0,3.1,92,0.00,,,0.00,VWS V14.01,2013-02-22 11:30:00,
2013-02-22 06:31:00,22.5,20.6,30.33,NNE,30,0.0,0.0,92,0.00,,,0.00,VWS V14.01,2013-02-22 11:31:00,
2013-02-22 06:32:00,22.6,20.8,30.33,North,356,7.3,8.8,93,0.00,,,0.00,VWS V14.01,2013-02-22 11:32:00,
2013-02-22 06:33:00,22.7,20.6,30.34,North,359,0.0,4.2,92,0.00,,---,0.00,VWS V14.01,2013-02-22 11:33:00,
2013-02-22 06:34:00,22.7,20.7,30.33,NNW,335,0.0,0.0,92,0.00,,,0.00,VWS V14.01,2013-02-22 11:34:00,
2013-02-22 06:35:00,22.7,20.6,30.34,North,359,0.0,4.2,92,0.00,,,0.00,VWS V14.01,2013-02-22 11:35:00,
2013-02-22 06:36:00,22.7,20.7,30.34,North,359,0.0,0.0,92,0.00,,,0.00,VWS V14.01,2013-02-22 11:36:00,
2013-02-22 06:37:00,22.7,20.7,30.34,North,359,0.0,0.0,92,0.00,,,0.00,VWS V14.01,2013-02-22 11:37:00,
2013-02-22 06:38:00,22.7,20.6,30.34,WNW,285,4.7,5.7,92,0.00,,---,0.00,VWS V14.01,2013-02-22 11:38:00,
2013-02-22 06:39:00,22.7,20.6,30.34,NW,323,0.0,0.0,92,0.00,,,0.00,VWS V14.01,2013-02-22 11:39:00,
2013-02-22 06:40:00,22.7,20.6,30.34,WNW,285,4.7,5.7,92,0.00,,,0.00,VWS V14.01,2013-02-22 11:40:00,
2013-02-22 06:41:00,22.7,20.6,30.34,North,8,0.0,8.0,92,0.00,,,0.00,VWS V14.01,2013-02-22 11:41:00,
2013-02-22 06:42:00,22.7,20.6,30.35,North,4,6.4,6.4,92,0.00,,,0.00,VWS V14.01,2013-02-22 11:42:00,
2013-02-22 06:43:00,22.7,20.6,30.36,North,350,0.0,0.0,92,0.00,,---,0.00,VWS V14.01,2013-02-22 11:43:00,
2013-02-22 06:44:00,22.7,20.6,30.35,North,350,0.0,0.0,92,0.00,,,0.00,VWS V14.01,2013-02-22 11:44:00,
2013-02-22 06:45:00,22.7,20.6,30.36,North,350,0.0,0.0,92,0.00,,,0.00,VWS V14.01,2013-02-22 11:45:00,
2013-02-22 06:46:00,22.7,20.6,30.36,ENE,70,4.2,6.1,92,0.00,,,0.00,VWS V14.01,2013-02-22 11:46:00,
2013-02-22 06:47:00,22.7,20.6,30.36,ENE,60,0.0,4.2,92,0.00,,,0.00,VWS V14.01,2013-02-22 11:47:00,
2013-02-22 06:48:00,22.8,20.7,30.36,ENE,60,0.0,0.0,92,0.00,,---,0.00,VWS V14.01,2013-02-22 11:48:00,
2013-02-22 06:49:00,22.8,20.7,30.35,ENE,60,0.0,0.0,92,0.00,,,0.00,VWS V14.01,2013-02-22 11:49:00,
2013-02-22 06:50:00,22.8,20.7,30.36,ENE,60,0.0,0.0,92,0.00,,,0.00,VWS V14.01,2013-02-22 11:50:00,
2013-02-22 06:51:00,22.9,20.8,30.36,ENE,60,0.0,0.0,92,0.00,,,0.00,VWS V14.01,2013-02-22 11:51:00,
2013-02-22 06:52:00,22.9,20.8,30.36,ENE,60,0.0,0.0,92,0.00,,,0.00,VWS V14.01,2013-02-22 11:52:00,
2013-02-22 06:53:00,23.0,20.7,30.36,ENE,60,0.0,0.0,91,0.00,,---,0.00,VWS V14.01,2013-02-22 11:53:00,
2013-02-22 06:54:00,23.0,20.8,30.36,ENE,60,0.0,0.0,91,0.00,,,0.00,VWS V14.01,2013-02-22 11:54:00,
2013-02-22 06:55:00,23.0,20.7,30.36,ENE,60,0.0,0.0,91,0.00,,,0.00,VWS V14.01,2013-02-22 11:55:00,
2013-02-22 06:56:00,22.9,20.6,30.36,ENE,60,0.0,0.0,91,0.00,,,0.00,VWS V14.01,2013-02-22 11:56:00,
2013-02-22 06:57:00,23.0,20.7,30.36,ENE,60,0.0,0.0,91,0.00,,,0.00,VWS V14.01,2013-02-22 11:57:00,
2013-02-22 06:58:00,22.9,20.7,30.36,ENE,60,0.0,0.0,91,0.00,,---,0.00,VWS V14.01,2013-02-22 11:58:00,
2013-02-22 06:59:00,22.9,20.7,30.36,ENE,60,0.0,0.0,91,0.00,,,0.00,VWS V14.01,2013-02-22 11:59:00,
2013-02-22 07:00:00,22.9,20.7,30.36,ENE,60,0.0,0.0,91,0.00,,,0.00,VWS V14.01,2013-02-22 12:00:00,
2013-02-22 07:01:00,22.9,20.7,30.36,WNW,298,0.0,4.3,91,0.00,,,0.00,VWS V14.01,2013-02-22 12:01:00,
2013-02-22 07:02:00,22.9,20.7,30.36,WNW,298,0.0,0.0,91,0.00,,,0.00,VWS V14.01,2013-02-22 12:02:00,
2013-02-22 07:03:00,22.9,20.7,30.36,WNW,298,0.0,0.0,91,0.00,,---,0.00,VWS V14.01,2013-02-22 12:03:00,
2013-02-22 07:04:00,22.9,20.7,30.36,WNW,298,0.0,0.0,91,0.00,,,0.00,VWS V14.01,2013-02-22 12:04:00,
2013-02-22 07:05:00,22.9,20.7,30.36,WNW,298,0.0,0.0,91,0.00,,,0.00,VWS V14.01,2013-02-22 12:05:00,
2013-02-22 07:06:00,22.8,20.6,30.36,WNW,298,0.0,0.0,91,0.00,,,0.00,VWS V14.01,2013-02-22 12:06:00,
2013-02-22 07:07:00,22.9,20.7,30.36,WNW,298,0.0,0.0,91,0.00,,,0.00,VWS V14.01,2013-02-22 12:07:00,
2013-02-22 07:08:00,22.8,20.6,30.37,NNW,346,0.0,0.0,91,0.00,,---,0.00,VWS V14.01,2013-02-22 12:08:00,
2013-02-22 07:09:00,22.8,20.6,30.37,NNW,346,0.0,6.2,91,0.00,,,0.00,VWS V14.01,2013-02-22 12:09:00,
2013-02-22 07:10:00,22.8,20.6,30.37,NNW,346,0.0,0.0,91,0.00,,,0.00,VWS V14.01,2013-02-22 12:10:00,
2013-02-22 07:11:00,22.8,20.6,30.37,NNW,346,0.0,0.0,91,0.00,,,0.00,VWS V14.01,2013-02-22 12:11:00,
2013-02-22 07:12:00,22.8,20.7,30.36,NNW,346,0.0,0.0,91,0.00,,,0.00,VWS V14.01,2013-02-22 12:12:00,
2013-02-22 07:13:00,22.8,20.6,30.37,NNW,340,5.7,5.7,91,0.00,,---,0.00,VWS V14.01,2013-02-22 12:13:00,
2013-02-22 07:14:00,22.8,20.6,30.37,WNW,302,0.0,0.0,91,0.00,,,0.00,VWS V14.01,2013-02-22 12:14:00,
2013-02-22 07:15:00,22.8,20.6,30.37,NNW,340,5.7,5.7,91,0.00,,,0.00,VWS V14.01,2013-02-22 12:15:00,
2013-02-22 07:16:00,22.8,20.6,30.37,NNW,340,2.9,6.4,91,0.00,,,0.00,VWS V14.01,2013-02-22 12:16:00,
2013-02-22 07:17:00,22.8,20.6,30.37,NNW,340,0.0,2.9,91,0.00,,,0.00,VWS V14.01,2013-02-22 12:17:00,
2013-02-22 07:18:00,22.8,20.6,30.37,NNE,13,0.0,6.3,91,0.00,,---,0.00,VWS V14.01,2013-02-22 12:18:00,
2013-02-22 07:19:00,22.8,20.6,30.37,North,352,0.0,6.3,91,0.00,,,0.00,VWS V14.01,2013-02-22 12:19:00,
2013-02-22 07:20:00,22.8,20.6,30.37,NNE,13,0.0,6.3,91,0.00,,,0.00,VWS V14.01,2013-02-22 12:20:00,
2013-02-22 07:21:00,22.8,20.6,30.37,NNE,13,6.7,6.7,91,0.00,,,0.00,VWS V14.01,2013-02-22 12:21:00,
2013-02-22 07:22:00,22.8,20.6,30.37,NW,323,2.9,6.7,91,0.00,,,0.00,VWS V14.01,2013-02-22 12:22:00,
2013-02-22 07:23:00,22.9,20.8,30.37,North,359,0.0,2.3,91,0.00,,---,0.00,VWS V14.01,2013-02-22 12:23:00,
2013-02-22 07:24:00,22.9,20.8,30.37,NNW,330,0.0,0.0,91,0.00,,,0.00,VWS V14.01,2013-02-22 12:24:00,
2013-02-22 07:25:00,22.9,20.8,30.37,North,359,0.0,2.3,91,0.00,,,0.00,VWS V14.01,2013-02-22 12:25:00,
2013-02-22 07:26:00,22.9,20.7,30.38,NNW,345,3.5,6.0,91,0.00,,,0.00,VWS V14.01,2013-02-22 12:26:00,
2013-02-22 07:27:00,22.9,20.7,30.38,NNW,347,3.4,4.6,91,0.00,,,0.00,VWS V14.01,2013-02-22 12:27:00,
2013-02-22 07:28:00,22.9,20.7,30.38,North,357,5.3,5.7,91,0.00,,---,0.00,VWS V14.01,2013-02-22 12:28:00,
2013-02-22 07:29:00,22.9,20.7,30.38,North,353,3.4,6.1,91,0.00,,,0.00,VWS V14.01,2013-02-22 12:29:00,
2013-02-22 07:30:00,22.9,20.7,30.38,North,357,5.3,5.7,91,0.00,,,0.00,VWS V14.01,2013-02-22 12:30:00,
2013-02-22 07:31:00,23.0,20.8,30.38,NW,316,2.9,5.9,91,0.00,,,0.00,VWS V14.01,2013-02-22 12:31:00,
2013-02-22 07:32:00,23.0,20.8,30.38,North,359,0.0,4.3,91,0.00,,,0.00,VWS V14.01,2013-02-22 12:32:00,
2013-02-22 07:33:00,23.1,20.9,30.38,North,359,0.0,3.0,91,0.00,,---,0.00,VWS V14.01,2013-02-22 12:33:00,
2013-02-22 07:34:00,23.0,20.8,30.38,North,3,3.0,5.8,91,0.00,,,0.00,VWS V14.01,2013-02-22 12:34:00,
2013-02-22 07:35:00,23.1,20.9,30.38,North,359,0.0,3.0,91,0.00,,,0.00,VWS V14.01,2013-02-22 12:35:00,
2013-02-22 07:36:00,23.1,20.9,30.38,North,359,0.0,4.3,91,0.00,,,0.00,VWS V14.01,2013-02-22 12:36:00,
2013-02-22 07:37:00,23.1,20.9,30.38,North,359,0.0,0.0,91,0.00,,,0.00,VWS V14.01,2013-02-22 12:37:00,
2013-02-22 07:38:00,23.2,20.9,30.38,NNW,345,0.0,5.8,91,0.00,,---,0.00,VWS V14.01,2013-02-22 12:38:00,
2013-02-22 07:39:00,23.2,21.0,30.38,North,3,5.2,8.2,91,0.00,,,0.00,VWS V14.01,2013-02-22 12:39:00,
2013-02-22 07:40:00,23.2,20.9,30.38,NNW,345,0.0,5.8,91,0.00,,,0.00,VWS V14.01,2013-02-22 12:40:00,
2013-02-22 07:41:00,23.3,21.0,30.38,NW,316,3.2,6.8,91,0.00,,,0.00,VWS V14.01,2013-02-22 12:41:00,
2013-02-22 07:42:00,23.3,21.0,30.38,NNW,332,0.0,5.8,91,0.00,,,0.00,VWS V14.01,2013-02-22 12:42:00,
2013-02-22 07:43:00,23.5,21.2,30.38,North,352,0.0,0.0,91,0.00,,---,0.00,VWS V14.01,2013-02-22 12:43:00,
2013-02-22 07:44:00,23.4,21.1,30.38,North,352,0.0,5.2,91,0.00,,,0.00,VWS V14.01,2013-02-22 12:44:00,
2013-02-22 07:45:00,23.5,21.2,30.38,North,352,0.0,0.0,91,0.00,,,0.00,VWS V14.01,2013-02-22 12:45:00,
2013-02-22 07:46:00,23.6,21.3,30.38,North,352,0.0,0.0,91,0.00,,,0.00,VWS V14.01,2013-02-22 12:46:00,
2013-02-22 07:47:00,23.6,21.3,30.39,North,352,0.0,0.0,91,0.00,,,0.00,VWS V14.01,2013-02-22 12:47:00,
2013-02-22 07:48:00,23.7,21.2,30.39,North,352,0.0,0.0,90,0.00,,---,0.00,VWS V14.01,2013-02-22 12:48:00,
2013-02-22 07:49:00,23.7,21.3,30.39,North,352,0.0,0.0,90,0.00,,,0.00,VWS V14.01,2013-02-22 12:49:00,
2013-02-22 07:50:00,23.7,21.2,30.39,North,352,0.0,0.0,90,0.00,,,0.00,VWS V14.01,2013-02-22 12:50:00,
2013-02-22 07:51:00,23.7,21.2,30.39,North,352,0.0,0.0,90,0.00,,,0.00,VWS V14.01,2013-02-22 12:51:00,
2013-02-22 07:52:00,23.8,21.3,30.39,North,352,0.0,0.0,90,0.00,,,0.00,VWS V14.01,2013-02-22 12:52:00,
2013-02-22 07:53:00,24.0,21.5,30.39,North,352,0.0,0.0,90,0.00,,---,0.00,VWS V14.01,2013-02-22 12:53:00,
2013-02-22 07:54:00,23.9,21.5,30.39,North,352,0.0,0.0,90,0.00,,,0.00,VWS V14.01,2013-02-22 12:54:00,
2013-02-22 07:55:00,24.0,21.5,30.39,North,352,0.0,0.0,90,0.00,,,0.00,VWS V14.01,2013-02-22 12:55:00,
2013-02-22 07:56:00,24.0,21.5,30.39,North,352,0.0,0.0,90,0.00,,,0.00,VWS V14.01,2013-02-22 12:56:00,
2013-02-22 07:57:00,24.1,21.6,30.39,North,352,0.0,0.0,90,0.00,,,0.00,VWS V14.01,2013-02-22 12:57:00,
2013-02-22 07:58:00,24.3,21.6,30.39,North,352,0.0,0.0,89,0.00,,---,0.00,VWS V14.01,2013-02-22 12:58:00,
2013-02-22 07:59:00,24.2,21.5,30.39,North,352,0.0,0.0,89,0.00,,,0.00,VWS V14.01,2013-02-22 12:59:00,
2013-02-22 08:00:00,24.3,21.6,30.39,North,352,0.0,0.0,89,0.00,,,0.00,VWS V14.01,2013-02-22 13:00:00,
2013-02-22 08:01:00,24.3,21.5,30.39,North,352,0.0,0.0,89,0.00,,,0.00,VWS V14.01,2013-02-22 13:01:00,
2013-02-22 08:02:00,24.3,21.5,30.39,North,352,0.0,0.0,89,0.00,,,0.00,VWS V14.01,2013-02-22 13:02:00,
2013-02-22 08:03:00,24.4,21.5,30.39,North,352,0.0,0.0,89,0.00,,---,0.00,VWS V14.01,2013-02-22 13:03:00,
2013-02-22 08:04:00,24.4,21.6,30.39,North,352,0.0,0.0,89,0.00,,,0.00,VWS V14.01,2013-02-22 13:04:00,
2013-02-22 08:05:00,24.4,21.5,30.39,North,352,0.0,0.0,89,0.00,,,0.00,VWS V14.01,2013-02-22 13:05:00,
2013-02-22 08:06:00,24.4,21.4,30.39,North,352,0.0,0.0,88,0.00,,,0.00,VWS V14.01,2013-02-22 13:06:00,
2013-02-22 08:07:00,24.4,21.4,30.39,North,352,0.0,0.0,88,0.00,,,0.00,VWS V14.01,2013-02-22 13:07:00,
2013-02-22 08:08:00,24.4,21.3,30.39,North,352,0.0,0.0,88,0.00,,---,0.00,VWS V14.01,2013-02-22 13:08:00,
2013-02-22 08:09:00,24.4,21.3,30.39,North,352,0.0,0.0,88,0.00,,,0.00,VWS V14.01,2013-02-22 13:09:00,
2013-02-22 08:10:00,24.4,21.3,30.39,North,352,0.0,0.0,88,0.00,,,0.00,VWS V14.01,2013-02-22 13:10:00,
2013-02-22 08:11:00,24.5,21.5,30.39,North,352,0.0,0.0,88,0.00,,,0.00,VWS V14.01,2013-02-22 13:11:00,
2013-02-22 08:12:00,24.5,21.4,30.39,North,352,0.0,0.0,88,0.00,,,0.00,VWS V14.01,2013-02-22 13:12:00,
2013-02-22 08:13:00,24.4,21.3,30.38,NNE,20,2.9,9.6,88,0.00,,---,0.00,VWS V14.01,2013-02-22 13:13:00,
2013-02-22 08:14:00,24.4,21.3,30.38,North,352,7.7,7.7,88,0.00,,,0.00,VWS V14.01,2013-02-22 13:14:00,
2013-02-22 08:15:00,24.4,21.3,30.38,NNE,20,2.9,9.6,88,0.00,,,0.00,VWS V14.01,2013-02-22 13:15:00,
2013-02-22 08:16:00,24.5,21.4,30.38,North,8,0.0,7.0,88,0.00,,,0.00,VWS V14.01,2013-02-22 13:16:00,
2013-02-22 08:17:00,24.5,21.5,30.38,North,8,0.0,0.0,88,0.00,,,0.00,VWS V14.01,2013-02-22 13:17:00,
2013-02-22 08:18:00,24.5,21.4,30.38,WNW,300,0.0,3.3,88,0.00,,---,0.00,VWS V14.01,2013-02-22 13:18:00,
2013-02-22 08:19:00,24.5,21.5,30.38,WNW,300,3.3,5.5,88,0.00,,,0.00,VWS V14.01,2013-02-22 13:19:00,
2013-02-22 08:20:00,24.5,21.4,30.38,WNW,300,0.0,3.3,88,0.00,,,0.00,VWS V14.01,2013-02-22 13:20:00,
2013-02-22 08:21:00,24.5,21.4,30.38,North,1,2.5,5.5,88,0.00,,,0.00,VWS V14.01,2013-02-22 13:21:00,
2013-02-22 08:22:00,24.6,21.6,30.38,North,353,5.3,5.8,88,0.00,,,0.00,VWS V14.01,2013-02-22 13:22:00,
2013-02-22 08:23:00,24.8,21.8,30.38,NNE,27,3.4,4.6,88,0.00,,---,0.00,VWS V14.01,2013-02-22 13:23:00,
2013-02-22 08:24:00,24.7,21.6,30.38,ENE,58,2.7,4.7,88,0.00,,,0.00,VWS V14.01,2013-02-22 13:24:00,
2013-02-22 08:25:00,24.8,21.8,30.38,NNE,27,3.4,4.6,88,0.00,,,0.00,VWS V14.01,2013-02-22 13:25:00,
2013-02-22 08:26:00,24.9,21.7,30.38,North,359,0.0,4.7,87,0.00,,,0.00,VWS V14.01,2013-02-22 13:26:00,
2013-02-22 08:27:00,24.9,21.8,30.38,North,359,0.0,0.0,88,0.00,,,0.00,VWS V14.01,2013-02-22 13:27:00,
2013-02-22 08:28:00,25.1,21.7,30.38,North,359,0.0,0.0,87,0.00,,---,0.00,VWS V14.01,2013-02-22 13:28:00,
2013-02-22 08:29:00,25.1,21.8,30.38,North,359,0.0,0.0,87,0.00,,,0.00,VWS V14.01,2013-02-22 13:29:00,
2013-02-22 08:30:00,25.1,21.7,30.38,North,359,0.0,0.0,87,0.00,,,0.00,VWS V14.01,2013-02-22 13:30:00,
2013-02-22 08:31:00,25.2,21.8,30.38,North,359,0.0,0.0,87,0.00,,,0.00,VWS V14.01,2013-02-22 13:31:00,
2013-02-22 08:32:00,25.3,21.8,30.38,North,359,0.0,0.0,86,0.00,,,0.00,VWS V14.01,2013-02-22 13:32:00,
2013-02-22 08:33:00,25.5,21.9,30.37,North,359,0.0,0.0,86,0.00,,---,0.00,VWS V14.01,2013-02-22 13:33:00,
2013-02-22 08:34:00,25.4,21.8,30.38,North,359,0.0,0.0,86,0.00,,,0.00,VWS V14.01,2013-02-22 13:34:00,
2013-02-22 08:35:00,25.5,21.9,30.37,North,359,0.0,0.0,86,0.00,,,0.00,VWS V14.01,2013-02-22 13:35:00,
2013-02-22 08:36:00,25.6,22.0,30.38,North,359,0.0,0.0,86,0.00,,,0.00,VWS V14.01,2013-02-22 13:36:00,
2013-02-22 08:37:00,25.6,22.0,30.38,North,359,0.0,0.0,86,0.00,,,0.00,VWS V14.01,2013-02-22 13:37:00,
2013-02-22 08:38:00,26.0,22.2,30.38,North,359,0.0,0.0,85,0.00,,---,0.00,VWS V14.01,2013-02-22 13:38:00,
2013-02-22 08:39:00,26.0,22.3,30.38,North,359,0.0,0.0,86,0.00,,,0.00,VWS V14.01,2013-02-22 13:39:00,
2013-02-22 08:40:00,26.0,22.2,30.38,North,359,0.0,0.0,85,0.00,,,0.00,VWS V14.01,2013-02-22 13:40:00,
2013-02-22 08:41:00,26.0,22.2,30.38,North,359,0.0,0.0,85,0.00,,,0.00,VWS V14.01,2013-02-22 13:41:00,
2013-02-22 08:42:00,26.1,22.3,30.38,North,359,0.0,0.0,85,0.00,,,0.00,VWS V14.01,2013-02-22 13:42:00,
2013-02-22 08:43:00,26.5,22.7,30.38,North,359,0.0,0.0,85,0.00,,---,0.00,VWS V14.01,2013-02-22 13:43:00,
2013-02-22 08:44:00,26.4,22.7,30.38,North,359,0.0,0.0,86,0.00,,,0.00,VWS V14.01,2013-02-22 13:44:00,
2013-02-22 08:45:00,26.5,22.7,30.38,North,359,0.0,0.0,85,0.00,,,0.00,VWS V14.01,2013-02-22 13:45:00,
2013-02-22 08:46:00,26.6,22.7,30.38,North,359,0.0,0.0,85,0.00,,,0.00,VWS V14.01,2013-02-22 13:46:00,
2013-02-22 08:47:00,26.7,22.8,30.38,North,359,0.0,0.0,85,0.00,,,0.00,VWS V14.01,2013-02-22 13:47:00,
2013-02-22 08:48:00,27.1,22.7,30.38,North,359,0.0,0.0,83,0.00,,---,0.00,VWS V14.01,2013-02-22 13:48:00,
2013-02-22 08:49:00,27.0,23.1,30.38,North,359,0.0,0.0,85,0.00,,,0.00,VWS V14.01,2013-02-22 13:49:00,
2013-02-22 08:50:00,27.1,22.7,30.38,North,359,0.0,0.0,83,0.00,,,0.00,VWS V14.01,2013-02-22 13:50:00,
2013-02-22 08:51:00,27.2,22.8,30.38,North,359,0.0,0.0,83,0.00,,,0.00,VWS V14.01,2013-02-22 13:51:00,
2013-02-22 08:52:00,27.2,22.8,30.38,North,359,0.0,0.0,83,0.00,,,0.00,VWS V14.01,2013-02-22 13:52:00,
2013-02-22 08:53:00,27.5,22.6,30.38,North,359,0.0,0.0,82,0.00,,---,0.00,VWS V14.01,2013-02-22 13:53:00,
2013-02-22 08:54:00,27.6,22.9,30.38,North,359,0.0,0.0,82,0.00,,,0.00,VWS V14.01,2013-02-22 13:54:00,
2013-02-22 08:55:00,27.5,22.6,30.38,North,359,0.0,0.0,82,0.00,,,0.00,VWS V14.01,2013-02-22 13:55:00,
2013-02-22 08:56:00,27.6,22.8,30.38,North,359,0.0,0.0,82,0.00,,,0.00,VWS V14.01,2013-02-22 13:56:00,
2013-02-22 08:57:00,27.6,22.7,30.38,North,359,0.0,0.0,82,0.00,,,0.00,VWS V14.01,2013-02-22 13:57:00,
2013-02-22 08:58:00,27.9,22.9,30.38,North,359,0.0,0.0,81,0.00,,---,0.00,VWS V14.01,2013-02-22 13:58:00,
2013-02-22 08:59:00,27.7,22.5,30.38,North,359,0.0,0.0,80,0.00,,,0.00,VWS V14.01,2013-02-22 13:59:00,
2013-02-22 09:00:00,27.9,22.9,30.38,North,359,0.0,0.0,81,0.00,,,0.00,VWS V14.01,2013-02-22 14:00:00,
2013-02-22 09:01:00,27.9,22.7,30.38,North,359,0.0,0.0,81,0.00,,,0.00,VWS V14.01,2013-02-22 14:01:00,
2013-02-22 09:02:00,28.0,22.6,30.38,North,359,0.0,0.0,80,0.00,,,0.00,VWS V14.01,2013-02-22 14:02:00,
2013-02-22 09:03:00,27.9,22.1,30.38,North,359,0.0,0.0,78,0.00,,---,0.00,VWS V14.01,2013-02-22 14:03:00,
2013-02-22 09:04:00,28.2,22.6,30.38,North,359,0.0,0.0,79,0.00,,,0.00,VWS V14.01,2013-02-22 14:04:00,
2013-02-22 09:05:00,27.9,22.1,30.38,North,359,0.0,0.0,78,0.00,,,0.00,VWS V14.01,2013-02-22 14:05:00,
2013-02-22 09:06:00,28.0,22.4,30.38,North,359,0.0,0.0,79,0.00,,,0.00,VWS V14.01,2013-02-22 14:06:00,
2013-02-22 09:07:00,28.1,22.4,30.38,North,359,0.0,0.0,79,0.00,,,0.00,VWS V14.01,2013-02-22 14:07:00,
2013-02-22 09:08:00,28.0,22.3,30.38,North,359,0.0,0.0,79,0.00,,---,0.00,VWS V14.01,2013-02-22 14:08:00,
2013-02-22 09:09:00,28.2,22.5,30.38,North,359,0.0,0.0,79,0.00,,,0.00,VWS V14.01,2013-02-22 14:09:00,
2013-02-22 09:10:00,28.0,22.3,30.38,North,359,0.0,0.0,79,0.00,,,0.00,VWS V14.01,2013-02-22 14:10:00,
2013-02-22 09:11:00,28.1,22.5,30.38,North,359,0.0,0.0,79,0.00,,,0.00,VWS V14.01,2013-02-22 14:11:00,
2013-02-22 09:12:00,28.0,22.2,30.38,North,359,0.0,0.0,78,0.00,,,0.00,VWS V14.01,2013-02-22 14:12:00,
2013-02-22 09:13:00,28.3,22.7,30.38,North,359,0.0,0.0,79,0.00,,---,0.00,VWS V14.01,2013-02-22 14:13:00,
2013-02-22 09:14:00,28.3,22.8,30.38,North,359,0.0,0.0,80,0.00,,,0.00,VWS V14.01,2013-02-22 14:14:00,
2013-02-22 09:15:00,28.3,22.7,30.38,North,359,0.0,0.0,79,0.00,,,0.00,VWS V14.01,2013-02-22 14:15:00,
2013-02-22 09:16:00,28.1,22.4,30.38,North,359,0.0,0.0,79,0.00,,,0.00,VWS V14.01,2013-02-22 14:16:00,
2013-02-22 09:17:00,28.2,22.7,30.38,North,359,0.0,0.0,79,0.00,,,0.00,VWS V14.01,2013-02-22 14:17:00,
2013-02-22 09:18:00,28.3,22.6,30.38,North,359,0.0,0.0,79,0.00,,---,0.00,VWS V14.01,2013-02-22 14:18:00,
2013-02-22 09:19:00,28.3,22.6,30.38,North,359,0.0,0.0,79,0.00,,,0.00,VWS V14.01,2013-02-22 14:19:00,
2013-02-22 09:20:00,28.3,22.6,30.38,North,359,0.0,0.0,79,0.00,,,0.00,VWS V14.01,2013-02-22 14:20:00,
2013-02-22 09:21:00,28.6,22.9,30.38,North,359,0.0,0.0,79,0.00,,,0.00,VWS V14.01,2013-02-22 14:21:00,
2013-02-22 09:22:00,28.4,22.4,30.38,North,359,0.0,0.0,78,0.00,,,0.00,VWS V14.01,2013-02-22 14:22:00,
2013-02-22 09:23:00,28.4,22.3,30.38,North,359,0.0,0.0,78,0.00,,---,0.00,VWS V14.01,2013-02-22 14:23:00,
2013-02-22 09:24:00,28.3,22.1,30.38,North,359,0.0,0.0,77,0.00,,,0.00,VWS V14.01,2013-02-22 14:24:00,
2013-02-22 09:25:00,28.4,22.3,30.38,North,359,0.0,0.0,78,0.00,,,0.00,VWS V14.01,2013-02-22 14:25:00,
2013-02-22 09:26:00,28.2,22.3,30.38,North,359,0.0,0.0,78,0.00,,,0.00,VWS V14.01,2013-02-22 14:26:00,
2013-02-22 09:27:00,28.4,22.7,30.38,North,359,0.0,0.0,79,0.00,,,0.00,VWS V14.01,2013-02-22 14:27:00,
2013-02-22 09:28:00,28.4,22.4,30.38,North,359,0.0,0.0,78,0.00,,---,0.00,VWS V14.01,2013-02-22 14:28:00,
2013-02-22 09:29:00,28.4,22.2,30.38,North,359,0.0,0.0,77,0.00,,,0.00,VWS V14.01,2013-02-22 14:29:00,
2013-02-22 09:30:00,28.4,22.4,30.38,North,359,0.0,0.0,78,0.00,,,0.00,VWS V14.01,2013-02-22 14:30:00,
2013-02-22 09:31:00,28.8,23.1,30.38,North,359,0.0,0.0,79,0.00,,,0.00,VWS V14.01,2013-02-22 14:31:00,
2013-02-22 09:32:00,28.7,22.9,30.38,North,359,0.0,0.0,79,0.00,,,0.00,VWS V14.01,2013-02-22 14:32:00,
2013-02-22 09:33:00,29.0,22.8,30.37,North,359,0.0,0.0,77,0.00,,---,0.00,VWS V14.01,2013-02-22 14:33:00,
2013-02-22 09:34:00,28.9,22.9,30.37,North,359,0.0,0.0,78,0.00,,,0.00,VWS V14.01,2013-02-22 14:34:00,
2013-02-22 09:35:00,29.0,22.8,30.37,North,359,0.0,0.0,77,0.00,,,0.00,VWS V14.01,2013-02-22 14:35:00,
2013-02-22 09:36:00,29.1,23.1,30.37,North,359,0.0,0.0,78,0.00,,,0.00,VWS V14.01,2013-02-22 14:36:00,
2013-02-22 09:37:00,29.2,23.0,30.37,North,359,0.0,0.0,77,0.00,,,0.00,VWS V14.01,2013-02-22 14:37:00,
2013-02-22 09:38:00,29.4,22.8,30.37,North,359,0.0,0.0,76,0.00,,---,0.00,VWS V14.01,2013-02-22 14:38:00,
2013-02-22 09:39:00,29.4,22.9,30.37,North,359,0.0,0.0,76,0.00,,,0.00,VWS V14.01,2013-02-22 14:39:00,
2013-02-22 09:40:00,29.4,22.8,30.37,North,359,0.0,0.0,76,0.00,,,0.00,VWS V14.01,2013-02-22 14:40:00,
2013-02-22 09:41:00,29.5,22.9,30.37,North,359,0.0,0.0,76,0.00,,,0.00,VWS V14.01,2013-02-22 14:41:00,
2013-02-22 09:42:00,29.7,23.2,30.37,North,359,0.0,0.0,76,0.00,,,0.00,VWS V14.01,2013-02-22 14:42:00,
2013-02-22 09:43:00,30.1,23.7,30.37,North,359,0.0,0.0,77,0.00,,---,0.00,VWS V14.01,2013-02-22 14:43:00,
2013-02-22 09:44:00,29.9,23.5,30.37,North,359,0.0,0.0,77,0.00,,,0.00,VWS V14.01,2013-02-22 14:44:00,
2013-02-22 09:45:00,30.1,23.7,30.37,North,359,0.0,0.0,77,0.00,,,0.00,VWS V14.01,2013-02-22 14:45:00,
2013-02-22 09:46:00,30.4,24.0,30.37,North,359,0.0,0.0,77,0.00,,,0.00,VWS V14.01,2013-02-22 14:46:00,
2013-02-22 09:47:00,30.4,23.9,30.37,North,359,0.0,0.0,76,0.00,,,0.00,VWS V14.01,2013-02-22 14:47:00,
2013-02-22 09:48:00,30.6,23.1,30.37,North,359,0.0,0.0,73,0.00,,---,0.00,VWS V14.01,2013-02-22 14:48:00,
2013-02-22 09:49:00,30.7,23.3,30.37,North,359,0.0,0.0,74,0.00,,,0.00,VWS V14.01,2013-02-22 14:49:00,
2013-02-22 09:50:00,30.6,23.1,30.37,North,359,0.0,0.0,73,0.00,,,0.00,VWS V14.01,2013-02-22 14:50:00,
2013-02-22 09:51:00,30.8,23.3,30.37,North,359,0.0,0.0,73,0.00,,,0.00,VWS V14.01,2013-02-22 14:51:00,
2013-02-22 09:52:00,30.9,23.7,30.37,North,359,0.0,0.0,74,0.00,,,0.00,VWS V14.01,2013-02-22 14:52:00,
2013-02-22 09:53:00,31.3,24.0,30.37,North,359,0.0,0.0,74,0.00,,---,0.00,VWS V14.01,2013-02-22 14:53:00,
2013-02-22 09:54:00,31.1,24.5,30.37,North,359,0.0,0.0,76,0.00,,,0.00,VWS V14.01,2013-02-22 14:54:00,
2013-02-22 09:55:00,31.3,24.0,30.37,North,359,0.0,0.0,74,0.00,,,0.00,VWS V14.01,2013-02-22 14:55:00,
2013-02-22 09:56:00,31.5,24.3,30.36,North,359,0.0,0.0,74,0.00,,,0.00,VWS V14.01,2013-02-22 14:56:00,
2013-02-22 09:57:00,31.6,24.0,30.36,North,359,0.0,0.0,73,0.00,,,0.00,VWS V14.01,2013-02-22 14:57:00,
2013-02-22 09:58:00,32.3,24.1,30.36,North,359,0.0,0.0,72,0.00,,---,0.00,VWS V14.01,2013-02-22 14:58:00,
2013-02-22 09:59:00,32.2,24.7,30.36,North,359,0.0,0.0,73,0.00,,,0.00,VWS V14.01,2013-02-22 14:59:00,
2013-02-22 10:00:00,32.3,24.1,30.36,North,359,0.0,0.0,72,0.00,,,0.00,VWS V14.01,2013-02-22 15:00:00,
2013-02-22 10:01:00,32.5,24.5,30.36,North,359,0.0,0.0,72,0.00,,,0.00,VWS V14.01,2013-02-22 15:01:00,
2013-02-22 10:02:00,32.8,25.0,30.36,North,359,0.0,0.0,73,0.00,,,0.00,VWS V14.01,2013-02-22 15:02:00,
2013-02-22 10:03:00,33.4,25.2,30.35,North,359,0.0,0.0,71,0.00,,---,0.00,VWS V14.01,2013-02-22 15:03:00,
2013-02-22 10:04:00,33.2,24.9,30.36,North,359,0.0,0.0,71,0.00,,,0.00,VWS V14.01,2013-02-22 15:04:00,
2013-02-22 10:05:00,33.4,25.2,30.35,North,359,0.0,0.0,71,0.00,,,0.00,VWS V14.01,2013-02-22 15:05:00,
2013-02-22 10:06:00,33.6,25.4,30.36,North,359,0.0,0.0,72,0.00,,,0.00,VWS V14.01,2013-02-22 15:06:00,
2013-02-22 10:07:00,33.8,24.6,30.36,North,359,0.0,0.0,69,0.00,,,0.00,VWS V14.01,2013-02-22 15:07:00,
2013-02-22 10:08:00,33.9,25.1,30.35,North,359,0.0,0.0,70,0.00,,---,0.00,VWS V14.01,2013-02-22 15:08:00,
2013-02-22 10:09:00,33.8,24.7,30.35,North,359,0.0,0.0,69,0.00,,,0.00,VWS V14.01,2013-02-22 15:09:00,
2013-02-22 10:10:00,33.9,25.1,30.35,North,359,0.0,0.0,70,0.00,,,0.00,VWS V14.01,2013-02-22 15:10:00,
2013-02-22 10:11:00,33.9,25.1,30.35,North,359,0.0,0.0,70,0.00,,,0.00,VWS V14.01,2013-02-22 15:11:00,
2013-02-22 10:12:00,33.8,23.8,30.35,North,359,0.0,0.0,66,0.00,,,0.00,VWS V14.01,2013-02-22 15:12:00,
2013-02-22 10:13:00,34.1,24.8,30.35,North,359,0.0,0.0,68,0.00,,---,0.00,VWS V14.01,2013-02-22 15:13:00,
2013-02-22 10:14:00,34.0,24.4,30.35,North,359,0.0,0.0,68,0.00,,,0.00,VWS V14.01,2013-02-22 15:14:00,
2013-02-22 10:15:00,34.1,24.8,30.35,North,359,0.0,0.0,68,0.00,,,0.00,VWS V14.01,2013-02-22 15:15:00,
2013-02-22 10:16:00,34.1,24.1,30.35,North,359,0.0,0.0,66,0.00,,,0.00,VWS V14.01,2013-02-22 15:16:00,
2013-02-22 10:17:00,33.9,23.5,30.35,North,359,0.0,0.0,65,0.00,,,0.00,VWS V14.01,2013-02-22 15:17:00,
2013-02-22 10:18:00,33.6,23.9,30.35,North,359,0.0,0.0,67,0.00,,---,0.00,VWS V14.01,2013-02-22 15:18:00,
2013-02-22 10:19:00,33.8,24.2,30.35,North,359,0.0,0.0,68,0.00,,,0.00,VWS V14.01,2013-02-22 15:19:00,
2013-02-22 10:20:00,33.6,23.9,30.35,North,359,0.0,0.0,67,0.00,,,0.00,VWS V14.01,2013-02-22 15:20:00,
2013-02-22 10:21:00,33.3,23.2,30.35,North,359,0.0,0.0,66,0.00,,,0.00,VWS V14.01,2013-02-22 15:21:00,
2013-02-22 10:22:00,32.7,22.8,30.35,North,359,0.0,0.0,66,0.00,,,0.00,VWS V14.01,2013-02-22 15:22:00,
2013-02-22 10:23:00,32.6,23.5,30.36,North,359,0.0,0.0,69,0.00,,---,0.00,VWS V14.01,2013-02-22 15:23:00,
2013-02-22 10:24:00,32.6,23.2,30.35,North,359,0.0,0.0,68,0.00,,,0.00,VWS V14.01,2013-02-22 15:24:00,
2013-02-22 10:25:00,32.6,23.5,30.36,North,359,0.0,0.0,69,0.00,,,0.00,VWS V14.01,2013-02-22 15:25:00,
2013-02-22 10:26:00,32.5,23.2,30.36,North,359,0.0,0.0,68,0.00,,,0.00,VWS V14.01,2013-02-22 15:26:00,
2013-02-22 10:27:00,32.4,23.1,30.36,North,359,0.0,0.0,68,0.00,,,0.00,VWS V14.01,2013-02-22 15:27:00,
2013-02-22 10:28:00,32.8,23.8,30.36,North,359,0.0,0.0,69,0.00,,---,0.00,VWS V14.01,2013-02-22 15:28:00,
2013-02-22 10:29:00,32.7,23.6,30.36,North,359,0.0,0.0,69,0.00,,,0.00,VWS V14.01,2013-02-22 15:29:00,
2013-02-22 10:30:00,32.8,23.8,30.36,North,359,0.0,0.0,69,0.00,,,0.00,VWS V14.01,2013-02-22 15:30:00,
2013-02-22 10:31:00,32.9,23.7,30.36,North,359,0.0,0.0,68,0.00,,,0.00,VWS V14.01,2013-02-22 15:31:00,
2013-02-22 10:32:00,32.7,23.0,30.36,North,359,0.0,0.0,67,0.00,,,0.00,VWS V14.01,2013-02-22 15:32:00,
2013-02-22 10:33:00,32.3,23.1,30.36,North,359,0.0,0.0,68,0.00,,---,0.00,VWS V14.01,2013-02-22 15:33:00,
2013-02-22 10:34:00,32.4,22.9,30.36,North,359,0.0,0.0,68,0.00,,,0.00,VWS V14.01,2013-02-22 15:34:00,
2013-02-22 10:35:00,32.3,23.1,30.36,North,359,0.0,0.0,68,0.00,,,0.00,VWS V14.01,2013-02-22 15:35:00,
2013-02-22 10:36:00,32.5,23.4,30.36,North,359,0.0,0.0,69,0.00,,,0.00,VWS V14.01,2013-02-22 15:36:00,
2013-02-22 10:37:00,32.6,23.4,30.36,North,359,0.0,0.0,69,0.00,,,0.00,VWS V14.01,2013-02-22 15:37:00,
2013-02-22 10:38:00,33.3,24.2,30.36,North,359,0.0,0.0,69,0.00,,---,0.00,VWS V14.01,2013-02-22 15:38:00,
2013-02-22 10:39:00,33.0,24.0,30.36,North,359,0.0,0.0,69,0.00,,,0.00,VWS V14.01,2013-02-22 15:39:00,
2013-02-22 10:40:00,33.3,24.2,30.36,North,359,0.0,0.0,69,0.00,,,0.00,VWS V14.01,2013-02-22 15:40:00,
2013-02-22 10:41:00,33.5,24.0,30.36,North,359,0.0,0.0,68,0.00,,,0.00,VWS V14.01,2013-02-22 15:41:00,
2013-02-22 10:42:00,33.6,23.6,30.36,North,359,0.0,0.0,66,0.00,,,0.00,VWS V14.01,2013-02-22 15:42:00,
2013-02-22 10:43:00,34.0,24.0,30.36,North,359,0.0,0.0,66,0.00,,---,0.00,VWS V14.01,2013-02-22 15:43:00,
2013-02-22 10:44:00,33.9,24.3,30.36,North,359,0.0,0.0,67,0.00,,,0.00,VWS V14.01,2013-02-22 15:44:00,
2013-02-22 10:45:00,34.0,24.0,30.36,North,359,0.0,0.0,66,0.00,,,0.00,VWS V14.01,2013-02-22 15:45:00,
2013-02-22 10:46:00,33.9,23.2,30.36,North,359,0.0,0.0,65,0.00,,,0.00,VWS V14.01,2013-02-22 15:46:00,
2013-02-22 10:47:00,34.0,23.8,30.36,North,359,0.0,0.0,66,0.00,,,0.00,VWS V14.01,2013-02-22 15:47:00,
2013-02-22 10:48:00,34.4,24.7,30.36,North,359,0.0,0.0,67,0.00,,---,0.00,VWS V14.01,2013-02-22 15:48:00,
2013-02-22 10:49:00,34.2,24.1,30.36,North,359,0.0,0.0,66,0.00,,,0.00,VWS V14.01,2013-02-22 15:49:00,
2013-02-22 10:50:00,34.4,24.7,30.36,North,359,0.0,0.0,67,0.00,,,0.00,VWS V14.01,2013-02-22 15:50:00,
2013-02-22 10:51:00,34.7,24.7,30.36,North,359,0.0,0.0,67,0.00,,,0.00,VWS V14.01,2013-02-22 15:51:00,
2013-02-22 10:52:00,34.8,24.4,30.36,North,359,0.0,0.0,65,0.00,,,0.00,VWS V14.01,2013-02-22 15:52:00,
2013-02-22 10:53:00,35.2,25.1,30.36,North,359,0.0,0.0,66,0.00,,---,0.00,VWS V14.01,2013-02-22 15:53:00,
2013-02-22 10:54:00,35.0,24.8,30.36,North,359,0.0,0.0,66,0.00,,,0.00,VWS V14.01,2013-02-22 15:54:00,
2013-02-22 10:55:00,35.2,25.1,30.36,North,359,0.0,0.0,66,0.00,,,0.00,VWS V14.01,2013-02-22 15:55:00,
2013-02-22 10:56:00,35.4,25.4,30.36,North,359,0.0,0.0,67,0.00,,,0.00,VWS V14.01,2013-02-22 15:56:00,
2013-02-22 10:57:00,35.6,25.6,30.36,North,359,0.0,0.0,67,0.00,,,0.00,VWS V14.01,2013-02-22 15:57:00,
2013-02-22 10:58:00,36.3,26.0,30.36,ENE,75,3.4,5.2,66,0.00,,---,0.00,VWS V14.01,2013-02-22 15:58:00,
2013-02-22 10:59:00,36.1,25.8,30.36,NNE,20,0.0,0.0,66,0.00,,,0.00,VWS V14.01,2013-02-22 15:59:00,
2013-02-22 11:00:00,36.3,26.0,30.36,ENE,75,3.4,5.2,66,0.00,,,0.00,VWS V14.01,2013-02-22 16:00:00,
2013-02-22 11:01:00,36.5,25.9,30.36,NE,42,0.0,3.5,65,0.00,,,0.00,VWS V14.01,2013-02-22 16:01:00,
2013-02-22 11:02:00,36.6,25.4,30.36,NE,42,0.0,0.0,63,0.00,,,0.00,VWS V14.01,2013-02-22 16:02:00,
2013-02-22 11:03:00,36.8,25.5,30.36,NE,42,0.0,0.0,63,0.00,,---,0.00,VWS V14.01,2013-02-22 16:03:00,
2013-02-22 11:04:00,36.7,25.3,30.36,NE,42,0.0,0.0,63,0.00,,,0.00,VWS V14.01,2013-02-22 16:04:00,
2013-02-22 11:05:00,36.8,25.5,30.36,NE,42,0.0,0.0,63,0.00,,,0.00,VWS V14.01,2013-02-22 16:05:00,
2013-02-22 11:06:00,36.9,25.4,30.36,NE,42,0.0,0.0,63,0.00,,,0.00,VWS V14.01,2013-02-22 16:06:00,
2013-02-22 11:07:00,36.8,24.8,30.36,NE,42,0.0,0.0,62,0.00,,,0.00,VWS V14.01,2013-02-22 16:07:00,
2013-02-22 11:08:00,36.8,24.8,30.36,NE,42,0.0,0.0,61,0.00,,---,0.00,VWS V14.01,2013-02-22 16:08:00,
2013-02-22 11:09:00,36.9,25.1,30.36,NE,42,0.0,0.0,62,0.00,,,0.00,VWS V14.01,2013-02-22 16:09:00,
2013-02-22 11:10:00,36.8,24.8,30.36,NE,42,0.0,0.0,61,0.00,,,0.00,VWS V14.01,2013-02-22 16:10:00,
2013-02-22 11:11:00,36.9,25.2,30.36,NE,42,0.0,0.0,62,0.00,,,0.00,VWS V14.01,2013-02-22 16:11:00,
2013-02-22 11:12:00,36.7,24.3,30.36,NE,42,0.0,0.0,60,0.00,,,0.00,VWS V14.01,2013-02-22 16:12:00,
2013-02-22 11:13:00,36.6,24.9,30.36,NE,42,0.0,0.0,62,0.00,,---,0.00,VWS V14.01,2013-02-22 16:13:00,
2013-02-22 11:14:00,36.5,24.3,30.36,NE,42,0.0,0.0,61,0.00,,,0.00,VWS V14.01,2013-02-22 16:14:00,
2013-02-22 11:15:00,36.6,24.9,30.36,NE,42,0.0,0.0,62,0.00,,,0.00,VWS V14.01,2013-02-22 16:15:00,
2013-02-22 11:16:00,36.7,25.3,30.36,NE,42,0.0,0.0,63,0.00,,,0.00,VWS V14.01,2013-02-22 16:16:00,
2013-02-22 11:17:00,36.8,25.5,30.36,NE,42,0.0,0.0,63,0.00,,,0.00,VWS V14.01,2013-02-22 16:17:00,
2013-02-22 11:18:00,37.0,25.0,30.36,NE,42,0.0,0.0,62,0.00,,---,0.00,VWS V14.01,2013-02-22 16:18:00,
2013-02-22 11:19:00,36.9,25.3,30.36,NE,42,0.0,0.0,62,0.00,,,0.00,VWS V14.01,2013-02-22 16:19:00,
2013-02-22 11:20:00,37.0,25.0,30.36,NE,42,0.0,0.0,62,0.00,,,0.00,VWS V14.01,2013-02-22 16:20:00,
2013-02-22 11:21:00,37.1,25.4,30.36,NE,42,0.0,0.0,62,0.00,,,0.00,VWS V14.01,2013-02-22 16:21:00,
2013-02-22 11:22:00,37.3,25.8,30.36,NE,42,0.0,0.0,63,0.00,,,0.00,VWS V14.01,2013-02-22 16:22:00,
2013-02-22 11:23:00,37.9,26.0,30.36,NE,42,0.0,0.0,62,0.00,,---,0.00,VWS V14.01,2013-02-22 16:23:00,
2013-02-22 11:24:00,37.8,26.3,30.36,NE,42,0.0,0.0,63,0.00,,,0.00,VWS V14.01,2013-02-22 16:24:00,
2013-02-22 11:25:00,37.9,26.0,30.36,NE,42,0.0,0.0,62,0.00,,,0.00,VWS V14.01,2013-02-22 16:25:00,
2013-02-22 11:26:00,38.1,26.1,30.36,NE,42,0.0,0.0,62,0.00,,,0.00,VWS V14.01,2013-02-22 16:26:00,
2013-02-22 11:27:00,38.3,26.5,30.36,NE,42,0.0,0.0,62,0.00,,,0.00,VWS V14.01,2013-02-22 16:27:00,
2013-02-22 11:28:00,38.8,26.5,30.36,NE,42,0.0,0.0,61,0.00,,---,0.00,VWS V14.01,2013-02-22 16:28:00,
2013-02-22 11:29:00,38.6,26.5,30.36,NE,42,0.0,0.0,62,0.00,,,0.00,VWS V14.01,2013-02-22 16:29:00,
2013-02-22 11:30:00,38.8,26.5,30.36,NE,42,0.0,0.0,61,0.00,,,0.00,VWS V14.01,2013-02-22 16:30:00,
2013-02-22 11:31:00,39.1,26.7,30.36,NE,42,0.0,0.0,61,0.00,,,0.00,VWS V14.01,2013-02-22 16:31:00,
2013-02-22 11:32:00,39.2,26.8,30.36,NE,42,0.0,0.0,61,0.00,,,0.00,VWS V14.01,2013-02-22 16:32:00,
2013-02-22 11:33:00,39.7,26.5,30.36,NE,42,0.0,0.0,59,0.00,,---,0.00,VWS V14.01,2013-02-22 16:33:00,
2013-02-22 11:34:00,39.6,26.8,30.36,NE,42,0.0,0.0,60,0.00,,,0.00,VWS V14.01,2013-02-22 16:34:00,
2013-02-22 11:35:00,39.7,26.5,30.36,NE,42,0.0,0.0,59,0.00,,,0.00,VWS V14.01,2013-02-22 16:35:00,
2013-02-22 11:36:00,39.8,26.0,30.36,NE,42,0.0,0.0,57,0.00,,,0.00,VWS V14.01,2013-02-22 16:36:00,
2013-02-22 11:37:00,39.9,26.0,30.36,NE,42,0.0,0.0,57,0.00,,,0.00,VWS V14.01,2013-02-22 16:37:00,
2013-02-22 11:38:00,39.7,24.6,30.36,NE,42,0.0,0.0,54,0.00,,---,0.00,VWS V14.01,2013-02-22 16:38:00,
2013-02-22 11:39:00,39.8,23.9,30.36,NE,42,0.0,0.0,52,0.00,,,0.00,VWS V14.01,2013-02-22 16:39:00,
2013-02-22 11:40:00,39.7,24.6,30.36,NE,42,0.0,0.0,54,0.00,,,0.00,VWS V14.01,2013-02-22 16:40:00,
2013-02-22 11:41:00,39.8,25.3,30.36,NE,42,0.0,0.0,56,0.00,,,0.00,VWS V14.01,2013-02-22 16:41:00,
2013-02-22 11:42:00,39.9,25.8,30.36,NE,42,0.0,0.0,57,0.00,,,0.00,VWS V14.01,2013-02-22 16:42:00,
2013-02-22 11:43:00,40.2,26.2,30.36,NE,42,0.0,0.0,57,0.00,,---,0.00,VWS V14.01,2013-02-22 16:43:00,
2013-02-22 11:44:00,40.1,26.0,30.36,NE,42,0.0,0.0,57,0.00,,,0.00,VWS V14.01,2013-02-22 16:44:00,
2013-02-22 11:45:00,40.2,26.2,30.36,NE,42,0.0,0.0,57,0.00,,,0.00,VWS V14.01,2013-02-22 16:45:00,
2013-02-22 11:46:00,40.3,26.4,30.36,NE,42,0.0,0.0,57,0.00,,,0.00,VWS V14.01,2013-02-22 16:46:00,
2013-02-22 11:47:00,40.5,26.9,30.36,NE,42,0.0,0.0,58,0.00,,,0.00,VWS V14.01,2013-02-22 16:47:00,
2013-02-22 11:48:00,40.9,25.6,30.36,NE,42,0.0,0.0,54,0.00,,---,0.00,VWS V14.01,2013-02-22 16:48:00,
2013-02-22 11:49:00,40.8,27.0,30.36,NE,42,0.0,0.0,58,0.00,,,0.00,VWS V14.01,2013-02-22 16:49:00,
2013-02-22 11:50:00,40.9,25.6,30.36,NE,42,0.0,0.0,54,0.00,,,0.00,VWS V14.01,2013-02-22 16:50:00,
2013-02-22 11:51:00,40.9,26.1,30.36,NE,42,0.0,0.0,55,0.00,,,0.00,VWS V14.01,2013-02-22 16:51:00,
2013-02-22 11:52:00,41.0,26.4,30.36,NE,42,0.0,0.0,56,0.00,,,0.00,VWS V14.01,2013-02-22 16:52:00,
2013-02-22 11:53:00,40.4,23.6,30.36,NE,42,0.0,0.0,51,0.00,,---,0.00,VWS V14.01,2013-02-22 16:53:00,
2013-02-22 11:54:00,40.8,23.9,30.36,NE,42,0.0,0.0,51,0.00,,,0.00,VWS V14.01,2013-02-22 16:54:00,
2013-02-22 11:55:00,40.4,23.6,30.36,NE,42,0.0,0.0,51,0.00,,,0.00,VWS V14.01,2013-02-22 16:55:00,
2013-02-22 11:56:00,40.3,24.5,30.36,NE,42,0.0,0.0,53,0.00,,,0.00,VWS V14.01,2013-02-22 16:56:00,
2013-02-22 11:57:00,40.3,25.2,30.36,NE,42,0.0,0.0,54,0.00,,,0.00,VWS V14.01,2013-02-22 16:57:00,
2013-02-22 11:58:00,40.8,26.5,30.36,NE,42,0.0,0.0,56,0.00,,---,0.00,VWS V14.01,2013-02-22 16:58:00,
2013-02-22 11:59:00,40.6,26.0,30.36,NE,42,0.0,0.0,56,0.00,,,0.00,VWS V14.01,2013-02-22 16:59:00,
2013-02-22 12:00:00,40.7,26.3,30.36,NE,42,0.0,0.0,56,0.00,,,0.00,VWS V14.01,2013-02-22 17:00:00,
2013-02-22 12:01:00,40.8,26.5,30.36,NE,42,0.0,0.0,56,0.00,,,0.00,VWS V14.01,2013-02-22 17:01:00,
2013-02-22 12:02:00,41.0,26.5,30.36,NE,42,0.0,0.0,56,0.00,,,0.00,VWS V14.01,2013-02-22 17:02:00,
2013-02-22 12:03:00,41.2,25.6,30.36,NE,42,0.0,0.0,54,0.00,,---,0.00,VWS V14.01,2013-02-22 17:03:00,
2013-02-22 12:04:00,41.1,25.6,30.36,NE,42,0.0,0.0,54,0.00,,,0.00,VWS V14.01,2013-02-22 17:04:00,
2013-02-22 12:05:00,41.2,25.5,30.36,NE,42,0.0,0.0,53,0.00,,,0.00,VWS V14.01,2013-02-22 17:05:00,
2013-02-22 12:06:00,41.2,25.8,30.36,NE,42,0.0,0.0,54,0.00,,,0.00,VWS V14.01,2013-02-22 17:06:00,
2013-02-22 12:07:00,41.2,26.0,30.36,NE,42,0.0,0.0,54,0.00,,,0.00,VWS V14.01,2013-02-22 17:07:00,
2013-02-22 12:08:00,41.3,25.5,30.36,NE,42,0.0,0.0,53,0.00,,,0.00,VWS V14.01,2013-02-22 17:08:00,
2013-02-22 12:09:00,41.3,25.4,30.36,NE,42,0.0,0.0,53,0.00,,---,0.00,VWS V14.01,2013-02-22 17:09:00,
2013-02-22 12:10:00,41.3,25.4,30.36,NE,42,0.0,0.0,53,0.00,,,0.00,VWS V14.01,2013-02-22 17:10:00,
2013-02-22 12:11:00,41.2,25.2,30.36,NE,42,0.0,0.0,53,0.00,,,0.00,VWS V14.01,2013-02-22 17:11:00,
2013-02-22 12:12:00,41.2,25.3,30.36,NE,42,0.0,0.0,53,0.00,,,0.00,VWS V14.01,2013-02-22 17:12:00,
2013-02-22 12:13:00,41.2,25.2,30.35,NE,42,0.0,0.0,53,0.00,,,0.00,VWS V14.01,2013-02-22 17:13:00,
2013-02-22 12:14:00,41.3,26.3,30.35,NE,42,0.0,0.0,55,0.00,,---,0.00,VWS V14.01,2013-02-22 17:14:00,
2013-02-22 12:15:00,41.3,26.2,30.35,NE,42,0.0,0.0,55,0.00,,,0.00,VWS V14.01,2013-02-22 17:15:00,
2013-02-22 12:16:00,41.4,26.5,30.35,NE,42,0.0,0.0,55,0.00,,,0.00,VWS V14.01,2013-02-22 17:16:00,
2013-02-22 12:17:00,41.5,26.8,30.35,NE,42,0.0,0.0,56,0.00,,,0.00,VWS V14.01,2013-02-22 17:17:00,
2013-02-22 12:18:00,41.7,26.8,30.35,NE,42,0.0,0.0,55,0.00,,,0.00,VWS V14.01,2013-02-22 17:18:00,
2013-02-22 12:19:00,41.9,26.1,30.35,NE,42,0.0,0.0,53,0.00,,---,0.00,VWS V14.01,2013-02-22 17:19:00,
2013-02-22 12:20:00,41.9,26.0,30.35,NE,42,0.0,0.0,53,0.00,,,0.00,VWS V14.01,2013-02-22 17:20:00,
2013-02-22 12:21:00,42.0,26.4,30.35,NE,42,0.0,0.0,54,0.00,,,0.00,VWS V14.01,2013-02-22 17:21:00,
2013-02-22 12:22:00,42.1,26.7,30.34,NE,42,0.0,0.0,54,0.00,,,0.00,VWS V14.01,2013-02-22 17:22:00,
2013-02-22 12:23:00,42.2,26.8,30.34,NE,42,0.0,0.0,54,0.00,,,0.00,VWS V14.01,2013-02-22 17:23:00,
2013-02-22 12:24:00,42.2,25.0,30.34,NE,42,0.0,0.0,50,0.00,,---,0.00,VWS V14.01,2013-02-22 17:24:00,
2013-02-22 12:25:00,42.3,24.9,30.34,NE,42,0.0,0.0,50,0.00,,,0.00,VWS V14.01,2013-02-22 17:25:00,
2013-02-22 12:26:00,42.1,25.2,30.34,NE,42,0.0,0.0,51,0.00,,,0.00,VWS V14.01,2013-02-22 17:26:00,
2013-02-22 12:27:00,42.1,25.8,30.34,NE,42,0.0,0.0,52,0.00,,,0.00,VWS V14.01,2013-02-22 17:27:00,
2013-02-22 12:28:00,42.1,25.9,30.33,NE,42,0.0,0.0,52,0.00,,,0.00,VWS V14.01,2013-02-22 17:28:00,
2013-02-22 12:29:00,42.0,25.7,30.33,NE,42,0.0,0.0,52,0.00,,---,0.00,VWS V14.01,2013-02-22 17:29:00,
2013-02-22 12:30:00,42.1,25.6,30.33,NE,42,0.0,0.0,52,0.00,,,0.00,VWS V14.01,2013-02-22 17:30:00,
2013-02-22 12:31:00,42.0,25.9,30.33,NE,42,0.0,0.0,52,0.00,,,0.00,VWS V14.01,2013-02-22 17:31:00,
2013-02-22 12:32:00,42.0,26.0,30.33,NE,42,0.0,0.0,53,0.00,,,0.00,VWS V14.01,2013-02-22 17:32:00,
2013-02-22 12:33:00,42.1,26.1,30.33,NE,42,0.0,0.0,53,0.00,,,0.00,VWS V14.01,2013-02-22 17:33:00,
2013-02-22 12:34:00,42.3,26.8,30.33,NE,42,0.0,0.0,54,0.00,,---,0.00,VWS V14.01,2013-02-22 17:34:00,
2013-02-22 12:35:00,42.3,26.8,30.33,NE,42,0.0,0.0,54,0.00,,,0.00,VWS V14.01,2013-02-22 17:35:00,
2013-02-22 12:36:00,42.4,26.9,30.33,NE,42,0.0,0.0,54,0.00,,,0.00,VWS V14.01,2013-02-22 17:36:00,
2013-02-22 12:37:00,42.5,26.7,30.33,NE,42,0.0,0.0,53,0.00,,,0.00,VWS V14.01,2013-02-22 17:37:00,
2013-02-22 12:38:00,42.5,26.5,30.33,NE,42,0.0,0.0,53,0.00,,,0.00,VWS V14.01,2013-02-22 17:38:00,
2013-02-22 12:39:00,42.8,26.7,30.34,NE,42,0.0,0.0,53,0.00,,---,0.00,VWS V14.01,2013-02-22 17:39:00,
2013-02-22 12:40:00,42.7,26.5,30.34,NE,42,0.0,0.0,52,0.00,,,0.00,VWS V14.01,2013-02-22 17:40:00,
2013-02-22 12:41:00,42.8,26.8,30.34,NE,42,0.0,0.0,53,0.00,,,0.00,VWS V14.01,2013-02-22 17:41:00,
2013-02-22 12:42:00,42.9,26.8,30.34,NE,42,0.0,0.0,53,0.00,,,0.00,VWS V14.01,2013-02-22 17:42:00,
2013-02-22 12:43:00,43.0,26.7,30.34,NE,42,0.0,0.0,52,0.00,,,0.00,VWS V14.01,2013-02-22 17:43:00,
2013-02-22 12:44:00,43.3,27.1,30.33,NE,42,0.0,0.0,52,0.00,,---,0.00,VWS V14.01,2013-02-22 17:44:00,
2013-02-22 12:45:00,43.2,26.9,30.33,NE,42,0.0,0.0,52,0.00,,,0.00,VWS V14.01,2013-02-22 17:45:00,
2013-02-22 12:46:00,43.3,26.8,30.33,NE,42,0.0,0.0,52,0.00,,,0.00,VWS V14.01,2013-02-22 17:46:00,
2013-02-22 12:47:00,43.4,26.5,30.33,NE,42,0.0,0.0,51,0.00,,,0.00,VWS V14.01,2013-02-22 17:47:00,
2013-02-22 12:48:00,43.4,26.3,30.33,NE,42,0.0,0.0,50,0.00,,,0.00,VWS V14.01,2013-02-22 17:48:00,
2013-02-22 12:49:00,43.5,26.2,30.33,NE,42,0.0,0.0,50,0.00,,---,0.00,VWS V14.01,2013-02-22 17:49:00,
2013-02-22 12:50:00,43.4,26.0,30.33,NE,42,0.0,0.0,50,0.00,,,0.00,VWS V14.01,2013-02-22 17:50:00,
2013-02-22 12:51:00,43.5,26.4,30.33,NE,42,0.0,0.0,51,0.00,,,0.00,VWS V14.01,2013-02-22 17:51:00,
2013-02-22 12:52:00,43.5,26.5,30.33,NE,42,0.0,0.0,51,0.00,,,0.00,VWS V14.01,2013-02-22 17:52:00,
2013-02-22 12:53:00,43.6,26.6,30.33,NE,42,0.0,0.0,51,0.00,,,0.00,VWS V14.01,2013-02-22 17:53:00,
2013-02-22 12:54:00,43.7,26.6,30.33,NE,42,0.0,0.0,51,0.00,,---,0.00,VWS V14.01,2013-02-22 17:54:00,
2013-02-22 12:55:00,43.7,26.5,30.33,NE,42,0.0,0.0,50,0.00,,,0.00,VWS V14.01,2013-02-22 17:55:00,
2013-02-22 12:56:00,43.7,26.7,30.33,NE,42,0.0,0.0,51,0.00,,,0.00,VWS V14.01,2013-02-22 17:56:00,
2013-02-22 12:57:00,43.8,26.8,30.33,NE,42,0.0,0.0,51,0.00,,,0.00,VWS V14.01,2013-02-22 17:57:00,
2013-02-22 12:58:00,43.9,26.9,30.33,NE,42,0.0,0.0,51,0.00,,,0.00,VWS V14.01,2013-02-22 17:58:00,
2013-02-22 12:59:00,44.0,26.8,30.33,NE,42,0.0,0.0,50,0.00,,---,0.00,VWS V14.01,2013-02-22 17:59:00,
2013-02-22 13:00:00,44.0,26.9,30.33,NE,42,0.0,0.0,51,0.00,,,0.00,VWS V14.01,2013-02-22 18:00:00,
2013-02-22 13:01:00,44.0,26.6,30.33,NE,42,0.0,0.0,50,0.00,,,0.00,VWS V14.01,2013-02-22 18:01:00,
2013-02-22 13:02:00,44.0,25.5,30.33,NE,42,0.0,0.0,48,0.00,,,0.00,VWS V14.01,2013-02-22 18:02:00,
2013-02-22 13:03:00,43.8,25.5,30.33,NE,42,0.0,0.0,48,0.00,,,0.00,VWS V14.01,2013-02-22 18:03:00,
2013-02-22 13:04:00,43.6,26.0,30.33,NE,42,0.0,0.0,50,0.00,,---,0.00,VWS V14.01,2013-02-22 18:04:00,
2013-02-22 13:05:00,43.7,25.9,30.33,NE,42,0.0,0.0,49,0.00,,,0.00,VWS V14.01,2013-02-22 18:05:00,
2013-02-22 13:06:00,43.7,26.2,30.33,NE,42,0.0,0.0,50,0.00,,,0.00,VWS V14.01,2013-02-22 18:06:00,
2013-02-22 13:07:00,43.7,26.4,30.32,NE,42,0.0,0.0,50,0.00,,,0.00,VWS V14.01,2013-02-22 18:07:00,
2013-02-22 13:08:00,43.8,26.9,30.32,NE,42,0.0,0.0,51,0.00,,,0.00,VWS V14.01,2013-02-22 18:08:00,
2013-02-22 13:09:00,44.0,26.7,30.31,ESE,117,0.0,0.0,50,0.00,,---,0.00,VWS V14.01,2013-02-22 18:09:00,
2013-02-22 13:10:00,43.9,26.6,30.31,ESE,117,0.0,4.5,50,0.00,,,0.00,VWS V14.01,2013-02-22 18:10:00,
2013-02-22 13:11:00,44.0,26.6,30.31,ESE,117,0.0,0.0,50,0.00,,,0.00,VWS V14.01,2013-02-22 18:11:00,
2013-02-22 13:12:00,44.1,26.5,30.31,ESE,117,0.0,0.0,50,0.00,,,0.00,VWS V14.01,2013-02-22 18:12:00,
2013-02-22 13:13:00,44.1,26.7,30.31,SE,139,0.0,3.0,50,0.00,,,0.00,VWS V14.01,2013-02-22 18:13:00,
2013-02-22 13:14:00,43.9,24.8,30.31,SE,139,0.0,0.0,47,0.00,,---,0.00,VWS V14.01,2013-02-22 18:14:00,
2013-02-22 13:15:00,44.1,25.3,30.31,SE,139,0.0,0.0,47,0.00,,,0.00,VWS V14.01,2013-02-22 18:15:00,
2013-02-22 13:16:00,43.8,24.8,30.31,SE,139,0.0,0.0,47,0.00,,,0.00,VWS V14.01,2013-02-22 18:16:00,
2013-02-22 13:17:00,43.7,25.6,30.31,ESE,108,0.0,3.1,48,0.00,,,0.00,VWS V14.01,2013-02-22 18:17:00,
2013-02-22 13:18:00,43.7,25.6,30.31,ESE,108,0.0,0.0,48,0.00,,,0.00,VWS V14.01,2013-02-22 18:18:00,
2013-02-22 13:19:00,43.6,26.0,30.30,ESE,108,0.0,0.0,50,0.00,,---,0.00,VWS V14.01,2013-02-22 18:19:00,
2013-02-22 13:20:00,43.6,25.9,30.30,ESE,108,0.0,0.0,49,0.00,,,0.00,VWS V14.01,2013-02-22 18:20:00,
2013-02-22 13:21:00,43.6,26.1,30.30,ESE,108,0.0,0.0,50,0.00,,,0.00,VWS V14.01,2013-02-22 18:21:00,
2013-02-22 13:22:00,43.7,26.2,30.30,ESE,108,0.0,0.0,50,0.00,,,0.00,VWS V14.01,2013-02-22 18:22:00,
2013-02-22 13:23:00,43.6,26.1,30.30,ESE,108,0.0,0.0,50,0.00,,,0.00,VWS V14.01,2013-02-22 18:23:00,
2013-02-22 13:24:00,43.8,26.2,30.29,ESE,108,0.0,0.0,50,0.00,,---,0.00,VWS V14.01,2013-02-22 18:24:00,
2013-02-22 13:25:00,43.7,26.3,30.30,ESE,108,0.0,0.0,50,0.00,,,0.00,VWS V14.01,2013-02-22 18:25:00,
2013-02-22 13:26:00,43.8,26.2,30.29,ESE,108,0.0,0.0,50,0.00,,,0.00,VWS V14.01,2013-02-22 18:26:00,
2013-02-22 13:27:00,43.7,25.3,30.29,ESE,108,0.0,0.0,48,0.00,,,0.00,VWS V14.01,2013-02-22 18:27:00,
2013-02-22 13:28:00,43.6,25.8,30.29,ESE,108,0.0,0.0,49,0.00,,,0.00,VWS V14.01,2013-02-22 18:28:00,
2013-02-22 13:29:00,43.7,26.2,30.29,ESE,108,0.0,0.0,50,0.00,,---,0.00,VWS V14.01,2013-02-22 18:29:00,
2013-02-22 13:30:00,43.7,26.2,30.29,ESE,108,0.0,0.0,50,0.00,,,0.00,VWS V14.01,2013-02-22 18:30:00,
2013-02-22 13:31:00,43.6,26.1,30.29,ESE,108,0.0,0.0,50,0.00,,,0.00,VWS V14.01,2013-02-22 18:31:00,
2013-02-22 13:32:00,43.6,25.4,30.29,ESE,108,0.0,0.0,48,0.00,,,0.00,VWS V14.01,2013-02-22 18:32:00,
2013-02-22 13:33:00,43.5,25.3,30.29,ESE,108,0.0,0.0,48,0.00,,,0.00,VWS V14.01,2013-02-22 18:33:00,
2013-02-22 13:34:00,43.4,25.8,30.30,ESE,108,0.0,0.0,50,0.00,,---,0.00,VWS V14.01,2013-02-22 18:34:00,
2013-02-22 13:35:00,43.3,25.6,30.30,ESE,108,0.0,0.0,49,0.00,,,0.00,VWS V14.01,2013-02-22 18:35:00,
2013-02-22 13:36:00,43.4,25.9,30.30,ESE,108,0.0,0.0,50,0.00,,,0.00,VWS V14.01,2013-02-22 18:36:00,
2013-02-22 13:37:00,43.4,26.2,30.30,ESE,108,0.0,0.0,50,0.00,,,0.00,VWS V14.01,2013-02-22 18:37:00,
2013-02-22 13:38:00,43.5,26.6,30.30,ESE,108,0.0,0.0,51,0.00,,,0.00,VWS V14.01,2013-02-22 18:38:00,
2013-02-22 13:39:00,43.9,26.9,30.30,ESE,108,0.0,0.0,51,0.00,,---,0.00,VWS V14.01,2013-02-22 18:39:00,
2013-02-22 13:40:00,43.7,26.7,30.30,ESE,108,0.0,0.0,51,0.00,,,0.00,VWS V14.01,2013-02-22 18:40:00,
2013-02-22 13:41:00,43.9,26.8,30.30,ESE,108,0.0,0.0,51,0.00,,,0.00,VWS V14.01,2013-02-22 18:41:00,
2013-02-22 13:42:00,44.0,26.7,30.29,ESE,108,0.0,0.0,50,0.00,,,0.00,VWS V14.01,2013-02-22 18:42:00,
2013-02-22 13:43:00,44.1,26.9,30.29,ESE,108,0.0,0.0,50,0.00,,,0.00,VWS V14.01,2013-02-22 18:43:00,
2013-02-22 13:44:00,44.5,27.2,30.29,ESE,108,0.0,0.0,50,0.00,,---,0.00,VWS V14.01,2013-02-22 18:44:00,
2013-02-22 13:45:00,44.4,27.2,30.29,ESE,108,0.0,0.0,50,0.00,,,0.00,VWS V14.01,2013-02-22 18:45:00,
2013-02-22 13:46:00,44.5,27.1,30.29,ESE,108,0.0,0.0,50,0.00,,,0.00,VWS V14.01,2013-02-22 18:46:00,
2013-02-22 13:47:00,44.6,26.9,30.29,ESE,108,0.0,0.0,50,0.00,,,0.00,VWS V14.01,2013-02-22 18:47:00,
2013-02-22 13:48:00,44.6,26.7,30.29,ESE,108,0.0,0.0,49,0.00,,,0.00,VWS V14.01,2013-02-22 18:48:00,
2013-02-22 13:49:00,44.8,26.6,30.30,ESE,108,0.0,0.0,48,0.00,,---,0.00,VWS V14.01,2013-02-22 18:49:00,
2013-02-22 13:50:00,44.8,26.6,30.30,ESE,108,0.0,0.0,49,0.00,,,0.00,VWS V14.01,2013-02-22 18:50:00,
2013-02-22 13:51:00,44.8,26.6,30.30,ESE,108,0.0,0.0,48,0.00,,,0.00,VWS V14.01,2013-02-22 18:51:00,
2013-02-22 13:52:00,44.8,26.5,30.30,ESE,108,0.0,0.0,48,0.00,,,0.00,VWS V14.01,2013-02-22 18:52:00,
2013-02-22 13:53:00,44.8,26.7,30.30,ESE,108,0.0,0.0,49,0.00,,,0.00,VWS V14.01,2013-02-22 18:53:00,
2013-02-22 13:54:00,44.9,26.7,30.29,ESE,108,0.0,0.0,48,0.00,,---,0.00,VWS V14.01,2013-02-22 18:54:00,
2013-02-22 13:55:00,44.9,26.4,30.29,ESE,108,0.0,0.0,48,0.00,,,0.00,VWS V14.01,2013-02-22 18:55:00,
2013-02-22 13:56:00,44.9,26.7,30.29,ESE,108,0.0,0.0,48,0.00,,,0.00,VWS V14.01,2013-02-22 18:56:00,
2013-02-22 13:57:00,44.8,26.3,30.29,ESE,108,0.0,0.0,48,0.00,,,0.00,VWS V14.01,2013-02-22 18:57:00,
2013-02-22 13:58:00,44.8,26.4,30.30,ESE,108,0.0,0.0,48,0.00,,,0.00,VWS V14.01,2013-02-22 18:58:00,
2013-02-22 13:59:00,44.7,26.6,30.30,ESE,108,0.0,0.0,49,0.00,,---,0.00,VWS V14.01,2013-02-22 18:59:00,
2013-02-22 14:00:00,44.7,26.3,30.30,ESE,108,0.0,0.0,48,0.00,,,0.00,VWS V14.01,2013-02-22 19:00:00,
2013-02-22 14:01:00,44.7,26.6,30.30,ESE,108,0.0,0.0,49,0.00,,,0.00,VWS V14.01,2013-02-22 19:01:00,
2013-02-22 14:02:00,44.7,26.9,30.30,ESE,108,0.0,0.0,49,0.00,,,0.00,VWS V14.01,2013-02-22 19:02:00,
2013-02-22 14:03:00,44.8,26.9,30.30,ESE,108,0.0,0.0,49,0.00,,,0.00,VWS V14.01,2013-02-22 19:03:00,
2013-02-22 14:04:00,44.6,26.4,30.30,ESE,108,0.0,0.0,48,0.00,,---,0.00,VWS V14.01,2013-02-22 19:04:00,
2013-02-22 14:05:00,44.7,26.1,30.30,ESE,108,0.0,0.0,48,0.00,,,0.00,VWS V14.01,2013-02-22 19:05:00,
2013-02-22 14:06:00,44.6,26.4,30.30,ESE,108,0.0,0.0,48,0.00,,,0.00,VWS V14.01,2013-02-22 19:06:00,
2013-02-22 14:07:00,44.7,26.6,30.30,ESE,108,0.0,0.0,49,0.00,,,0.00,VWS V14.01,2013-02-22 19:07:00,
2013-02-22 14:08:00,44.7,26.7,30.30,ESE,108,0.0,0.0,49,0.00,,,0.00,VWS V14.01,2013-02-22 19:08:00,
2013-02-22 14:09:00,44.7,27.0,30.30,ESE,108,0.0,0.0,50,0.00,,---,0.00,VWS V14.01,2013-02-22 19:09:00,
2013-02-22 14:10:00,44.6,26.6,30.30,ESE,108,0.0,0.0,49,0.00,,,0.00,VWS V14.01,2013-02-22 19:10:00,
2013-02-22 14:11:00,44.7,27.0,30.30,ESE,108,0.0,0.0,50,0.00,,,0.00,VWS V14.01,2013-02-22 19:11:00,
2013-02-22 14:12:00,44.7,26.9,30.30,ESE,108,0.0,0.0,49,0.00,,,0.00,VWS V14.01,2013-02-22 19:12:00,
2013-02-22 14:13:00,44.7,26.7,30.30,ESE,108,0.0,0.0,49,0.00,,,0.00,VWS V14.01,2013-02-22 19:13:00,
2013-02-22 14:14:00,44.7,26.5,30.30,ESE,108,0.0,0.0,49,0.00,,---,0.00,VWS V14.01,2013-02-22 19:14:00,
2013-02-22 14:15:00,44.7,26.8,30.30,ESE,108,0.0,0.0,49,0.00,,,0.00,VWS V14.01,2013-02-22 19:15:00,
2013-02-22 14:16:00,44.7,26.5,30.30,ESE,108,0.0,0.0,49,0.00,,,0.00,VWS V14.01,2013-02-22 19:16:00,
2013-02-22 14:17:00,44.7,26.6,30.30,ESE,108,0.0,0.0,49,0.00,,,0.00,VWS V14.01,2013-02-22 19:17:00,
2013-02-22 14:18:00,44.7,26.7,30.30,ESE,108,0.0,0.0,49,0.00,,,0.00,VWS V14.01,2013-02-22 19:18:00,
2013-02-22 14:19:00,44.6,26.7,30.30,ESE,108,0.0,0.0,49,0.00,,---,0.00,VWS V14.01,2013-02-22 19:19:00,
2013-02-22 14:20:00,44.6,26.8,30.30,ESE,108,0.0,0.0,49,0.00,,,0.00,VWS V14.01,2013-02-22 19:20:00,
2013-02-22 14:21:00,44.6,26.7,30.30,ESE,108,0.0,0.0,49,0.00,,,0.00,VWS V14.01,2013-02-22 19:21:00,
2013-02-22 14:22:00,44.5,26.5,30.29,ESE,108,0.0,0.0,49,0.00,,,0.00,VWS V14.01,2013-02-22 19:22:00,
2013-02-22 14:23:00,44.6,26.5,30.29,ESE,108,0.0,0.0,49,0.00,,,0.00,VWS V14.01,2013-02-22 19:23:00,
2013-02-22 14:24:00,44.5,26.3,30.29,East,80,3.2,5.0,48,0.00,,---,0.00,VWS V14.01,2013-02-22 19:24:00,
2013-02-22 14:25:00,44.6,26.3,30.29,ESE,108,0.0,0.0,48,0.00,,,0.00,VWS V14.01,2013-02-22 19:25:00,
2013-02-22 14:26:00,44.5,26.3,30.29,East,80,3.2,5.0,48,0.00,,,0.00,VWS V14.01,2013-02-22 19:26:00,
2013-02-22 14:27:00,44.5,26.5,30.29,East,80,0.0,3.2,49,0.00,,,0.00,VWS V14.01,2013-02-22 19:27:00,
2013-02-22 14:28:00,44.5,26.4,30.29,East,80,0.0,0.0,49,0.00,,,0.00,VWS V14.01,2013-02-22 19:28:00,
2013-02-22 14:29:00,44.5,26.5,30.29,East,100,0.0,0.0,49,0.00,,---,0.00,VWS V14.01,2013-02-22 19:29:00,
2013-02-22 14:30:00,44.5,26.2,30.29,East,100,0.0,0.0,48,0.00,,,0.00,VWS V14.01,2013-02-22 19:30:00,
2013-02-22 14:31:00,44.5,26.5,30.29,East,100,0.0,0.0,49,0.00,,,0.00,VWS V14.01,2013-02-22 19:31:00,
2013-02-22 14:32:00,44.5,26.3,30.29,East,100,0.0,0.0,48,0.00,,,0.00,VWS V14.01,2013-02-22 19:32:00,
2013-02-22 14:33:00,44.5,26.4,30.29,East,100,0.0,0.0,49,0.00,,,0.00,VWS V14.01,2013-02-22 19:33:00,
2013-02-22 14:34:00,44.4,26.3,30.29,ESE,115,0.0,4.2,49,0.00,,---,0.00,VWS V14.01,2013-02-22 19:34:00,
2013-02-22 14:35:00,44.4,26.5,30.29,NE,44,2.3,5.6,49,0.00,,,0.00,VWS V14.01,2013-02-22 19:35:00,
2013-02-22 14:36:00,44.4,26.3,30.29,ESE,115,0.0,4.2,49,0.00,,,0.00,VWS V14.01,2013-02-22 19:36:00,
2013-02-22 14:37:00,44.3,26.2,30.29,ESE,115,0.0,0.0,49,0.00,,,0.00,VWS V14.01,2013-02-22 19:37:00,
2013-02-22 14:38:00,44.3,26.4,30.29,ESE,115,0.0,0.0,49,0.00,,,0.00,VWS V14.01,2013-02-22 19:38:00,
2013-02-22 14:39:00,44.5,27.0,30.30,ESE,115,0.0,0.0,50,0.00,,---,0.00,VWS V14.01,2013-02-22 19:39:00,
2013-02-22 14:40:00,44.4,26.8,30.29,ESE,115,0.0,0.0,50,0.00,,,0.00,VWS V14.01,2013-02-22 19:40:00,
2013-02-22 14:41:00,44.5,27.0,30.30,ESE,115,0.0,0.0,50,0.00,,,0.00,VWS V14.01,2013-02-22 19:41:00,
2013-02-22 14:42:00,44.6,27.1,30.30,ESE,115,0.0,0.0,50,0.00,,,0.00,VWS V14.01,2013-02-22 19:42:00,
2013-02-22 14:43:00,44.7,27.2,30.30,ESE,115,0.0,0.0,50,0.00,,,0.00,VWS V14.01,2013-02-22 19:43:00,
2013-02-22 14:44:00,44.9,26.7,30.30,ESE,115,0.0,0.0,48,0.00,,---,0.00,VWS V14.01,2013-02-22 19:44:00,
2013-02-22 14:45:00,44.8,26.9,30.30,ESE,115,0.0,0.0,49,0.00,,,0.00,VWS V14.01,2013-02-22 19:45:00,
2013-02-22 14:46:00,44.9,26.7,30.30,ESE,115,0.0,0.0,48,0.00,,,0.00,VWS V14.01,2013-02-22 19:46:00,
2013-02-22 14:47:00,44.9,26.6,30.30,ESE,115,0.0,0.0,48,0.00,,,0.00,VWS V14.01,2013-02-22 19:47:00,
2013-02-22 14:48:00,44.8,26.4,30.30,ESE,115,0.0,0.0,48,0.00,,,0.00,VWS V14.01,2013-02-22 19:48:00,
2013-02-22 14:49:00,44.8,26.9,30.30,ESE,115,0.0,0.0,49,0.00,,---,0.00,VWS V14.01,2013-02-22 19:49:00,
2013-02-22 14:50:00,44.8,26.6,30.30,ESE,115,0.0,0.0,48,0.00,,,0.00,VWS V14.01,2013-02-22 19:50:00,
2013-02-22 14:51:00,44.8,26.9,30.30,ESE,115,0.0,0.0,49,0.00,,,0.00,VWS V14.01,2013-02-22 19:51:00,
2013-02-22 14:52:00,44.8,26.8,30.29,ESE,115,0.0,0.0,49,0.00,,,0.00,VWS V14.01,2013-02-22 19:52:00,
2013-02-22 14:53:00,44.8,26.7,30.29,ESE,115,0.0,0.0,49,0.00,,,0.00,VWS V14.01,2013-02-22 19:53:00,
2013-02-22 14:54:00,44.9,26.7,30.29,ESE,115,0.0,0.0,48,0.00,,---,0.00,VWS V14.01,2013-02-22 19:54:00,
2013-02-22 14:55:00,44.9,26.8,30.29,ESE,115,0.0,0.0,49,0.00,,,0.00,VWS V14.01,2013-02-22 19:55:00,
2013-02-22 14:56:00,44.9,26.7,30.29,ESE,115,0.0,0.0,48,0.00,,,0.00,VWS V14.01,2013-02-22 19:56:00,
2013-02-22 14:57:00,44.8,26.6,30.29,ESE,115,0.0,0.0,48,0.00,,,0.00,VWS V14.01,2013-02-22 19:57:00,
2013-02-22 14:58:00,44.8,26.5,30.29,ESE,115,0.0,0.0,48,0.00,,,0.00,VWS V14.01,2013-02-22 19:58:00,
2013-02-22 14:59:00,44.9,26.6,30.29,ESE,115,0.0,0.0,48,0.00,,---,0.00,VWS V14.01,2013-02-22 19:59:00,
2013-02-22 15:00:00,44.9,26.6,30.29,ESE,115,0.0,0.0,48,0.00,,,0.00,VWS V14.01,2013-02-22 20:00:00,
2013-02-22 15:01:00,44.9,26.6,30.29,ESE,115,0.0,0.0,48,0.00,,,0.00,VWS V14.01,2013-02-22 20:01:00,
2013-02-22 15:02:00,44.8,26.2,30.29,ESE,115,0.0,0.0,48,0.00,,,0.00,VWS V14.01,2013-02-22 20:02:00,
2013-02-22 15:03:00,44.8,26.5,30.29,ESE,115,0.0,0.0,48,0.00,,,0.00,VWS V14.01,2013-02-22 20:03:00,
2013-02-22 15:04:00,44.6,26.2,30.29,ESE,115,0.0,0.0,48,0.00,,---,0.00,VWS V14.01,2013-02-22 20:04:00,
2013-02-22 15:05:00,44.7,25.9,30.29,ESE,115,0.0,0.0,47,0.00,,,0.00,VWS V14.01,2013-02-22 20:05:00,
2013-02-22 15:06:00,44.6,26.2,30.29,ESE,115,0.0,0.0,48,0.00,,,0.00,VWS V14.01,2013-02-22 20:06:00,
2013-02-22 15:07:00,44.6,26.5,30.29,ESE,115,0.0,0.0,49,0.00,,,0.00,VWS V14.01,2013-02-22 20:07:00,
2013-02-22 15:08:00,44.6,26.7,30.29,ESE,115,0.0,0.0,49,0.00,,,0.00,VWS V14.01,2013-02-22 20:08:00,
2013-02-22 15:09:00,44.6,26.5,30.30,ESE,115,0.0,0.0,49,0.00,,---,0.00,VWS V14.01,2013-02-22 20:09:00,
2013-02-22 15:10:00,44.6,26.6,30.30,ESE,115,0.0,0.0,49,0.00,,,0.00,VWS V14.01,2013-02-22 20:10:00,
2013-02-22 15:11:00,44.6,26.5,30.30,ESE,115,0.0,0.0,49,0.00,,,0.00,VWS V14.01,2013-02-22 20:11:00,
2013-02-22 15:12:00,44.6,26.3,30.30,ESE,115,0.0,0.0,48,0.00,,,0.00,VWS V14.01,2013-02-22 20:12:00,
2013-02-22 15:13:00,44.6,26.2,30.29,ESE,115,0.0,0.0,48,0.00,,,0.00,VWS V14.01,2013-02-22 20:13:00,
2013-02-22 15:14:00,44.5,26.1,30.29,ESE,115,0.0,0.0,48,0.00,,---,0.00,VWS V14.01,2013-02-22 20:14:00,
2013-02-22 15:15:00,44.5,26.1,30.29,ESE,115,0.0,0.0,48,0.00,,,0.00,VWS V14.01,2013-02-22 20:15:00,
2013-02-22 15:16:00,44.5,26.1,30.29,ESE,115,0.0,0.0,48,0.00,,,0.00,VWS V14.01,2013-02-22 20:16:00,
2013-02-22 15:17:00,44.4,26.2,30.29,SSE,167,3.4,8.4,48,0.00,,,0.00,VWS V14.01,2013-02-22 20:17:00,
2013-02-22 15:18:00,44.3,26.4,30.29,SSE,167,0.0,3.4,49,0.00,,,0.00,VWS V14.01,2013-02-22 20:18:00,
2013-02-22 15:19:00,44.4,26.4,30.28,SSE,167,0.0,0.0,49,0.00,,---,0.00,VWS V14.01,2013-02-22 20:19:00,
2013-02-22 15:20:00,44.4,26.5,30.28,SSE,167,0.0,0.0,49,0.00,,,0.00,VWS V14.01,2013-02-22 20:20:00,
2013-02-22 15:21:00,44.4,26.4,30.28,SSE,167,0.0,0.0,49,0.00,,,0.00,VWS V14.01,2013-02-22 20:21:00,
2013-02-22 15:22:00,44.3,26.3,30.28,SSE,167,0.0,0.0,49,0.00,,,0.00,VWS V14.01,2013-02-22 20:22:00,
2013-02-22 15:23:00,44.3,26.3,30.28,SSE,167,0.0,0.0,49,0.00,,,0.00,VWS V14.01,2013-02-22 20:23:00,
2013-02-22 15:24:00,44.3,26.3,30.28,SSE,167,0.0,0.0,49,0.00,,---,0.00,VWS V14.01,2013-02-22 20:24:00,
2013-02-22 15:25:00,44.3,26.4,30.28,SSE,167,0.0,0.0,49,0.00,,,0.00,VWS V14.01,2013-02-22 20:25:00,
2013-02-22 15:26:00,44.3,26.3,30.28,SSE,167,0.0,0.0,49,0.00,,,0.00,VWS V14.01,2013-02-22 20:26:00,
2013-02-22 15:27:00,44.3,26.4,30.28,SSE,167,0.0,0.0,49,0.00,,,0.00,VWS V14.01,2013-02-22 20:27:00,
2013-02-22 15:28:00,44.3,26.3,30.28,SSE,167,0.0,0.0,49,0.00,,,0.00,VWS V14.01,2013-02-22 20:28:00,
2013-02-22 15:29:00,44.1,26.0,30.29,SSE,167,0.0,0.0,49,0.00,,---,0.00,VWS V14.01,2013-02-22 20:29:00,
2013-02-22 15:30:00,44.2,25.6,30.29,SSE,167,0.0,0.0,48,0.00,,,0.00,VWS V14.01,2013-02-22 20:30:00,
2013-02-22 15:31:00,44.1,25.9,30.29,SSE,167,0.0,0.0,48,0.00,,,0.00,VWS V14.01,2013-02-22 20:31:00,
2013-02-22 15:32:00,44.1,25.9,30.29,SSE,167,0.0,0.0,48,0.00,,,0.00,VWS V14.01,2013-02-22 20:32:00,
2013-02-22 15:33:00,44.0,25.8,30.28,SSE,167,0.0,0.0,48,0.00,,,0.00,VWS V14.01,2013-02-22 20:33:00,
2013-02-22 15:34:00,43.8,26.0,30.28,SSE,167,0.0,0.0,49,0.00,,---,0.00,VWS V14.01,2013-02-22 20:34:00,
2013-02-22 15:35:00,43.8,25.8,30.28,SSE,167,0.0,0.0,49,0.00,,,0.00,VWS V14.01,2013-02-22 20:35:00,
2013-02-22 15:36:00,43.8,25.9,30.28,SSE,167,0.0,0.0,49,0.00,,,0.00,VWS V14.01,2013-02-22 20:36:00,
2013-02-22 15:37:00,43.7,25.8,30.28,SSE,167,0.0,0.0,49,0.00,,,0.00,VWS V14.01,2013-02-22 20:37:00,
2013-02-22 15:38:00,43.6,26.0,30.28,SSE,167,0.0,0.0,50,0.00,,,0.00,VWS V14.01,2013-02-22 20:38:00,
2013-02-22 15:39:00,43.5,25.8,30.28,SSE,167,0.0,0.0,49,0.00,,---,0.00,VWS V14.01,2013-02-22 20:39:00,
2013-02-22 15:40:00,43.6,26.0,30.28,SSE,167,0.0,0.0,50,0.00,,,0.00,VWS V14.01,2013-02-22 20:40:00,
2013-02-22 15:41:00,43.5,25.7,30.28,SSE,167,0.0,0.0,49,0.00,,,0.00,VWS V14.01,2013-02-22 20:41:00,
2013-02-22 15:42:00,43.4,25.7,30.28,SSE,167,0.0,0.0,49,0.00,,,0.00,VWS V14.01,2013-02-22 20:42:00,
2013-02-22 15:43:00,43.3,25.9,30.28,SSE,167,0.0,0.0,50,0.00,,,0.00,VWS V14.01,2013-02-22 20:43:00,
2013-02-22 15:44:00,43.1,25.7,30.28,East,101,0.0,6.7,50,0.00,,---,0.00,VWS V14.01,2013-02-22 20:44:00,
2013-02-22 15:45:00,43.2,26.0,30.28,ESE,120,5.2,7.6,50,0.00,,,0.00,VWS V14.01,2013-02-22 20:45:00,
2013-02-22 15:46:00,43.2,26.0,30.28,East,96,6.7,6.8,50,0.00,,,0.00,VWS V14.01,2013-02-22 20:46:00,
2013-02-22 15:47:00,43.1,25.7,30.28,East,101,0.0,6.7,50,0.00,,,0.00,VWS V14.01,2013-02-22 20:47:00,
2013-02-22 15:48:00,43.0,25.7,30.28,East,94,0.0,3.4,50,0.00,,,0.00,VWS V14.01,2013-02-22 20:48:00,
2013-02-22 15:49:00,42.9,25.9,30.28,East,94,0.0,0.0,51,0.00,,,0.00,VWS V14.01,2013-02-22 20:49:00,
2013-02-22 15:50:00,42.9,26.1,30.28,East,94,0.0,0.0,51,0.00,,---,0.00,VWS V14.01,2013-02-22 20:50:00,
2013-02-22 15:51:00,42.9,26.2,30.28,East,94,0.0,0.0,51,0.00,,,0.00,VWS V14.01,2013-02-22 20:51:00,
2013-02-22 15:52:00,42.9,26.0,30.28,East,94,0.0,0.0,51,0.00,,,0.00,VWS V14.01,2013-02-22 20:52:00,
2013-02-22 15:53:00,42.9,25.9,30.28,East,94,0.0,0.0,51,0.00,,,0.00,VWS V14.01,2013-02-22 20:53:00,
2013-02-22 15:54:00,42.9,26.3,30.28,East,94,0.0,0.0,52,0.00,,,0.00,VWS V14.01,2013-02-22 20:54:00,
2013-02-22 15:55:00,42.8,26.0,30.28,East,94,0.0,0.0,51,0.00,,---,0.00,VWS V14.01,2013-02-22 20:55:00,
2013-02-22 15:56:00,42.9,26.2,30.28,East,94,0.0,0.0,51,0.00,,,0.00,VWS V14.01,2013-02-22 20:56:00,
2013-02-22 15:57:00,42.9,26.1,30.28,East,94,0.0,0.0,51,0.00,,,0.00,VWS V14.01,2013-02-22 20:57:00,
2013-02-22 15:58:00,42.8,26.0,30.29,East,94,0.0,0.0,51,0.00,,,0.00,VWS V14.01,2013-02-22 20:58:00,
2013-02-22 15:59:00,42.8,26.0,30.28,East,94,0.0,0.0,51,0.00,,,0.00,VWS V14.01,2013-02-22 20:59:00,
2013-02-22 16:00:00,42.8,25.7,30.28,East,94,0.0,0.0,50,0.00,,---,0.00,VWS V14.01,2013-02-22 21:00:00,
2013-02-22 16:01:00,42.8,25.7,30.28,East,94,0.0,0.0,50,0.00,,,0.00,VWS V14.01,2013-02-22 21:01:00,
2013-02-22 16:02:00,42.7,25.7,30.28,East,94,0.0,0.0,51,0.00,,,0.00,VWS V14.01,2013-02-22 21:02:00,
2013-02-22 16:03:00,42.7,25.8,30.29,East,94,0.0,0.0,51,0.00,,,0.00,VWS V14.01,2013-02-22 21:03:00,
2013-02-22 16:04:00,42.7,25.7,30.28,East,94,0.0,0.0,51,0.00,,,0.00,VWS V14.01,2013-02-22 21:04:00,
2013-02-22 16:05:00,42.6,25.9,30.29,East,94,0.0,0.0,51,0.00,,---,0.00,VWS V14.01,2013-02-22 21:05:00,
2013-02-22 16:06:00,42.6,25.7,30.29,East,94,0.0,2.1,51,0.00,,,0.00,VWS V14.01,2013-02-22 21:06:00,
2013-02-22 16:07:00,42.6,25.9,30.29,East,94,0.0,0.0,51,0.00,,,0.00,VWS V14.01,2013-02-22 21:07:00,
2013-02-22 16:08:00,42.6,25.9,30.29,East,94,0.0,0.0,51,0.00,,,0.00,VWS V14.01,2013-02-22 21:08:00,
2013-02-22 16:09:00,42.5,25.7,30.29,East,94,0.0,0.0,51,0.00,,,0.00,VWS V14.01,2013-02-22 21:09:00,
2013-02-22 16:10:00,42.5,25.8,30.29,East,94,0.0,0.0,51,0.00,,---,0.00,VWS V14.01,2013-02-22 21:10:00,
2013-02-22 16:11:00,42.5,25.7,30.29,East,94,0.0,0.0,51,0.00,,,0.00,VWS V14.01,2013-02-22 21:11:00,
2013-02-22 16:12:00,42.5,25.8,30.29,East,94,0.0,0.0,51,0.00,,,0.00,VWS V14.01,2013-02-22 21:12:00,
2013-02-22 16:13:00,42.5,25.8,30.29,East,94,0.0,0.0,51,0.00,,,0.00,VWS V14.01,2013-02-22 21:13:00,
2013-02-22 16:14:00,42.5,25.9,30.29,East,94,0.0,0.0,51,0.00,,,0.00,VWS V14.01,2013-02-22 21:14:00,
2013-02-22 16:15:00,42.5,25.8,30.29,East,94,0.0,0.0,51,0.00,,---,0.00,VWS V14.01,2013-02-22 21:15:00,
2013-02-22 16:16:00,42.4,25.7,30.29,East,94,0.0,0.0,51,0.00,,,0.00,VWS V14.01,2013-02-22 21:16:00,
2013-02-22 16:17:00,42.4,25.7,30.29,East,94,0.0,0.0,51,0.00,,,0.00,VWS V14.01,2013-02-22 21:17:00,
2013-02-22 16:18:00,42.4,25.7,30.29,East,94,0.0,0.0,51,0.00,,,0.00,VWS V14.01,2013-02-22 21:18:00,
2013-02-22 16:19:00,42.4,25.7,30.29,East,94,0.0,0.0,51,0.00,,,0.00,VWS V14.01,2013-02-22 21:19:00,
2013-02-22 16:20:00,42.3,25.8,30.29,East,94,0.0,0.0,52,0.00,,---,0.00,VWS V14.01,2013-02-22 21:20:00,
2013-02-22 16:21:00,42.3,25.7,30.29,East,94,0.0,0.0,52,0.00,,,0.00,VWS V14.01,2013-02-22 21:21:00,
2013-02-22 16:22:00,42.3,25.9,30.29,East,94,0.0,0.0,52,0.00,,,0.00,VWS V14.01,2013-02-22 21:22:00,
2013-02-22 16:23:00,42.2,25.9,30.29,SSE,153,0.0,6.6,52,0.00,,,0.00,VWS V14.01,2013-02-22 21:23:00,
2013-02-22 16:24:00,42.2,25.9,30.29,SSE,153,0.0,0.0,52,0.00,,,0.00,VWS V14.01,2013-02-22 21:24:00,
2013-02-22 16:25:00,42.2,25.8,30.29,SSE,153,0.0,0.0,52,0.00,,---,0.00,VWS V14.01,2013-02-22 21:25:00,
2013-02-22 16:26:00,42.2,26.0,30.29,SSE,153,0.0,0.0,52,0.00,,,0.00,VWS V14.01,2013-02-22 21:26:00,
2013-02-22 16:27:00,42.2,25.6,30.29,SSE,153,0.0,0.0,52,0.00,,,0.00,VWS V14.01,2013-02-22 21:27:00,
2013-02-22 16:28:00,42.1,25.7,30.29,SSE,153,0.0,0.0,52,0.00,,,0.00,VWS V14.01,2013-02-22 21:28:00,
2013-02-22 16:29:00,42.1,25.7,30.30,SSE,153,0.0,0.0,52,0.00,,,0.00,VWS V14.01,2013-02-22 21:29:00,
2013-02-22 16:30:00,42.0,25.8,30.30,SSE,153,0.0,0.0,52,0.00,,---,0.00,VWS V14.01,2013-02-22 21:30:00,
2013-02-22 16:31:00,42.0,25.8,30.30,SSE,153,0.0,0.0,52,0.00,,,0.00,VWS V14.01,2013-02-22 21:31:00,
2013-02-22 16:32:00,42.0,25.8,30.30,SSE,153,0.0,0.0,52,0.00,,,0.00,VWS V14.01,2013-02-22 21:32:00,
2013-02-22 16:33:00,41.9,25.8,30.30,SSE,153,0.0,0.0,52,0.00,,,0.00,VWS V14.01,2013-02-22 21:33:00,
2013-02-22 16:34:00,41.9,25.9,30.30,SSE,153,0.0,0.0,53,0.00,,,0.00,VWS V14.01,2013-02-22 21:34:00,
2013-02-22 16:35:00,41.8,25.9,30.30,SSE,153,0.0,0.0,53,0.00,,---,0.00,VWS V14.01,2013-02-22 21:35:00,
2013-02-22 16:36:00,41.8,25.8,30.30,SSE,153,0.0,0.0,53,0.00,,,0.00,VWS V14.01,2013-02-22 21:36:00,
2013-02-22 16:37:00,41.8,25.8,30.30,SSE,153,0.0,0.0,53,0.00,,,0.00,VWS V14.01,2013-02-22 21:37:00,
2013-02-22 16:38:00,41.7,25.8,30.30,SSE,153,0.0,0.0,53,0.00,,,0.00,VWS V14.01,2013-02-22 21:38:00,
2013-02-22 16:39:00,41.7,25.9,30.30,SSE,153,0.0,0.0,53,0.00,,,0.00,VWS V14.01,2013-02-22 21:39:00,
2013-02-22 16:40:00,41.6,26.2,30.30,SSE,153,0.0,0.0,54,0.00,,---,0.00,VWS V14.01,2013-02-22 21:40:00,
2013-02-22 16:41:00,41.6,26.1,30.30,SSE,153,0.0,0.0,54,0.00,,,0.00,VWS V14.01,2013-02-22 21:41:00,
2013-02-22 16:42:00,41.6,26.2,30.30,SSE,153,0.0,0.0,54,0.00,,,0.00,VWS V14.01,2013-02-22 21:42:00,
2013-02-22 16:43:00,41.6,26.1,30.30,SSE,153,0.0,0.0,54,0.00,,,0.00,VWS V14.01,2013-02-22 21:43:00,
2013-02-22 16:44:00,41.6,26.1,30.30,SSE,153,0.0,0.0,54,0.00,,,0.00,VWS V14.01,2013-02-22 21:44:00,
2013-02-22 16:45:00,41.4,26.1,30.30,SSE,153,0.0,0.0,54,0.00,,---,0.00,VWS V14.01,2013-02-22 21:45:00,
2013-02-22 16:46:00,41.4,26.1,30.30,SSE,153,0.0,0.0,54,0.00,,,0.00,VWS V14.01,2013-02-22 21:46:00,
2013-02-22 16:47:00,41.4,26.1,30.30,SSE,153,0.0,0.0,54,0.00,,,0.00,VWS V14.01,2013-02-22 21:47:00,
2013-02-22 16:48:00,41.4,26.1,30.30,SSE,153,0.0,0.0,54,0.00,,,0.00,VWS V14.01,2013-02-22 21:48:00,
2013-02-22 16:49:00,41.3,26.1,30.30,SSE,153,0.0,0.0,54,0.00,,,0.00,VWS V14.01,2013-02-22 21:49:00,
2013-02-22 16:50:00,41.3,26.2,30.30,SSE,153,0.0,0.0,55,0.00,,---,0.00,VWS V14.01,2013-02-22 21:50:00,
2013-02-22 16:51:00,41.3,26.3,30.30,SSE,153,0.0,0.0,55,0.00,,,0.00,VWS V14.01,2013-02-22 21:51:00,
2013-02-22 16:52:00,41.2,26.1,30.30,SSE,153,0.0,0.0,55,0.00,,,0.00,VWS V14.01,2013-02-22 21:52:00,
2013-02-22 16:53:00,41.2,26.3,30.29,SSE,166,0.0,8.8,55,0.00,,,0.00,VWS V14.01,2013-02-22 21:53:00,
2013-02-22 16:54:00,41.2,26.4,30.29,SSE,166,0.0,0.0,55,0.00,,,0.00,VWS V14.01,2013-02-22 21:54:00,
2013-02-22 16:55:00,41.1,26.3,30.30,SSE,166,0.0,0.0,55,0.00,,---,0.00,VWS V14.01,2013-02-22 21:55:00,
2013-02-22 16:56:00,41.1,26.4,30.30,SSE,166,0.0,0.0,55,0.00,,,0.00,VWS V14.01,2013-02-22 21:56:00,
2013-02-22 16:57:00,41.1,26.3,30.30,SSE,166,0.0,0.0,55,0.00,,,0.00,VWS V14.01,2013-02-22 21:57:00,
2013-02-22 16:58:00,41.0,26.3,30.30,SSE,166,0.0,0.0,55,0.00,,,0.00,VWS V14.01,2013-02-22 21:58:00,
2013-02-22 16:59:00,41.0,26.4,30.30,SSE,166,0.0,0.0,56,0.00,,,0.00,VWS V14.01,2013-02-22 21:59:00,
2013-02-22 17:00:00,40.9,26.6,30.29,SSE,166,0.0,0.0,56,0.00,,---,0.00,VWS V14.01,2013-02-22 22:00:00,
2013-02-22 17:01:00,41.0,26.6,30.30,SSE,166,0.0,0.0,56,0.00,,,0.00,VWS V14.01,2013-02-22 22:01:00,
2013-02-22 17:02:00,41.0,26.7,30.29,SSE,166,0.0,0.0,56,0.00,,,0.00,VWS V14.01,2013-02-22 22:02:00,
2013-02-22 17:03:00,40.9,26.6,30.29,ESE,104,0.0,4.7,56,0.00,,,0.00,VWS V14.01,2013-02-22 22:03:00,
2013-02-22 17:04:00,40.9,26.9,30.29,ESE,104,0.0,0.0,57,0.00,,,0.00,VWS V14.01,2013-02-22 22:04:00,
2013-02-22 17:05:00,40.9,27.0,30.29,ESE,121,4.4,5.9,57,0.00,,---,0.00,VWS V14.01,2013-02-22 22:05:00,
2013-02-22 17:06:00,40.9,26.9,30.29,ESE,104,0.0,0.0,57,0.00,,,0.00,VWS V14.01,2013-02-22 22:06:00,
2013-02-22 17:07:00,40.9,27.0,30.29,ESE,121,0.0,5.9,57,0.00,,,0.00,VWS V14.01,2013-02-22 22:07:00,
2013-02-22 17:08:00,40.9,26.8,30.29,ESE,121,0.0,0.0,57,0.00,,,0.00,VWS V14.01,2013-02-22 22:08:00,
2013-02-22 17:09:00,40.8,26.7,30.29,ESE,121,0.0,0.0,57,0.00,,,0.00,VWS V14.01,2013-02-22 22:09:00,
2013-02-22 17:10:00,40.6,26.6,30.29,ESE,121,0.0,0.0,57,0.00,,---,0.00,VWS V14.01,2013-02-22 22:10:00,
2013-02-22 17:11:00,40.7,26.7,30.29,ESE,121,0.0,0.0,57,0.00,,,0.00,VWS V14.01,2013-02-22 22:11:00,
2013-02-22 17:12:00,40.6,26.6,30.29,ESE,121,0.0,0.0,57,0.00,,,0.00,VWS V14.01,2013-02-22 22:12:00,
2013-02-22 17:13:00,40.5,26.6,30.30,ESE,121,0.0,0.0,57,0.00,,,0.00,VWS V14.01,2013-02-22 22:13:00,
2013-02-22 17:14:00,40.4,26.6,30.30,ESE,121,0.0,0.0,58,0.00,,,0.00,VWS V14.01,2013-02-22 22:14:00,
2013-02-22 17:15:00,40.3,26.6,30.30,ESE,121,0.0,0.0,58,0.00,,---,0.00,VWS V14.01,2013-02-22 22:15:00,
2013-02-22 17:16:00,40.3,26.6,30.30,ESE,121,0.0,0.0,58,0.00,,,0.00,VWS V14.01,2013-02-22 22:16:00,
2013-02-22 17:17:00,40.3,26.6,30.30,ESE,121,0.0,0.0,58,0.00,,,0.00,VWS V14.01,2013-02-22 22:17:00,
2013-02-22 17:18:00,40.3,26.7,30.30,ESE,121,0.0,0.0,58,0.00,,,0.00,VWS V14.01,2013-02-22 22:18:00,
2013-02-22 17:19:00,40.2,26.7,30.30,ESE,121,0.0,0.0,58,0.00,,,0.00,VWS V14.01,2013-02-22 22:19:00,
2013-02-22 17:20:00,40.0,26.5,30.31,ESE,121,0.0,0.0,58,0.00,,---,0.00,VWS V14.01,2013-02-22 22:20:00,
2013-02-22 17:21:00,40.0,26.5,30.31,ESE,121,0.0,0.0,58,0.00,,,0.00,VWS V14.01,2013-02-22 22:21:00,
2013-02-22 17:22:00,39.9,26.5,30.31,ESE,121,0.0,0.0,58,0.00,,,0.00,VWS V14.01,2013-02-22 22:22:00,
2013-02-22 17:23:00,39.8,26.6,30.31,ESE,121,0.0,0.0,59,0.00,,,0.00,VWS V14.01,2013-02-22 22:23:00,
2013-02-22 17:24:00,39.8,26.6,30.31,ESE,121,0.0,0.0,59,0.00,,,0.00,VWS V14.01,2013-02-22 22:24:00,
2013-02-22 17:25:00,39.6,26.9,30.31,ESE,121,0.0,0.0,60,0.00,,---,0.00,VWS V14.01,2013-02-22 22:25:00,
2013-02-22 17:26:00,39.6,26.7,30.31,ESE,121,0.0,0.0,60,0.00,,,0.00,VWS V14.01,2013-02-22 22:26:00,
2013-02-22 17:27:00,39.6,26.9,30.31,ESE,121,0.0,0.0,60,0.00,,,0.00,VWS V14.01,2013-02-22 22:27:00,
2013-02-22 17:28:00,39.6,26.8,30.31,ESE,121,0.0,0.0,60,0.00,,,0.00,VWS V14.01,2013-02-22 22:28:00,
2013-02-22 17:29:00,39.5,26.7,30.31,ESE,121,0.0,0.0,60,0.00,,,0.00,VWS V14.01,2013-02-22 22:29:00,
2013-02-22 17:30:00,39.4,26.6,30.31,ESE,121,0.0,0.0,60,0.00,,---,0.00,VWS V14.01,2013-02-22 22:30:00,
2013-02-22 17:31:00,39.5,26.7,30.31,ESE,121,0.0,0.0,60,0.00,,,0.00,VWS V14.01,2013-02-22 22:31:00,
2013-02-22 17:32:00,39.4,26.7,30.31,ESE,121,0.0,0.0,60,0.00,,,0.00,VWS V14.01,2013-02-22 22:32:00,
2013-02-22 17:33:00,39.4,26.6,30.31,ESE,121,0.0,0.0,60,0.00,,,0.00,VWS V14.01,2013-02-22 22:33:00,
2013-02-22 17:34:00,39.4,26.7,30.31,ESE,121,0.0,0.0,60,0.00,,,0.00,VWS V14.01,2013-02-22 22:34:00,
2013-02-22 17:35:00,39.2,26.7,30.31,ESE,121,0.0,0.0,61,0.00,,---,0.00,VWS V14.01,2013-02-22 22:35:00,
2013-02-22 17:36:00,39.2,26.7,30.31,ESE,121,0.0,0.0,60,0.00,,,0.00,VWS V14.01,2013-02-22 22:36:00,
2013-02-22 17:37:00,39.2,26.7,30.31,ESE,121,0.0,0.0,61,0.00,,,0.00,VWS V14.01,2013-02-22 22:37:00,
2013-02-22 17:38:00,39.2,26.7,30.31,ESE,121,0.0,0.0,61,0.00,,,0.00,VWS V14.01,2013-02-22 22:38:00,
2013-02-22 17:39:00,39.2,26.7,30.31,ESE,121,0.0,0.0,61,0.00,,,0.00,VWS V14.01,2013-02-22 22:39:00,
2013-02-22 17:40:00,39.1,26.8,30.31,ESE,121,0.0,0.0,61,0.00,,---,0.00,VWS V14.01,2013-02-22 22:40:00,
2013-02-22 17:41:00,39.1,26.8,30.31,ESE,121,0.0,0.0,61,0.00,,,0.00,VWS V14.01,2013-02-22 22:41:00,
2013-02-22 17:42:00,39.1,26.8,30.31,ESE,121,0.0,0.0,61,0.00,,,0.00,VWS V14.01,2013-02-22 22:42:00,
2013-02-22 17:43:00,39.0,26.7,30.31,ESE,121,0.0,0.0,61,0.00,,,0.00,VWS V14.01,2013-02-22 22:43:00,
2013-02-22 17:44:00,39.0,26.7,30.31,ESE,121,0.0,0.0,61,0.00,,,0.00,VWS V14.01,2013-02-22 22:44:00,
2013-02-22 17:45:00,38.9,26.8,30.31,ESE,121,0.0,0.0,61,0.00,,---,0.00,VWS V14.01,2013-02-22 22:45:00,
2013-02-22 17:46:00,39.0,26.8,30.31,ESE,121,0.0,0.0,61,0.00,,,0.00,VWS V14.01,2013-02-22 22:46:00,
2013-02-22 17:47:00,38.9,26.8,30.31,ESE,121,0.0,0.0,61,0.00,,,0.00,VWS V14.01,2013-02-22 22:47:00,
2013-02-22 17:48:00,39.0,26.9,30.31,ESE,121,0.0,0.0,62,0.00,,,0.00,VWS V14.01,2013-02-22 22:48:00,
2013-02-22 17:49:00,39.0,26.9,30.31,ESE,121,0.0,0.0,62,0.00,,,0.00,VWS V14.01,2013-02-22 22:49:00,
2013-02-22 17:50:00,39.0,26.9,30.31,ESE,121,0.0,0.0,62,0.00,,---,0.00,VWS V14.01,2013-02-22 22:50:00,
2013-02-22 17:51:00,39.0,26.9,30.31,ESE,121,0.0,0.0,62,0.00,,,0.00,VWS V14.01,2013-02-22 22:51:00,
2013-02-22 17:52:00,39.0,26.9,30.31,ESE,121,0.0,0.0,62,0.00,,,0.00,VWS V14.01,2013-02-22 22:52:00,
2013-02-22 17:53:00,38.9,26.9,30.31,ESE,121,0.0,0.0,62,0.00,,,0.00,VWS V14.01,2013-02-22 22:53:00,
2013-02-22 17:54:00,38.9,26.9,30.31,ESE,121,0.0,0.0,62,0.00,,,0.00,VWS V14.01,2013-02-22 22:54:00,
2013-02-22 17:55:00,38.9,26.9,30.31,ESE,121,0.0,0.0,62,0.00,,---,0.00,VWS V14.01,2013-02-22 22:55:00,
2013-02-22 17:56:00,38.9,26.9,30.31,ESE,121,0.0,0.0,62,0.00,,,0.00,VWS V14.01,2013-02-22 22:56:00,
2013-02-22 17:57:00,38.9,26.9,30.31,ESE,121,0.0,0.0,62,0.00,,,0.00,VWS V14.01,2013-02-22 22:57:00,
2013-02-22 17:58:00,38.9,26.9,30.31,ESE,121,0.0,0.0,62,0.00,,,0.00,VWS V14.01,2013-02-22 22:58:00,
2013-02-22 17:59:00,38.9,27.0,30.31,ESE,121,0.0,0.0,62,0.00,,,0.00,VWS V14.01,2013-02-22 22:59:00,
2013-02-22 18:00:00,38.8,27.0,30.31,ESE,121,0.0,0.0,62,0.00,,---,0.00,VWS V14.01,2013-02-22 23:00:00,
2013-02-22 18:01:00,38.8,26.9,30.31,ESE,121,0.0,0.0,62,0.00,,,0.00,VWS V14.01,2013-02-22 23:01:00,
2013-02-22 18:02:00,38.8,27.0,30.31,ESE,121,0.0,0.0,62,0.00,,,0.00,VWS V14.01,2013-02-22 23:02:00,
2013-02-22 18:03:00,38.8,27.0,30.31,ESE,121,0.0,0.0,62,0.00,,,0.00,VWS V14.01,2013-02-22 23:03:00,
2013-02-22 18:04:00,38.7,26.9,30.31,ESE,121,0.0,0.0,62,0.00,,,0.00,VWS V14.01,2013-02-22 23:04:00,
2013-02-22 18:05:00,38.8,27.1,30.31,ESE,121,0.0,0.0,62,0.00,,---,0.00,VWS V14.01,2013-02-22 23:05:00,
2013-02-22 18:06:00,38.8,27.1,30.31,ESE,121,0.0,0.0,62,0.00,,,0.00,VWS V14.01,2013-02-22 23:06:00,
2013-02-22 18:07:00,38.8,27.1,30.31,ESE,121,0.0,0.0,62,0.00,,,0.00,VWS V14.01,2013-02-22 23:07:00,
2013-02-22 18:08:00,38.7,27.0,30.31,ESE,121,0.0,0.0,62,0.00,,,0.00,VWS V14.01,2013-02-22 23:08:00,
2013-02-22 18:09:00,38.7,27.0,30.31,ESE,121,0.0,0.0,62,0.00,,,0.00,VWS V14.01,2013-02-22 23:09:00,
2013-02-22 18:10:00,38.7,27.0,30.30,ESE,121,0.0,0.0,63,0.00,,---,0.00,VWS V14.01,2013-02-22 23:10:00,
2013-02-22 18:11:00,38.7,27.0,30.31,ESE,121,0.0,0.0,63,0.00,,,0.00,VWS V14.01,2013-02-22 23:11:00,
2013-02-22 18:12:00,38.7,27.0,30.30,ESE,121,0.0,0.0,63,0.00,,,0.00,VWS V14.01,2013-02-22 23:12:00,
2013-02-22 18:13:00,38.7,27.0,30.31,ESE,121,0.0,0.0,63,0.00,,,0.00,VWS V14.01,2013-02-22 23:13:00,
2013-02-22 18:14:00,38.6,27.0,30.31,ESE,121,0.0,0.0,63,0.00,,,0.00,VWS V14.01,2013-02-22 23:14:00,
2013-02-22 18:15:00,38.6,27.1,30.31,ESE,121,0.0,0.0,63,0.00,,---,0.00,VWS V14.01,2013-02-22 23:15:00,
2013-02-22 18:16:00,38.7,27.1,30.31,ESE,121,0.0,0.0,63,0.00,,,0.00,VWS V14.01,2013-02-22 23:16:00,
2013-02-22 18:17:00,38.6,27.1,30.31,ESE,121,0.0,0.0,63,0.00,,,0.00,VWS V14.01,2013-02-22 23:17:00,
2013-02-22 18:18:00,38.6,27.1,30.31,ESE,121,0.0,0.0,63,0.00,,,0.00,VWS V14.01,2013-02-22 23:18:00,
2013-02-22 18:19:00,38.6,27.1,30.31,ESE,121,0.0,0.0,63,0.00,,,0.00,VWS V14.01,2013-02-22 23:19:00,
2013-02-22 18:20:00,38.6,27.1,30.30,ESE,121,0.0,0.0,63,0.00,,---,0.00,VWS V14.01,2013-02-22 23:20:00,
2013-02-22 18:21:00,38.6,27.1,30.31,ESE,121,0.0,0.0,63,0.00,,,0.00,VWS V14.01,2013-02-22 23:21:00,
2013-02-22 18:22:00,38.6,27.1,30.30,ESE,121,0.0,0.0,63,0.00,,,0.00,VWS V14.01,2013-02-22 23:22:00,
2013-02-22 18:23:00,38.6,27.1,30.30,ESE,121,0.0,0.0,63,0.00,,,0.00,VWS V14.01,2013-02-22 23:23:00,
2013-02-22 18:24:00,38.6,27.1,30.30,ESE,121,0.0,0.0,63,0.00,,,0.00,VWS V14.01,2013-02-22 23:24:00,
2013-02-22 18:25:00,38.5,27.2,30.30,ESE,121,0.0,0.0,64,0.00,,---,0.00,VWS V14.01,2013-02-22 23:25:00,
2013-02-22 18:26:00,38.6,27.3,30.30,ESE,121,0.0,0.0,63,0.00,,,0.00,VWS V14.01,2013-02-22 23:26:00,
2013-02-22 18:27:00,38.5,27.2,30.30,ESE,121,0.0,0.0,64,0.00,,,0.00,VWS V14.01,2013-02-22 23:27:00,
2013-02-22 18:28:00,38.5,27.3,30.30,ESE,121,0.0,0.0,64,0.00,,,0.00,VWS V14.01,2013-02-22 23:28:00,
2013-02-22 18:29:00,38.5,27.4,30.30,ESE,121,0.0,0.0,64,0.00,,,0.00,VWS V14.01,2013-02-22 23:29:00,
2013-02-22 18:30:00,38.5,27.3,30.30,ESE,121,0.0,0.0,64,0.00,,---,0.00,VWS V14.01,2013-02-22 23:30:00,
2013-02-22 18:31:00,38.5,27.3,30.30,ESE,121,0.0,0.0,64,0.00,,,0.00,VWS V14.01,2013-02-22 23:31:00,
2013-02-22 18:32:00,38.5,27.3,30.30,ESE,121,0.0,0.0,64,0.00,,,0.00,VWS V14.01,2013-02-22 23:32:00,
2013-02-22 18:33:00,38.5,27.3,30.30,ESE,121,0.0,0.0,64,0.00,,,0.00,VWS V14.01,2013-02-22 23:33:00,
2013-02-22 18:34:00,38.4,27.2,30.30,ESE,121,0.0,0.0,64,0.00,,,0.00,VWS V14.01,2013-02-22 23:34:00,
2013-02-22 18:35:00,38.3,27.3,30.30,ESE,121,0.0,0.0,64,0.00,,---,0.00,VWS V14.01,2013-02-22 23:35:00,
2013-02-22 18:36:00,38.3,27.3,30.30,ESE,121,0.0,0.0,64,0.00,,,0.00,VWS V14.01,2013-02-22 23:36:00,
2013-02-22 18:37:00,38.3,27.3,30.30,ESE,121,0.0,0.0,64,0.00,,,0.00,VWS V14.01,2013-02-22 23:37:00,
2013-02-22 18:38:00,38.3,27.4,30.30,ESE,121,0.0,0.0,64,0.00,,,0.00,VWS V14.01,2013-02-22 23:38:00,
2013-02-22 18:39:00,38.2,27.5,30.30,SSE,159,0.0,3.5,65,0.00,,,0.00,VWS V14.01,2013-02-22 23:39:00,
2013-02-22 18:40:00,38.2,27.6,30.31,SSE,156,0.0,6.1,65,0.00,,---,0.00,VWS V14.01,2013-02-22 23:40:00,
2013-02-22 18:41:00,38.2,27.5,30.30,SSE,162,0.0,6.1,65,0.00,,,0.00,VWS V14.01,2013-02-22 23:41:00,
2013-02-22 18:42:00,38.2,27.6,30.31,SSE,156,0.0,6.1,65,0.00,,,0.00,VWS V14.01,2013-02-22 23:42:00,
2013-02-22 18:43:00,38.2,27.6,30.31,SSE,156,0.0,0.0,65,0.00,,,0.00,VWS V14.01,2013-02-22 23:43:00,
2013-02-22 18:44:00,38.1,27.7,30.31,SSE,156,0.0,0.0,66,0.00,,,0.00,VWS V14.01,2013-02-22 23:44:00,
2013-02-22 18:45:00,38.1,27.7,30.31,SSE,156,0.0,0.0,66,0.00,,---,0.00,VWS V14.01,2013-02-22 23:45:00,
2013-02-22 18:46:00,38.1,27.6,30.31,SSE,156,0.0,0.0,66,0.00,,,0.00,VWS V14.01,2013-02-22 23:46:00,
2013-02-22 18:47:00,38.1,27.7,30.31,SSE,156,0.0,0.0,66,0.00,,,0.00,VWS V14.01,2013-02-22 23:47:00,
2013-02-22 18:48:00,38.1,27.7,30.31,SSE,156,0.0,0.0,66,0.00,,,0.00,VWS V14.01,2013-02-22 23:48:00,
2013-02-22 18:49:00,38.1,27.7,30.31,ESE,104,0.0,4.8,66,0.00,,,0.00,VWS V14.01,2013-02-22 23:49:00,
2013-02-22 18:50:00,38.1,27.8,30.31,ESE,104,0.0,0.0,66,0.00,,---,0.00,VWS V14.01,2013-02-22 23:50:00,
2013-02-22 18:51:00,38.1,27.7,30.31,ESE,104,0.0,0.0,66,0.00,,,0.00,VWS V14.01,2013-02-22 23:51:00,
2013-02-22 18:52:00,38.1,27.8,30.31,ESE,104,0.0,0.0,66,0.00,,,0.00,VWS V14.01,2013-02-22 23:52:00,
2013-02-22 18:53:00,38.0,27.8,30.31,ESE,104,0.0,0.0,66,0.00,,,0.00,VWS V14.01,2013-02-22 23:53:00,
2013-02-22 18:54:00,38.0,27.8,30.31,ESE,104,0.0,0.0,66,0.00,,,0.00,VWS V14.01,2013-02-22 23:54:00,
2013-02-22 18:55:00,38.0,28.0,30.31,ESE,104,0.0,0.0,67,0.00,,---,0.00,VWS V14.01,2013-02-22 23:55:00,
2013-02-22 18:56:00,38.0,27.9,30.31,ESE,104,0.0,0.0,67,0.00,,,0.00,VWS V14.01,2013-02-22 23:56:00,
2013-02-22 18:57:00,38.0,28.0,30.31,ESE,104,0.0,0.0,67,0.00,,,0.00,VWS V14.01,2013-02-22 23:57:00,
2013-02-22 18:58:00,37.9,27.9,30.31,ESE,104,0.0,0.0,67,0.00,,,0.00,VWS V14.01,2013-02-22 23:58:00,
2013-02-22 18:59:00,38.0,28.0,30.31,ESE,104,0.0,0.0,67,0.00,,,0.00,VWS V14.01,2013-02-22 23:59:00,
2013-02-22 19:00:00,37.9,28.0,30.31,ESE,104,0.0,0.0,67,0.00,,---,0.00,VWS V14.01,2013-02-23 00:00:00,
2013-02-22 19:01:00,37.9,27.9,30.31,ESE,104,0.0,0.0,67,0.00,,,0.00,VWS V14.01,2013-02-23 00:01:00,
2013-02-22 19:02:00,37.9,28.0,30.31,ESE,104,0.0,0.0,67,0.00,,,0.00,VWS V14.01,2013-02-23 00:02:00,
2013-02-22 19:03:00,37.9,28.0,30.31,ESE,104,0.0,0.0,67,0.00,,,0.00,VWS V14.01,2013-02-23 00:03:00,
2013-02-22 19:04:00,37.9,28.0,30.31,ESE,104,0.0,0.0,67,0.00,,,0.00,VWS V14.01,2013-02-23 00:04:00,
2013-02-22 19:05:00,37.8,28.1,30.31,ESE,104,0.0,0.0,68,0.00,,---,0.00,VWS V14.01,2013-02-23 00:05:00,
2013-02-22 19:06:00,37.8,28.0,30.31,ESE,104,0.0,0.0,67,0.00,,,0.00,VWS V14.01,2013-02-23 00:06:00,
2013-02-22 19:07:00,37.8,28.1,30.31,ESE,104,0.0,0.0,68,0.00,,,0.00,VWS V14.01,2013-02-23 00:07:00,
2013-02-22 19:08:00,37.8,28.1,30.30,ESE,104,0.0,0.0,68,0.00,,,0.00,VWS V14.01,2013-02-23 00:08:00,
2013-02-22 19:09:00,37.8,28.1,30.30,ESE,104,0.0,0.0,68,0.00,,,0.00,VWS V14.01,2013-02-23 00:09:00,
2013-02-22 19:10:00,37.8,28.1,30.31,ESE,104,0.0,0.0,68,0.00,,---,0.00,VWS V14.01,2013-02-23 00:10:00,
2013-02-22 19:11:00,37.8,28.1,30.31,ESE,104,0.0,0.0,68,0.00,,,0.00,VWS V14.01,2013-02-23 00:11:00,
2013-02-22 19:12:00,37.8,28.1,30.31,ESE,104,0.0,0.0,68,0.00,,,0.00,VWS V14.01,2013-02-23 00:12:00,
2013-02-22 19:13:00,37.8,28.1,30.31,ESE,104,0.0,0.0,68,0.00,,,0.00,VWS V14.01,2013-02-23 00:13:00,
2013-02-22 19:14:00,37.7,28.0,30.31,ESE,104,0.0,0.0,68,0.00,,,0.00,VWS V14.01,2013-02-23 00:14:00,
2013-02-22 19:15:00,37.7,28.2,30.31,ESE,104,0.0,0.0,68,0.00,,---,0.00,VWS V14.01,2013-02-23 00:15:00,
2013-02-22 19:16:00,37.7,28.1,30.31,ESE,104,0.0,0.0,68,0.00,,,0.00,VWS V14.01,2013-02-23 00:16:00,
2013-02-22 19:17:00,37.7,28.2,30.31,ESE,104,0.0,0.0,68,0.00,,,0.00,VWS V14.01,2013-02-23 00:17:00,
2013-02-22 19:18:00,37.7,28.2,30.31,ESE,104,0.0,0.0,68,0.00,,,0.00,VWS V14.01,2013-02-23 00:18:00,
2013-02-22 19:19:00,37.7,28.2,30.31,ESE,104,0.0,0.0,68,0.00,,,0.00,VWS V14.01,2013-02-23 00:19:00,
2013-02-22 19:20:00,37.7,28.2,30.30,ESE,104,0.0,0.0,68,0.00,,---,0.00,VWS V14.01,2013-02-23 00:20:00,
2013-02-22 19:21:00,37.7,28.3,30.30,ESE,104,0.0,0.0,68,0.00,,,0.00,VWS V14.01,2013-02-23 00:21:00,
2013-02-22 19:22:00,37.7,28.2,30.30,ESE,104,0.0,0.0,68,0.00,,,0.00,VWS V14.01,2013-02-23 00:22:00,
2013-02-22 19:23:00,37.7,28.2,30.30,ESE,104,0.0,0.0,68,0.00,,,0.00,VWS V14.01,2013-02-23 00:23:00,
2013-02-22 19:24:00,37.7,28.3,30.30,ESE,104,0.0,0.0,69,0.00,,,0.00,VWS V14.01,2013-02-23 00:24:00,
2013-02-22 19:25:00,37.6,28.3,30.30,ESE,104,0.0,0.0,69,0.00,,---,0.00,VWS V14.01,2013-02-23 00:25:00,
2013-02-22 19:26:00,37.7,28.3,30.30,ESE,104,0.0,0.0,69,0.00,,,0.00,VWS V14.01,2013-02-23 00:26:00,
2013-02-22 19:27:00,37.6,28.3,30.30,ESE,104,0.0,0.0,69,0.00,,,0.00,VWS V14.01,2013-02-23 00:27:00,
2013-02-22 19:28:00,37.6,28.3,30.30,ESE,104,0.0,0.0,69,0.00,,,0.00,VWS V14.01,2013-02-23 00:28:00,
2013-02-22 19:29:00,37.6,28.4,30.30,ESE,104,0.0,0.0,69,0.00,,,0.00,VWS V14.01,2013-02-23 00:29:00,
2013-02-22 19:30:00,37.5,28.3,30.29,ESE,104,0.0,0.0,69,0.00,,---,0.00,VWS V14.01,2013-02-23 00:30:00,
2013-02-22 19:31:00,37.6,28.4,30.30,ESE,104,0.0,0.0,69,0.00,,,0.00,VWS V14.01,2013-02-23 00:31:00,
2013-02-22 19:32:00,37.5,28.3,30.29,ESE,104,0.0,0.0,69,0.00,,,0.00,VWS V14.01,2013-02-23 00:32:00,
2013-02-22 19:33:00,37.6,28.4,30.29,ESE,104,0.0,0.0,69,0.00,,,0.00,VWS V14.01,2013-02-23 00:33:00,
2013-02-22 19:34:00,37.5,28.3,30.29,ESE,104,0.0,0.0,69,0.00,,,0.00,VWS V14.01,2013-02-23 00:34:00,
2013-02-22 19:35:00,37.5,28.4,30.29,ESE,104,0.0,0.0,69,0.00,,---,0.00,VWS V14.01,2013-02-23 00:35:00,
2013-02-22 19:36:00,37.5,28.4,30.29,ESE,104,0.0,0.0,69,0.00,,,0.00,VWS V14.01,2013-02-23 00:36:00,
2013-02-22 19:37:00,37.5,28.4,30.29,ESE,104,0.0,0.0,69,0.00,,,0.00,VWS V14.01,2013-02-23 00:37:00,
2013-02-22 19:38:00,37.6,28.5,30.29,ESE,104,0.0,0.0,69,0.00,,,0.00,VWS V14.01,2013-02-23 00:38:00,
2013-02-22 19:39:00,37.6,28.5,30.29,ESE,104,0.0,0.0,69,0.00,,,0.00,VWS V14.01,2013-02-23 00:39:00,
2013-02-22 19:40:00,37.6,28.5,30.29,ESE,104,0.0,0.0,69,0.00,,---,0.00,VWS V14.01,2013-02-23 00:40:00,
2013-02-22 19:41:00,37.6,28.5,30.29,ESE,104,0.0,0.0,69,0.00,,,0.00,VWS V14.01,2013-02-23 00:41:00,
2013-02-22 19:42:00,37.6,28.5,30.29,ESE,104,0.0,0.0,69,0.00,,,0.00,VWS V14.01,2013-02-23 00:42:00,
2013-02-22 19:43:00,37.6,28.4,30.29,ESE,104,0.0,0.0,69,0.00,,,0.00,VWS V14.01,2013-02-23 00:43:00,
2013-02-22 19:44:00,37.6,28.4,30.29,ESE,104,0.0,0.0,69,0.00,,,0.00,VWS V14.01,2013-02-23 00:44:00,
2013-02-22 19:45:00,37.6,28.5,30.29,ESE,104,0.0,0.0,69,0.00,,---,0.00,VWS V14.01,2013-02-23 00:45:00,
2013-02-22 19:46:00,37.6,28.5,30.29,ESE,104,0.0,0.0,69,0.00,,,0.00,VWS V14.01,2013-02-23 00:46:00,
2013-02-22 19:47:00,37.6,28.5,30.29,ESE,104,0.0,0.0,69,0.00,,,0.00,VWS V14.01,2013-02-23 00:47:00,
2013-02-22 19:48:00,37.5,28.4,30.29,ESE,104,0.0,0.0,69,0.00,,,0.00,VWS V14.01,2013-02-23 00:48:00,
2013-02-22 19:49:00,37.6,28.5,30.29,ESE,104,0.0,0.0,70,0.00,,,0.00,VWS V14.01,2013-02-23 00:49:00,
2013-02-22 19:50:00,37.5,28.5,30.30,ESE,104,0.0,0.0,70,0.00,,---,0.00,VWS V14.01,2013-02-23 00:50:00,
2013-02-22 19:51:00,37.5,28.4,30.30,ESE,104,0.0,0.0,69,0.00,,,0.00,VWS V14.01,2013-02-23 00:51:00,
2013-02-22 19:52:00,37.5,28.5,30.30,ESE,104,0.0,0.0,70,0.00,,,0.00,VWS V14.01,2013-02-23 00:52:00,
2013-02-22 19:53:00,37.4,28.4,30.30,ESE,104,0.0,0.0,70,0.00,,,0.00,VWS V14.01,2013-02-23 00:53:00,
2013-02-22 19:54:00,37.5,28.5,30.29,ESE,104,0.0,0.0,70,0.00,,,0.00,VWS V14.01,2013-02-23 00:54:00,
2013-02-22 19:55:00,37.4,28.4,30.30,ESE,104,0.0,0.0,70,0.00,,---,0.00,VWS V14.01,2013-02-23 00:55:00,
2013-02-22 19:56:00,37.5,28.5,30.29,ESE,104,0.0,0.0,70,0.00,,,0.00,VWS V14.01,2013-02-23 00:56:00,
2013-02-22 19:57:00,37.4,28.4,30.30,ESE,104,0.0,0.0,70,0.00,,,0.00,VWS V14.01,2013-02-23 00:57:00,
2013-02-22 19:58:00,37.4,28.4,30.30,ESE,104,0.0,0.0,70,0.00,,,0.00,VWS V14.01,2013-02-23 00:58:00,
2013-02-22 19:59:00,37.5,28.5,30.30,ESE,104,0.0,0.0,70,0.00,,,0.00,VWS V14.01,2013-02-23 00:59:00,
2013-02-22 20:00:00,37.4,28.5,30.30,ESE,104,0.0,0.0,70,0.00,,---,0.00,VWS V14.01,2013-02-23 01:00:00,
2013-02-22 20:01:00,37.4,28.5,30.30,ESE,104,0.0,0.0,70,0.00,,,0.00,VWS V14.01,2013-02-23 01:01:00,
2013-02-22 20:02:00,37.4,28.5,30.30,ESE,104,0.0,0.0,70,0.00,,,0.00,VWS V14.01,2013-02-23 01:02:00,
2013-02-22 20:03:00,37.4,28.5,30.30,ESE,104,0.0,0.0,70,0.00,,,0.00,VWS V14.01,2013-02-23 01:03:00,
2013-02-22 20:04:00,37.4,28.5,30.30,ESE,104,0.0,0.0,70,0.00,,,0.00,VWS V14.01,2013-02-23 01:04:00,
2013-02-22 20:05:00,37.4,28.6,30.30,ESE,104,0.0,0.0,70,0.00,,---,0.00,VWS V14.01,2013-02-23 01:05:00,
2013-02-22 20:06:00,37.4,28.5,30.30,ESE,104,0.0,0.0,70,0.00,,,0.00,VWS V14.01,2013-02-23 01:06:00,
2013-02-22 20:07:00,37.4,28.6,30.30,ESE,104,0.0,0.0,70,0.00,,,0.00,VWS V14.01,2013-02-23 01:07:00,
2013-02-22 20:08:00,37.4,28.6,30.30,ESE,104,0.0,0.0,70,0.00,,,0.00,VWS V14.01,2013-02-23 01:08:00,
2013-02-22 20:09:00,37.4,28.6,30.30,ESE,104,0.0,0.0,70,0.00,,,0.00,VWS V14.01,2013-02-23 01:09:00,
2013-02-22 20:10:00,37.4,28.6,30.30,ESE,104,0.0,0.0,70,0.00,,---,0.00,VWS V14.01,2013-02-23 01:10:00,
2013-02-22 20:11:00,37.4,28.6,30.30,ESE,104,0.0,0.0,70,0.00,,,0.00,VWS V14.01,2013-02-23 01:11:00,
2013-02-22 20:12:00,37.4,28.6,30.30,ESE,104,0.0,0.0,70,0.00,,,0.00,VWS V14.01,2013-02-23 01:12:00,
2013-02-22 20:13:00,37.4,28.6,30.30,ESE,104,0.0,0.0,70,0.00,,,0.00,VWS V14.01,2013-02-23 01:13:00,
2013-02-22 20:14:00,37.4,28.6,30.30,ESE,104,0.0,0.0,70,0.00,,,0.00,VWS V14.01,2013-02-23 01:14:00,
2013-02-22 20:15:00,37.3,28.6,30.30,ESE,104,0.0,0.0,70,0.00,,---,0.00,VWS V14.01,2013-02-23 01:15:00,
2013-02-22 20:16:00,37.3,28.6,30.30,ESE,104,0.0,0.0,70,0.00,,,0.00,VWS V14.01,2013-02-23 01:16:00,
2013-02-22 20:17:00,37.3,28.6,30.30,ESE,104,0.0,0.0,70,0.00,,,0.00,VWS V14.01,2013-02-23 01:17:00,
2013-02-22 20:18:00,37.3,28.6,30.30,ESE,104,0.0,0.0,70,0.00,,,0.00,VWS V14.01,2013-02-23 01:18:00,
2013-02-22 20:19:00,37.3,28.6,30.30,ESE,104,0.0,0.0,70,0.00,,,0.00,VWS V14.01,2013-02-23 01:19:00,
2013-02-22 20:20:00,37.3,28.7,30.30,ESE,104,0.0,0.0,71,0.00,,---,0.00,VWS V14.01,2013-02-23 01:20:00,
2013-02-22 20:21:00,37.3,28.7,30.29,ESE,104,0.0,0.0,71,0.00,,,0.00,VWS V14.01,2013-02-23 01:21:00,
2013-02-22 20:22:00,37.3,28.7,30.30,ESE,104,0.0,0.0,71,0.00,,,0.00,VWS V14.01,2013-02-23 01:22:00,
2013-02-22 20:23:00,37.3,28.7,30.29,ESE,104,0.0,0.0,71,0.00,,,0.00,VWS V14.01,2013-02-23 01:23:00,
2013-02-22 20:24:00,37.3,28.7,30.29,ESE,104,0.0,0.0,71,0.00,,,0.00,VWS V14.01,2013-02-23 01:24:00,
2013-02-22 20:25:00,37.2,28.8,30.29,ENE,68,0.0,0.0,71,0.00,,---,0.00,VWS V14.01,2013-02-23 01:25:00,
2013-02-22 20:26:00,37.2,28.6,30.29,ENE,68,0.0,3.3,71,0.00,,,0.00,VWS V14.01,2013-02-23 01:26:00,
2013-02-22 20:27:00,37.2,28.8,30.29,ENE,68,0.0,0.0,71,0.00,,,0.00,VWS V14.01,2013-02-23 01:27:00,
2013-02-22 20:28:00,37.2,28.9,30.29,ENE,68,0.0,0.0,72,0.00,,,0.00,VWS V14.01,2013-02-23 01:28:00,
2013-02-22 20:29:00,37.2,28.8,30.29,ENE,68,0.0,0.0,71,0.00,,,0.00,VWS V14.01,2013-02-23 01:29:00,
2013-02-22 20:30:00,37.2,28.9,30.29,ENE,68,0.0,0.0,72,0.00,,---,0.00,VWS V14.01,2013-02-23 01:30:00,
2013-02-22 20:31:00,37.2,28.8,30.29,ENE,68,0.0,0.0,71,0.00,,,0.00,VWS V14.01,2013-02-23 01:31:00,
2013-02-22 20:32:00,37.2,28.9,30.29,ENE,68,0.0,0.0,72,0.00,,,0.00,VWS V14.01,2013-02-23 01:32:00,
2013-02-22 20:33:00,37.2,28.9,30.30,ENE,68,0.0,0.0,72,0.00,,,0.00,VWS V14.01,2013-02-23 01:33:00,
2013-02-22 20:34:00,37.2,28.9,30.30,ENE,68,0.0,0.0,72,0.00,,,0.00,VWS V14.01,2013-02-23 01:34:00,
2013-02-22 20:35:00,37.1,28.9,30.30,ENE,68,0.0,0.0,72,0.00,,---,0.00,VWS V14.01,2013-02-23 01:35:00,
2013-02-22 20:36:00,37.1,28.8,30.30,ENE,68,0.0,0.0,72,0.00,,,0.00,VWS V14.01,2013-02-23 01:36:00,
2013-02-22 20:37:00,37.1,28.9,30.30,ENE,68,0.0,0.0,72,0.00,,,0.00,VWS V14.01,2013-02-23 01:37:00,
2013-02-22 20:38:00,37.1,28.9,30.30,ENE,68,0.0,0.0,72,0.00,,,0.00,VWS V14.01,2013-02-23 01:38:00,
2013-02-22 20:39:00,37.1,28.9,30.30,ENE,68,0.0,0.0,72,0.00,,,0.00,VWS V14.01,2013-02-23 01:39:00,
2013-02-22 20:40:00,37.1,28.9,30.29,ENE,68,0.0,0.0,72,0.00,,---,0.00,VWS V14.01,2013-02-23 01:40:00,
2013-02-22 20:41:00,37.1,28.8,30.29,ENE,68,0.0,0.0,72,0.00,,,0.00,VWS V14.01,2013-02-23 01:41:00,
2013-02-22 20:42:00,37.1,28.9,30.29,ENE,68,0.0,0.0,72,0.00,,,0.00,VWS V14.01,2013-02-23 01:42:00,
2013-02-22 20:43:00,37.1,28.9,30.30,ENE,68,0.0,0.0,72,0.00,,,0.00,VWS V14.01,2013-02-23 01:43:00,
2013-02-22 20:44:00,37.1,28.9,30.30,ENE,68,0.0,0.0,72,0.00,,,0.00,VWS V14.01,2013-02-23 01:44:00,
2013-02-22 20:45:00,37.1,28.9,30.29,ENE,68,0.0,0.0,72,0.00,,---,0.00,VWS V14.01,2013-02-23 01:45:00,
2013-02-22 20:46:00,37.1,28.9,30.29,ENE,68,0.0,0.0,72,0.00,,,0.00,VWS V14.01,2013-02-23 01:46:00,
2013-02-22 20:47:00,37.1,28.9,30.29,ENE,68,0.0,0.0,72,0.00,,,0.00,VWS V14.01,2013-02-23 01:47:00,
2013-02-22 20:48:00,37.1,28.9,30.29,ENE,68,0.0,0.0,72,0.00,,,0.00,VWS V14.01,2013-02-23 01:48:00,
2013-02-22 20:49:00,37.2,29.0,30.30,ENE,68,0.0,0.0,72,0.00,,,0.00,VWS V14.01,2013-02-23 01:49:00,
2013-02-22 20:50:00,37.2,29.0,30.29,ENE,68,0.0,0.0,72,0.00,,---,0.00,VWS V14.01,2013-02-23 01:50:00,
2013-02-22 20:51:00,37.2,29.0,30.29,ENE,68,0.0,0.0,72,0.00,,,0.00,VWS V14.01,2013-02-23 01:51:00,
2013-02-22 20:52:00,37.2,29.0,30.29,ENE,68,0.0,0.0,72,0.00,,,0.00,VWS V14.01,2013-02-23 01:52:00,
2013-02-22 20:53:00,37.2,29.0,30.29,ENE,68,0.0,0.0,72,0.00,,,0.00,VWS V14.01,2013-02-23 01:53:00,
2013-02-22 20:54:00,37.1,29.0,30.30,ENE,68,0.0,0.0,72,0.00,,,0.00,VWS V14.01,2013-02-23 01:54:00,
2013-02-22 20:55:00,37.2,29.1,30.29,ENE,68,0.0,0.0,72,0.00,,---,0.00,VWS V14.01,2013-02-23 01:55:00,
2013-02-22 20:56:00,37.1,29.0,30.29,ENE,68,0.0,0.0,72,0.00,,,0.00,VWS V14.01,2013-02-23 01:56:00,
2013-02-22 20:57:00,37.2,29.1,30.29,ENE,68,0.0,0.0,72,0.00,,,0.00,VWS V14.01,2013-02-23 01:57:00,
2013-02-22 20:58:00,37.1,29.0,30.29,ENE,68,0.0,0.0,72,0.00,,,0.00,VWS V14.01,2013-02-23 01:58:00,
2013-02-22 20:59:00,37.1,29.0,30.29,ENE,68,0.0,0.0,72,0.00,,,0.00,VWS V14.01,2013-02-23 01:59:00,
2013-02-22 21:00:00,37.1,29.1,30.29,ENE,68,0.0,0.0,72,0.00,,---,0.00,VWS V14.01,2013-02-23 02:00:00,
2013-02-22 21:01:00,37.1,29.0,30.29,ENE,68,0.0,0.0,72,0.00,,,0.00,VWS V14.01,2013-02-23 02:01:00,
2013-02-22 21:02:00,37.1,29.1,30.29,ENE,68,0.0,0.0,72,0.00,,,0.00,VWS V14.01,2013-02-23 02:02:00,
2013-02-22 21:03:00,37.1,29.1,30.29,ENE,68,0.0,0.0,72,0.00,,,0.00,VWS V14.01,2013-02-23 02:03:00,
2013-02-22 21:04:00,37.2,29.2,30.29,ENE,68,0.0,0.0,72,0.00,,,0.00,VWS V14.01,2013-02-23 02:04:00,
2013-02-22 21:05:00,37.1,29.5,30.30,ENE,68,0.0,0.0,74,0.00,,---,0.00,VWS V14.01,2013-02-23 02:05:00,
2013-02-22 21:06:00,37.2,29.4,30.30,ENE,68,0.0,0.0,73,0.00,,,0.00,VWS V14.01,2013-02-23 02:06:00,
2013-02-22 21:07:00,37.1,29.5,30.30,ENE,68,0.0,0.0,74,0.00,,,0.00,VWS V14.01,2013-02-23 02:07:00,
2013-02-22 21:08:00,37.0,29.5,30.30,ENE,68,0.0,0.0,74,0.00,,,0.00,VWS V14.01,2013-02-23 02:08:00,
2013-02-22 21:09:00,37.0,29.4,30.30,ENE,68,0.0,0.0,74,0.00,,,0.00,VWS V14.01,2013-02-23 02:09:00,
2013-02-22 21:10:00,36.9,29.4,30.30,ENE,68,0.0,0.0,74,0.00,,---,0.00,VWS V14.01,2013-02-23 02:10:00,
2013-02-22 21:11:00,36.9,29.3,30.30,ENE,68,0.0,0.0,74,0.00,,,0.00,VWS V14.01,2013-02-23 02:11:00,
2013-02-22 21:12:00,36.9,29.4,30.30,ENE,68,0.0,0.0,74,0.00,,,0.00,VWS V14.01,2013-02-23 02:12:00,
2013-02-22 21:13:00,36.9,29.4,30.30,ENE,68,0.0,0.0,74,0.00,,,0.00,VWS V14.01,2013-02-23 02:13:00,
2013-02-22 21:14:00,37.0,29.5,30.29,ENE,68,0.0,0.0,74,0.00,,,0.00,VWS V14.01,2013-02-23 02:14:00,
2013-02-22 21:15:00,37.0,29.5,30.30,ENE,68,0.0,0.0,74,0.00,,---,0.00,VWS V14.01,2013-02-23 02:15:00,
2013-02-22 21:16:00,36.9,29.4,30.29,ENE,68,0.0,0.0,74,0.00,,,0.00,VWS V14.01,2013-02-23 02:16:00,
2013-02-22 21:17:00,37.0,29.5,30.30,ENE,68,0.0,0.0,74,0.00,,,0.00,VWS V14.01,2013-02-23 02:17:00,
2013-02-22 21:18:00,37.0,29.5,30.30,ENE,68,0.0,0.0,74,0.00,,,0.00,VWS V14.01,2013-02-23 02:18:00,
2013-02-22 21:19:00,37.0,29.6,30.30,ENE,68,0.0,0.0,74,0.00,,,0.00,VWS V14.01,2013-02-23 02:19:00,
2013-02-22 21:20:00,37.0,29.6,30.30,ENE,68,0.0,0.0,74,0.00,,---,0.00,VWS V14.01,2013-02-23 02:20:00,
2013-02-22 21:21:00,37.0,29.6,30.30,ENE,68,0.0,0.0,74,0.00,,,0.00,VWS V14.01,2013-02-23 02:21:00,
2013-02-22 21:22:00,37.0,29.6,30.30,ENE,68,0.0,0.0,74,0.00,,,0.00,VWS V14.01,2013-02-23 02:22:00,
2013-02-22 21:23:00,37.0,29.5,30.29,ENE,68,0.0,0.0,74,0.00,,,0.00,VWS V14.01,2013-02-23 02:23:00,
2013-02-22 21:24:00,37.0,29.5,30.29,ENE,68,0.0,0.0,74,0.00,,,0.00,VWS V14.01,2013-02-23 02:24:00,
2013-02-22 21:25:00,37.1,29.6,30.29,ENE,68,0.0,0.0,74,0.00,,---,0.00,VWS V14.01,2013-02-23 02:25:00,
2013-02-22 21:26:00,37.1,29.6,30.29,ENE,68,0.0,0.0,74,0.00,,,0.00,VWS V14.01,2013-02-23 02:26:00,
2013-02-22 21:27:00,37.1,29.6,30.29,ENE,68,0.0,0.0,74,0.00,,,0.00,VWS V14.01,2013-02-23 02:27:00,
2013-02-22 21:28:00,37.1,29.6,30.29,ENE,68,0.0,0.0,74,0.00,,,0.00,VWS V14.01,2013-02-23 02:28:00,
2013-02-22 21:29:00,37.0,29.5,30.29,ENE,68,0.0,0.0,74,0.00,,,0.00,VWS V14.01,2013-02-23 02:29:00,
2013-02-22 21:30:00,37.0,29.7,30.29,ENE,68,0.0,0.0,75,0.00,,---,0.00,VWS V14.01,2013-02-23 02:30:00,
2013-02-22 21:31:00,37.1,29.8,30.29,ENE,68,0.0,0.0,75,0.00,,,0.00,VWS V14.01,2013-02-23 02:31:00,
2013-02-22 21:32:00,37.0,29.7,30.29,ENE,68,0.0,0.0,75,0.00,,,0.00,VWS V14.01,2013-02-23 02:32:00,
2013-02-22 21:33:00,37.0,29.7,30.29,ENE,68,0.0,0.0,75,0.00,,,0.00,VWS V14.01,2013-02-23 02:33:00,
2013-02-22 21:34:00,37.0,29.7,30.29,ENE,68,0.0,0.0,75,0.00,,,0.00,VWS V14.01,2013-02-23 02:34:00,
2013-02-22 21:35:00,37.0,29.7,30.29,ENE,68,0.0,0.0,75,0.00,,---,0.00,VWS V14.01,2013-02-23 02:35:00,
2013-02-22 21:36:00,37.0,29.7,30.29,ENE,68,0.0,0.0,74,0.00,,,0.00,VWS V14.01,2013-02-23 02:36:00,
2013-02-22 21:37:00,37.0,29.7,30.29,ENE,68,0.0,0.0,75,0.00,,,0.00,VWS V14.01,2013-02-23 02:37:00,
2013-02-22 21:38:00,37.0,29.7,30.29,ENE,68,0.0,0.0,75,0.00,,,0.00,VWS V14.01,2013-02-23 02:38:00,
2013-02-22 21:39:00,37.0,29.7,30.29,ENE,68,0.0,0.0,75,0.00,,,0.00,VWS V14.01,2013-02-23 02:39:00,
2013-02-22 21:40:00,37.0,29.7,30.29,ENE,68,0.0,0.0,75,0.00,,---,0.00,VWS V14.01,2013-02-23 02:40:00,
2013-02-22 21:41:00,37.0,29.7,30.29,ENE,68,0.0,0.0,75,0.00,,,0.00,VWS V14.01,2013-02-23 02:41:00,
2013-02-22 21:42:00,37.0,29.7,30.29,ENE,68,0.0,0.0,75,0.00,,,0.00,VWS V14.01,2013-02-23 02:42:00,
2013-02-22 21:43:00,37.0,29.7,30.29,ENE,68,0.0,0.0,75,0.00,,,0.00,VWS V14.01,2013-02-23 02:43:00,
2013-02-22 21:44:00,37.0,29.7,30.28,ENE,68,0.0,0.0,75,0.00,,,0.00,VWS V14.01,2013-02-23 02:44:00,
2013-02-22 21:45:00,37.1,29.9,30.29,ENE,68,0.0,0.0,75,0.00,,---,0.00,VWS V14.01,2013-02-23 02:45:00,
2013-02-22 21:46:00,37.0,29.8,30.29,ENE,68,0.0,0.0,75,0.00,,,0.00,VWS V14.01,2013-02-23 02:46:00,
2013-02-22 21:47:00,37.1,29.9,30.29,ENE,68,0.0,0.0,75,0.00,,,0.00,VWS V14.01,2013-02-23 02:47:00,
2013-02-22 21:48:00,37.1,29.9,30.28,ENE,68,0.0,0.0,75,0.00,,,0.00,VWS V14.01,2013-02-23 02:48:00,
2013-02-22 21:49:00,37.1,29.9,30.28,ENE,68,0.0,0.0,75,0.00,,,0.00,VWS V14.01,2013-02-23 02:49:00,
2013-02-22 21:50:00,37.1,29.9,30.28,ENE,68,0.0,0.0,75,0.00,,---,0.00,VWS V14.01,2013-02-23 02:50:00,
2013-02-22 21:51:00,37.1,29.9,30.28,ENE,68,0.0,0.0,75,0.00,,,0.00,VWS V14.01,2013-02-23 02:51:00,
2013-02-22 21:52:00,37.1,29.9,30.28,ENE,68,0.0,0.0,75,0.00,,,0.00,VWS V14.01,2013-02-23 02:52:00,
2013-02-22 21:53:00,37.1,29.9,30.28,ENE,68,0.0,0.0,75,0.00,,,0.00,VWS V14.01,2013-02-23 02:53:00,
2013-02-22 21:54:00,37.1,29.9,30.28,ENE,68,0.0,0.0,75,0.00,,,0.00,VWS V14.01,2013-02-23 02:54:00,
2013-02-22 21:55:00,37.1,29.9,30.28,ENE,68,0.0,0.0,75,0.00,,---,0.00,VWS V14.01,2013-02-23 02:55:00,
2013-02-22 21:56:00,37.1,29.9,30.28,ENE,68,0.0,0.0,75,0.00,,,0.00,VWS V14.01,2013-02-23 02:56:00,
2013-02-22 21:57:00,37.1,29.9,30.28,ENE,68,0.0,0.0,75,0.00,,,0.00,VWS V14.01,2013-02-23 02:57:00,
2013-02-22 21:58:00,37.1,29.9,30.28,ENE,68,0.0,0.0,75,0.00,,,0.00,VWS V14.01,2013-02-23 02:58:00,
2013-02-22 21:59:00,37.1,29.9,30.28,ENE,68,0.0,0.0,75,0.00,,,0.00,VWS V14.01,2013-02-23 02:59:00,
2013-02-22 22:00:00,37.1,29.9,30.28,ENE,68,0.0,0.0,75,0.00,,---,0.00,VWS V14.01,2013-02-23 03:00:00,
2013-02-22 22:01:00,37.1,29.9,30.28,ENE,68,0.0,0.0,75,0.00,,,0.00,VWS V14.01,2013-02-23 03:01:00,
2013-02-22 22:02:00,37.1,29.9,30.28,ENE,68,0.0,0.0,75,0.00,,,0.00,VWS V14.01,2013-02-23 03:02:00,
2013-02-22 22:03:00,37.1,29.9,30.28,ENE,68,0.0,0.0,75,0.00,,,0.00,VWS V14.01,2013-02-23 03:03:00,
2013-02-22 22:04:00,37.1,29.9,30.28,ENE,68,0.0,0.0,75,0.00,,,0.00,VWS V14.01,2013-02-23 03:04:00,
2013-02-22 22:05:00,37.1,30.0,30.28,ENE,68,0.0,0.0,75,0.00,,---,0.00,VWS V14.01,2013-02-23 03:05:00,
2013-02-22 22:06:00,37.1,30.0,30.28,ENE,68,0.0,0.0,75,0.00,,,0.00,VWS V14.01,2013-02-23 03:06:00,
2013-02-22 22:07:00,37.1,30.0,30.28,ENE,68,0.0,0.0,75,0.00,,,0.00,VWS V14.01,2013-02-23 03:07:00,
2013-02-22 22:08:00,37.1,30.0,30.28,ENE,68,0.0,0.0,75,0.00,,,0.00,VWS V14.01,2013-02-23 03:08:00,
2013-02-22 22:09:00,37.1,30.0,30.28,ENE,68,0.0,0.0,75,0.00,,,0.00,VWS V14.01,2013-02-23 03:09:00,
2013-02-22 22:10:00,37.1,30.0,30.28,ENE,68,0.0,0.0,75,0.00,,---,0.00,VWS V14.01,2013-02-23 03:10:00,
2013-02-22 22:11:00,37.1,30.0,30.28,ENE,68,0.0,0.0,75,0.00,,,0.00,VWS V14.01,2013-02-23 03:11:00,
2013-02-22 22:12:00,37.1,30.0,30.28,ENE,68,0.0,0.0,75,0.00,,,0.00,VWS V14.01,2013-02-23 03:12:00,
2013-02-22 22:13:00,37.1,30.0,30.28,ENE,68,0.0,0.0,75,0.00,,,0.00,VWS V14.01,2013-02-23 03:13:00,
2013-02-22 22:14:00,37.1,30.0,30.28,ENE,68,0.0,0.0,75,0.00,,,0.00,VWS V14.01,2013-02-23 03:14:00,
2013-02-22 22:15:00,37.2,30.1,30.28,ENE,68,0.0,0.0,75,0.00,,---,0.00,VWS V14.01,2013-02-23 03:15:00,
2013-02-22 22:16:00,37.1,30.0,30.28,ENE,68,0.0,0.0,75,0.00,,,0.00,VWS V14.01,2013-02-23 03:16:00,
2013-02-22 22:17:00,37.2,30.1,30.28,ENE,68,0.0,0.0,75,0.00,,,0.00,VWS V14.01,2013-02-23 03:17:00,
2013-02-22 22:18:00,37.1,30.0,30.28,ENE,68,0.0,0.0,75,0.00,,,0.00,VWS V14.01,2013-02-23 03:18:00,
2013-02-22 22:19:00,37.1,30.0,30.28,ENE,68,0.0,0.0,75,0.00,,,0.00,VWS V14.01,2013-02-23 03:19:00,
2013-02-22 22:20:00,37.1,30.0,30.28,ENE,68,0.0,0.0,75,0.00,,---,0.00,VWS V14.01,2013-02-23 03:20:00,
2013-02-22 22:21:00,37.1,30.0,30.28,ENE,68,0.0,0.0,75,0.00,,,0.00,VWS V14.01,2013-02-23 03:21:00,
2013-02-22 22:22:00,37.1,30.0,30.28,ENE,68,0.0,0.0,75,0.00,,,0.00,VWS V14.01,2013-02-23 03:22:00,
2013-02-22 22:23:00,37.1,30.0,30.28,ENE,68,0.0,0.0,75,0.00,,,0.00,VWS V14.01,2013-02-23 03:23:00,
2013-02-22 22:24:00,37.1,30.0,30.28,ENE,68,0.0,0.0,75,0.00,,,0.00,VWS V14.01,2013-02-23 03:24:00,
2013-02-22 22:25:00,37.1,30.0,30.28,ENE,68,0.0,0.0,75,0.00,,---,0.00,VWS V14.01,2013-02-23 03:25:00,
2013-02-22 22:26:00,37.1,30.0,30.28,ENE,68,0.0,0.0,75,0.00,,,0.00,VWS V14.01,2013-02-23 03:26:00,
2013-02-22 22:27:00,37.1,30.0,30.28,ENE,68,0.0,0.0,75,0.00,,,0.00,VWS V14.01,2013-02-23 03:27:00,
2013-02-22 22:28:00,37.1,30.0,30.28,ENE,68,0.0,0.0,75,0.00,,,0.00,VWS V14.01,2013-02-23 03:28:00,
2013-02-22 22:29:00,37.1,30.0,30.28,ENE,68,0.0,0.0,75,0.00,,,0.00,VWS V14.01,2013-02-23 03:29:00,
2013-02-22 22:30:00,37.1,30.0,30.28,ENE,68,0.0,0.0,75,0.00,,---,0.00,VWS V14.01,2013-02-23 03:30:00,
2013-02-22 22:31:00,37.2,30.1,30.28,ENE,68,0.0,0.0,75,0.00,,,0.00,VWS V14.01,2013-02-23 03:31:00,
2013-02-22 22:32:00,37.1,30.0,30.28,ENE,68,0.0,0.0,75,0.00,,,0.00,VWS V14.01,2013-02-23 03:32:00,
2013-02-22 22:33:00,37.1,30.0,30.28,ENE,68,0.0,0.0,75,0.00,,,0.00,VWS V14.01,2013-02-23 03:33:00,
2013-02-22 22:34:00,37.2,30.1,30.28,ENE,68,0.0,0.0,75,0.00,,,0.00,VWS V14.01,2013-02-23 03:34:00,
2013-02-22 22:35:00,37.2,30.2,30.28,ENE,68,0.0,0.0,76,0.00,,---,0.00,VWS V14.01,2013-02-23 03:35:00,
2013-02-22 22:36:00,37.2,30.1,30.28,ENE,68,0.0,0.0,75,0.00,,,0.00,VWS V14.01,2013-02-23 03:36:00,
2013-02-22 22:37:00,37.2,30.2,30.28,ENE,68,0.0,0.0,76,0.00,,,0.00,VWS V14.01,2013-02-23 03:37:00,
2013-02-22 22:38:00,37.2,30.2,30.28,ENE,68,0.0,0.0,76,0.00,,,0.00,VWS V14.01,2013-02-23 03:38:00,
2013-02-22 22:39:00,37.1,30.1,30.28,ENE,68,0.0,0.0,76,0.00,,,0.00,VWS V14.01,2013-02-23 03:39:00,
2013-02-22 22:40:00,37.2,30.3,30.28,ENE,68,0.0,0.0,76,0.00,,---,0.00,VWS V14.01,2013-02-23 03:40:00,
2013-02-22 22:41:00,37.1,30.2,30.28,ENE,68,0.0,0.0,76,0.00,,,0.00,VWS V14.01,2013-02-23 03:41:00,
2013-02-22 22:42:00,37.2,30.3,30.28,ENE,68,0.0,0.0,76,0.00,,,0.00,VWS V14.01,2013-02-23 03:42:00,
2013-02-22 22:43:00,37.1,30.2,30.28,ENE,68,0.0,0.0,76,0.00,,,0.00,VWS V14.01,2013-02-23 03:43:00,
2013-02-22 22:44:00,37.1,30.2,30.28,ENE,68,0.0,0.0,76,0.00,,,0.00,VWS V14.01,2013-02-23 03:44:00,
2013-02-22 22:45:00,37.1,30.2,30.28,ENE,68,0.0,0.0,76,0.00,,---,0.00,VWS V14.01,2013-02-23 03:45:00,
2013-02-22 22:46:00,37.1,30.2,30.28,ENE,68,0.0,0.0,76,0.00,,,0.00,VWS V14.01,2013-02-23 03:46:00,
2013-02-22 22:47:00,37.1,30.2,30.28,ENE,68,0.0,0.0,76,0.00,,,0.00,VWS V14.01,2013-02-23 03:47:00,
2013-02-22 22:48:00,37.1,30.2,30.28,ENE,68,0.0,0.0,76,0.00,,,0.00,VWS V14.01,2013-02-23 03:48:00,
2013-02-22 22:49:00,37.1,30.2,30.28,ENE,68,0.0,0.0,76,0.00,,,0.00,VWS V14.01,2013-02-23 03:49:00,
2013-02-22 22:50:00,37.1,30.2,30.28,ENE,68,0.0,0.0,76,0.00,,---,0.00,VWS V14.01,2013-02-23 03:50:00,
2013-02-22 22:51:00,37.1,30.2,30.28,ENE,68,0.0,0.0,76,0.00,,,0.00,VWS V14.01,2013-02-23 03:51:00,
2013-02-22 22:52:00,37.1,30.2,30.28,ENE,68,0.0,0.0,76,0.00,,,0.00,VWS V14.01,2013-02-23 03:52:00,
2013-02-22 22:53:00,37.0,30.1,30.28,ENE,68,0.0,0.0,76,0.00,,,0.00,VWS V14.01,2013-02-23 03:53:00,
2013-02-22 22:54:00,37.1,30.2,30.28,ENE,68,0.0,0.0,76,0.00,,,0.00,VWS V14.01,2013-02-23 03:54:00,
2013-02-22 22:55:00,37.1,30.4,30.28,ENE,68,0.0,0.0,76,0.00,,---,0.00,VWS V14.01,2013-02-23 03:55:00,
2013-02-22 22:56:00,37.1,30.3,30.28,ENE,68,0.0,0.0,76,0.00,,,0.00,VWS V14.01,2013-02-23 03:56:00,
2013-02-22 22:57:00,37.1,30.3,30.28,ENE,68,0.0,0.0,76,0.00,,,0.00,VWS V14.01,2013-02-23 03:57:00,
2013-02-22 22:58:00,37.1,30.3,30.28,ENE,68,0.0,0.0,76,0.00,,,0.00,VWS V14.01,2013-02-23 03:58:00,
2013-02-22 22:59:00,37.1,30.3,30.28,ENE,68,0.0,0.0,76,0.00,,,0.00,VWS V14.01,2013-02-23 03:59:00,
2013-02-22 23:00:00,37.1,30.3,30.28,ENE,68,0.0,0.0,76,0.00,,---,0.00,VWS V14.01,2013-02-23 04:00:00,
2013-02-22 23:01:00,37.1,30.3,30.28,ENE,68,0.0,0.0,76,0.00,,,0.00,VWS V14.01,2013-02-23 04:01:00,
2013-02-22 23:02:00,37.1,30.3,30.28,ENE,68,0.0,0.0,76,0.00,,,0.00,VWS V14.01,2013-02-23 04:02:00,
2013-02-22 23:03:00,37.1,30.3,30.28,ENE,68,0.0,0.0,76,0.00,,,0.00,VWS V14.01,2013-02-23 04:03:00,
2013-02-22 23:04:00,37.1,30.3,30.28,ENE,68,0.0,0.0,76,0.00,,,0.00,VWS V14.01,2013-02-23 04:04:00,
2013-02-22 23:05:00,37.1,30.3,30.27,ENE,68,0.0,0.0,76,0.00,,---,0.00,VWS V14.01,2013-02-23 04:05:00,
2013-02-22 23:06:00,37.1,30.3,30.27,ENE,68,0.0,0.0,76,0.00,,,0.00,VWS V14.01,2013-02-23 04:06:00,
2013-02-22 23:07:00,37.1,30.3,30.27,ENE,68,0.0,0.0,76,0.00,,,0.00,VWS V14.01,2013-02-23 04:07:00,
2013-02-22 23:08:00,37.1,30.3,30.27,ENE,68,0.0,0.0,76,0.00,,,0.00,VWS V14.01,2013-02-23 04:08:00,
2013-02-22 23:09:00,37.1,30.3,30.27,ENE,68,0.0,0.0,76,0.00,,,0.00,VWS V14.01,2013-02-23 04:09:00,
2013-02-22 23:10:00,37.1,30.4,30.27,ENE,68,0.0,0.0,76,0.00,,---,0.00,VWS V14.01,2013-02-23 04:10:00,
2013-02-22 23:11:00,37.1,30.3,30.27,ENE,68,0.0,0.0,76,0.00,,,0.00,VWS V14.01,2013-02-23 04:11:00,
2013-02-22 23:12:00,37.1,30.3,30.27,ENE,68,0.0,0.0,76,0.00,,,0.00,VWS V14.01,2013-02-23 04:12:00,
2013-02-22 23:13:00,37.2,30.4,30.27,ENE,68,0.0,0.0,76,0.00,,,0.00,VWS V14.01,2013-02-23 04:13:00,
2013-02-22 23:14:00,37.1,30.3,30.27,ENE,68,0.0,0.0,76,0.00,,,0.00,VWS V14.01,2013-02-23 04:14:00,
2013-02-22 23:15:00,37.2,30.4,30.27,ENE,68,0.0,0.0,76,0.00,,---,0.00,VWS V14.01,2013-02-23 04:15:00,
2013-02-22 23:16:00,37.2,30.4,30.27,ENE,68,0.0,0.0,76,0.00,,,0.00,VWS V14.01,2013-02-23 04:16:00,
2013-02-22 23:17:00,37.2,30.4,30.27,ENE,68,0.0,0.0,76,0.00,,,0.00,VWS V14.01,2013-02-23 04:17:00,
2013-02-22 23:18:00,37.2,30.4,30.27,ENE,68,0.0,0.0,76,0.00,,,0.00,VWS V14.01,2013-02-23 04:18:00,
2013-02-22 23:19:00,37.2,30.4,30.27,ENE,68,0.0,0.0,76,0.00,,,0.00,VWS V14.01,2013-02-23 04:19:00,
2013-02-22 23:20:00,37.2,30.4,30.27,ENE,68,0.0,0.0,76,0.00,,---,0.00,VWS V14.01,2013-02-23 04:20:00,
2013-02-22 23:21:00,37.2,30.4,30.27,ENE,68,0.0,0.0,76,0.00,,,0.00,VWS V14.01,2013-02-23 04:21:00,
2013-02-22 23:22:00,37.2,30.4,30.27,ENE,68,0.0,0.0,76,0.00,,,0.00,VWS V14.01,2013-02-23 04:22:00,
2013-02-22 23:23:00,37.2,30.4,30.27,ENE,68,0.0,0.0,76,0.00,,,0.00,VWS V14.01,2013-02-23 04:23:00,
2013-02-22 23:24:00,37.2,30.4,30.27,ENE,68,0.0,0.0,76,0.00,,,0.00,VWS V14.01,2013-02-23 04:24:00,
2013-02-22 23:25:00,37.2,30.4,30.27,ENE,68,0.0,0.0,76,0.00,,---,0.00,VWS V14.01,2013-02-23 04:25:00,
2013-02-22 23:26:00,37.2,30.4,30.27,ENE,68,0.0,0.0,76,0.00,,,0.00,VWS V14.01,2013-02-23 04:26:00,
2013-02-22 23:27:00,37.2,30.4,30.27,ENE,68,0.0,0.0,76,0.00,,,0.00,VWS V14.01,2013-02-23 04:27:00,
2013-02-22 23:28:00,37.2,30.5,30.27,ENE,68,0.0,0.0,76,0.00,,,0.00,VWS V14.01,2013-02-23 04:28:00,
2013-02-22 23:29:00,37.2,30.5,30.27,ENE,68,0.0,0.0,76,0.00,,,0.00,VWS V14.01,2013-02-23 04:29:00,
2013-02-22 23:30:00,37.2,30.5,30.27,ENE,68,0.0,0.0,76,0.00,,---,0.00,VWS V14.01,2013-02-23 04:30:00,
2013-02-22 23:31:00,37.2,30.5,30.27,ENE,68,0.0,0.0,76,0.00,,,0.00,VWS V14.01,2013-02-23 04:31:00,
2013-02-22 23:32:00,37.2,30.5,30.27,ENE,68,0.0,0.0,76,0.00,,,0.00,VWS V14.01,2013-02-23 04:32:00,
2013-02-22 23:33:00,37.2,30.5,30.27,ENE,68,0.0,0.0,76,0.00,,,0.00,VWS V14.01,2013-02-23 04:33:00,
2013-02-22 23:34:00,37.2,30.5,30.27,ENE,68,0.0,0.0,76,0.00,,,0.00,VWS V14.01,2013-02-23 04:34:00,
2013-02-22 23:35:00,37.2,30.5,30.27,ENE,68,0.0,0.0,76,0.00,,---,0.00,VWS V14.01,2013-02-23 04:35:00,
2013-02-22 23:36:00,37.2,30.5,30.27,ENE,68,0.0,0.0,76,0.00,,,0.00,VWS V14.01,2013-02-23 04:36:00,
2013-02-22 23:37:00,37.2,30.5,30.27,ENE,68,0.0,0.0,76,0.00,,,0.00,VWS V14.01,2013-02-23 04:37:00,
2013-02-22 23:38:00,37.2,30.5,30.27,ENE,68,0.0,0.0,76,0.00,,,0.00,VWS V14.01,2013-02-23 04:38:00,
2013-02-22 23:39:00,37.2,30.5,30.27,ENE,68,0.0,0.0,76,0.00,,,0.00,VWS V14.01,2013-02-23 04:39:00,
2013-02-22 23:40:00,37.2,30.5,30.27,ENE,68,0.0,0.0,77,0.00,,---,0.00,VWS V14.01,2013-02-23 04:40:00,
2013-02-22 23:41:00,37.2,30.5,30.27,ENE,68,0.0,0.0,76,0.00,,,0.00,VWS V14.01,2013-02-23 04:41:00,
2013-02-22 23:42:00,37.2,30.5,30.27,ENE,68,0.0,0.0,77,0.00,,,0.00,VWS V14.01,2013-02-23 04:42:00,
2013-02-22 23:43:00,37.2,30.6,30.27,ENE,68,0.0,0.0,77,0.00,,,0.00,VWS V14.01,2013-02-23 04:43:00,
2013-02-22 23:44:00,37.2,30.6,30.27,ENE,68,0.0,0.0,77,0.00,,,0.00,VWS V14.01,2013-02-23 04:44:00,
2013-02-22 23:45:00,37.2,30.6,30.27,ENE,68,0.0,0.0,77,0.00,,---,0.00,VWS V14.01,2013-02-23 04:45:00,
2013-02-22 23:46:00,37.2,30.6,30.26,ENE,68,0.0,0.0,77,0.00,,,0.00,VWS V14.01,2013-02-23 04:46:00,
2013-02-22 23:47:00,37.2,30.6,30.27,ENE,68,0.0,0.0,77,0.00,,,0.00,VWS V14.01,2013-02-23 04:47:00,
2013-02-22 23:48:00,37.2,30.6,30.26,ENE,68,0.0,0.0,77,0.00,,,0.00,VWS V14.01,2013-02-23 04:48:00,
2013-02-22 23:49:00,37.2,30.6,30.27,ENE,68,0.0,0.0,77,0.00,,,0.00,VWS V14.01,2013-02-23 04:49:00,
2013-02-22 23:50:00,37.2,30.6,30.27,ENE,68,0.0,0.0,77,0.00,,---,0.00,VWS V14.01,2013-02-23 04:50:00,
2013-02-22 23:51:00,37.2,30.6,30.27,ENE,68,0.0,0.0,77,0.00,,,0.00,VWS V14.01,2013-02-23 04:51:00,
2013-02-22 23:52:00,37.2,30.6,30.27,ENE,68,0.0,0.0,77,0.00,,,0.00,VWS V14.01,2013-02-23 04:52:00,
2013-02-22 23:53:00,37.2,30.6,30.27,ENE,68,0.0,0.0,77,0.00,,,0.00,VWS V14.01,2013-02-23 04:53:00,
2013-02-22 23:54:00,37.2,30.6,30.26,ENE,68,0.0,0.0,77,0.00,,,0.00,VWS V14.01,2013-02-23 04:54:00,
2013-02-22 23:55:00,37.1,30.6,30.26,ENE,68,0.0,0.0,77,0.00,,---,0.00,VWS V14.01,2013-02-23 04:55:00,
2013-02-22 23:56:00,37.2,30.7,30.26,ENE,68,0.0,0.0,77,0.00,,,0.00,VWS V14.01,2013-02-23 04:56:00,
2013-02-22 23:57:00,37.1,30.6,30.26,ENE,68,0.0,0.0,77,0.00,,,0.00,VWS V14.01,2013-02-23 04:57:00,
2013-02-22 23:58:00,37.2,30.7,30.26,ENE,68,0.0,0.0,77,0.00,,,0.00,VWS V14.01,2013-02-23 04:58:00,
2013-02-22 23:59:00,37.1,30.6,30.27,ENE,68,0.0,0.0,77,0.00,,,0.00,VWS V14.01,2013-02-23 04:59:00,